<?xml version="1.0" encoding="UTF-8" standalone="no" ?>
<gpx xmlns="http://www.topografix.com/GPX/1/1" creator="www.cicloide.com" version="1.1" xmlns:xsi="http://www.w3.org/2001/XMLSchema-instance" xsi:schemaLocation="http://www.topografix.com/GPX/1/1 http://www.topografix.com/GPX/1/1/gpx.xsd">
  <trk>
    <name>www.cicloide.com 19353</name>
    <desc>www.cicloide.com 19353</desc>
    <trkseg>
      <trkpt lat="41.613700812" lon="2.536302934">
        <ele>100.60</ele>
        <time>2014-09-07T07:49:41Z</time>
      </trkpt>
      <trkpt lat="41.613711289" lon="2.536281811">
        <ele>100.60</ele>
        <time>2014-09-07T07:49:41Z</time>
      </trkpt>
      <trkpt lat="41.613758731" lon="2.536104618">
        <ele>100.60</ele>
        <time>2014-09-07T07:49:48Z</time>
      </trkpt>
      <trkpt lat="41.613882280" lon="2.535808234">
        <ele>102.04</ele>
        <time>2014-09-07T07:49:57Z</time>
      </trkpt>
      <trkpt lat="41.613936846" lon="2.535566080">
        <ele>103.00</ele>
        <time>2014-09-07T07:50:04Z</time>
      </trkpt>
      <trkpt lat="41.614023766" lon="2.535278581">
        <ele>103.48</ele>
        <time>2014-09-07T07:50:14Z</time>
      </trkpt>
      <trkpt lat="41.614129462" lon="2.534908353">
        <ele>104.44</ele>
        <time>2014-09-07T07:50:25Z</time>
      </trkpt>
      <trkpt lat="41.614192410" lon="2.534636779">
        <ele>105.88</ele>
        <time>2014-09-07T07:50:35Z</time>
      </trkpt>
      <trkpt lat="41.614207414" lon="2.534560084">
        <ele>106.36</ele>
        <time>2014-09-07T07:50:37Z</time>
      </trkpt>
      <trkpt lat="41.614205318" lon="2.534536364">
        <ele>106.36</ele>
        <time>2014-09-07T07:50:39Z</time>
      </trkpt>
      <trkpt lat="41.614271452" lon="2.534291277">
        <ele>107.32</ele>
        <time>2014-09-07T07:50:47Z</time>
      </trkpt>
      <trkpt lat="41.614311769" lon="2.534103019">
        <ele>108.29</ele>
        <time>2014-09-07T07:50:54Z</time>
      </trkpt>
      <trkpt lat="41.614357282" lon="2.533918534">
        <ele>108.77</ele>
        <time>2014-09-07T07:50:58Z</time>
      </trkpt>
      <trkpt lat="41.614433390" lon="2.533645786">
        <ele>109.73</ele>
        <time>2014-09-07T07:51:06Z</time>
      </trkpt>
      <trkpt lat="41.614517544" lon="2.533357030">
        <ele>110.21</ele>
        <time>2014-09-07T07:51:15Z</time>
      </trkpt>
      <trkpt lat="41.614585438" lon="2.533110937">
        <ele>110.69</ele>
        <time>2014-09-07T07:51:22Z</time>
      </trkpt>
      <trkpt lat="41.614653918" lon="2.532885296">
        <ele>111.17</ele>
        <time>2014-09-07T07:51:29Z</time>
      </trkpt>
      <trkpt lat="41.614703958" lon="2.532677844">
        <ele>112.61</ele>
        <time>2014-09-07T07:51:36Z</time>
      </trkpt>
      <trkpt lat="41.614929515" lon="2.532424711">
        <ele>113.09</ele>
        <time>2014-09-07T07:51:41Z</time>
      </trkpt>
      <trkpt lat="41.615033702" lon="2.532147018">
        <ele>113.09</ele>
        <time>2014-09-07T07:51:50Z</time>
      </trkpt>
      <trkpt lat="41.615150629" lon="2.531896651">
        <ele>114.53</ele>
        <time>2014-09-07T07:51:57Z</time>
      </trkpt>
      <trkpt lat="41.615163454" lon="2.531590460">
        <ele>115.01</ele>
        <time>2014-09-07T07:52:06Z</time>
      </trkpt>
      <trkpt lat="41.615159179" lon="2.531283347">
        <ele>115.50</ele>
        <time>2014-09-07T07:52:13Z</time>
      </trkpt>
      <trkpt lat="41.615183822" lon="2.530959135">
        <ele>116.94</ele>
        <time>2014-09-07T07:52:23Z</time>
      </trkpt>
      <trkpt lat="41.615220618" lon="2.530588152">
        <ele>117.90</ele>
        <time>2014-09-07T07:52:32Z</time>
      </trkpt>
      <trkpt lat="41.615203687" lon="2.530238040">
        <ele>119.34</ele>
        <time>2014-09-07T07:52:42Z</time>
      </trkpt>
      <trkpt lat="41.615211231" lon="2.529995300">
        <ele>119.82</ele>
        <time>2014-09-07T07:52:49Z</time>
      </trkpt>
      <trkpt lat="41.615213410" lon="2.529629765">
        <ele>121.26</ele>
        <time>2014-09-07T07:52:58Z</time>
      </trkpt>
      <trkpt lat="41.615222965" lon="2.529327681">
        <ele>122.22</ele>
        <time>2014-09-07T07:53:07Z</time>
      </trkpt>
      <trkpt lat="41.615223384" lon="2.529095754">
        <ele>123.19</ele>
        <time>2014-09-07T07:53:14Z</time>
      </trkpt>
      <trkpt lat="41.615275855" lon="2.528757544">
        <ele>124.15</ele>
        <time>2014-09-07T07:53:22Z</time>
      </trkpt>
      <trkpt lat="41.615336037" lon="2.528467866">
        <ele>124.63</ele>
        <time>2014-09-07T07:53:31Z</time>
      </trkpt>
      <trkpt lat="41.615411558" lon="2.528104846">
        <ele>125.11</ele>
        <time>2014-09-07T07:53:40Z</time>
      </trkpt>
      <trkpt lat="41.615471070" lon="2.527784741">
        <ele>127.03</ele>
        <time>2014-09-07T07:53:50Z</time>
      </trkpt>
      <trkpt lat="41.615513147" lon="2.527560022">
        <ele>127.51</ele>
        <time>2014-09-07T07:53:57Z</time>
      </trkpt>
      <trkpt lat="41.615564276" lon="2.527277552">
        <ele>128.95</ele>
        <time>2014-09-07T07:54:06Z</time>
      </trkpt>
      <trkpt lat="41.615599480" lon="2.527056437">
        <ele>129.92</ele>
        <time>2014-09-07T07:54:13Z</time>
      </trkpt>
      <trkpt lat="41.615620770" lon="2.526773716">
        <ele>131.36</ele>
        <time>2014-09-07T07:54:20Z</time>
      </trkpt>
      <trkpt lat="41.615589171" lon="2.526477834">
        <ele>132.80</ele>
        <time>2014-09-07T07:54:27Z</time>
      </trkpt>
      <trkpt lat="41.615561091" lon="2.526201399">
        <ele>133.28</ele>
        <time>2014-09-07T07:54:35Z</time>
      </trkpt>
      <trkpt lat="41.615553296" lon="2.525832763">
        <ele>134.24</ele>
        <time>2014-09-07T07:54:46Z</time>
      </trkpt>
      <trkpt lat="41.615545417" lon="2.525493799">
        <ele>135.68</ele>
        <time>2014-09-07T07:54:55Z</time>
      </trkpt>
      <trkpt lat="41.615558493" lon="2.525222058">
        <ele>136.64</ele>
        <time>2014-09-07T07:55:03Z</time>
      </trkpt>
      <trkpt lat="41.615587159" lon="2.524882004">
        <ele>138.09</ele>
        <time>2014-09-07T07:55:12Z</time>
      </trkpt>
      <trkpt lat="41.615616915" lon="2.524642617">
        <ele>138.57</ele>
        <time>2014-09-07T07:55:19Z</time>
      </trkpt>
      <trkpt lat="41.615638456" lon="2.524360733">
        <ele>139.53</ele>
        <time>2014-09-07T07:55:28Z</time>
      </trkpt>
      <trkpt lat="41.615663351" lon="2.524139451">
        <ele>140.97</ele>
        <time>2014-09-07T07:55:35Z</time>
      </trkpt>
      <trkpt lat="41.615686401" lon="2.523881707">
        <ele>142.89</ele>
        <time>2014-09-07T07:55:42Z</time>
      </trkpt>
      <trkpt lat="41.615710373" lon="2.523649529">
        <ele>143.37</ele>
        <time>2014-09-07T07:55:49Z</time>
      </trkpt>
      <trkpt lat="41.615741805" lon="2.523367645">
        <ele>144.34</ele>
        <time>2014-09-07T07:55:57Z</time>
      </trkpt>
      <trkpt lat="41.615796707" lon="2.523091713">
        <ele>145.30</ele>
        <time>2014-09-07T07:56:06Z</time>
      </trkpt>
      <trkpt lat="41.615816069" lon="2.522915442">
        <ele>145.78</ele>
        <time>2014-09-07T07:56:11Z</time>
      </trkpt>
      <trkpt lat="41.615859152" lon="2.522650322">
        <ele>146.74</ele>
        <time>2014-09-07T07:56:18Z</time>
      </trkpt>
      <trkpt lat="41.615915730" lon="2.522306580">
        <ele>148.18</ele>
        <time>2014-09-07T07:56:27Z</time>
      </trkpt>
      <trkpt lat="41.615963423" lon="2.521953534">
        <ele>149.62</ele>
        <time>2014-09-07T07:56:37Z</time>
      </trkpt>
      <trkpt lat="41.615974068" lon="2.521681206">
        <ele>150.10</ele>
        <time>2014-09-07T07:56:44Z</time>
      </trkpt>
      <trkpt lat="41.616010361" lon="2.521415919">
        <ele>150.58</ele>
        <time>2014-09-07T07:56:53Z</time>
      </trkpt>
      <trkpt lat="41.616054115" lon="2.521126576">
        <ele>151.54</ele>
        <time>2014-09-07T07:57:00Z</time>
      </trkpt>
      <trkpt lat="41.616047912" lon="2.520864306">
        <ele>151.54</ele>
        <time>2014-09-07T07:57:09Z</time>
      </trkpt>
      <trkpt lat="41.616084206" lon="2.520630283">
        <ele>152.51</ele>
        <time>2014-09-07T07:57:16Z</time>
      </trkpt>
      <trkpt lat="41.616177245" lon="2.520378491">
        <ele>153.47</ele>
        <time>2014-09-07T07:57:23Z</time>
      </trkpt>
      <trkpt lat="41.616194093" lon="2.520345718">
        <ele>153.47</ele>
        <time>2014-09-07T07:57:24Z</time>
      </trkpt>
      <trkpt lat="41.616250503" lon="2.520207416">
        <ele>153.95</ele>
        <time>2014-09-07T07:57:30Z</time>
      </trkpt>
      <trkpt lat="41.616371705" lon="2.519915139">
        <ele>154.91</ele>
        <time>2014-09-07T07:57:38Z</time>
      </trkpt>
      <trkpt lat="41.616442784" lon="2.519637531">
        <ele>155.87</ele>
        <time>2014-09-07T07:57:47Z</time>
      </trkpt>
      <trkpt lat="41.616486453" lon="2.519403424">
        <ele>157.31</ele>
        <time>2014-09-07T07:57:54Z</time>
      </trkpt>
      <trkpt lat="41.616532302" lon="2.519178203">
        <ele>157.31</ele>
        <time>2014-09-07T07:58:01Z</time>
      </trkpt>
      <trkpt lat="41.616582091" lon="2.518930266">
        <ele>158.27</ele>
        <time>2014-09-07T07:58:08Z</time>
      </trkpt>
      <trkpt lat="41.616662557" lon="2.518698422">
        <ele>158.27</ele>
        <time>2014-09-07T07:58:15Z</time>
      </trkpt>
      <trkpt lat="41.616728439" lon="2.518380664">
        <ele>158.75</ele>
        <time>2014-09-07T07:58:22Z</time>
      </trkpt>
      <trkpt lat="41.616736988" lon="2.518094339">
        <ele>159.72</ele>
        <time>2014-09-07T07:58:29Z</time>
      </trkpt>
      <trkpt lat="41.616736066" lon="2.517827124">
        <ele>160.20</ele>
        <time>2014-09-07T07:58:36Z</time>
      </trkpt>
      <trkpt lat="41.616751154" lon="2.517634843">
        <ele>161.64</ele>
        <time>2014-09-07T07:58:43Z</time>
      </trkpt>
      <trkpt lat="41.616769007" lon="2.517434180">
        <ele>162.12</ele>
        <time>2014-09-07T07:58:48Z</time>
      </trkpt>
      <trkpt lat="41.616815527" lon="2.517097144">
        <ele>163.08</ele>
        <time>2014-09-07T07:58:57Z</time>
      </trkpt>
      <trkpt lat="41.616837488" lon="2.516756168">
        <ele>164.52</ele>
        <time>2014-09-07T07:59:06Z</time>
      </trkpt>
      <trkpt lat="41.616855425" lon="2.516503034">
        <ele>165.48</ele>
        <time>2014-09-07T07:59:12Z</time>
      </trkpt>
      <trkpt lat="41.616873530" lon="2.516234813">
        <ele>166.45</ele>
        <time>2014-09-07T07:59:19Z</time>
      </trkpt>
      <trkpt lat="41.616883169" lon="2.515959049">
        <ele>166.93</ele>
        <time>2014-09-07T07:59:26Z</time>
      </trkpt>
      <trkpt lat="41.616885097" lon="2.515640872">
        <ele>167.89</ele>
        <time>2014-09-07T07:59:35Z</time>
      </trkpt>
      <trkpt lat="41.616900100" lon="2.515389918">
        <ele>168.37</ele>
        <time>2014-09-07T07:59:42Z</time>
      </trkpt>
      <trkpt lat="41.616912506" lon="2.515073165">
        <ele>169.81</ele>
        <time>2014-09-07T07:59:51Z</time>
      </trkpt>
      <trkpt lat="41.616906973" lon="2.514782565">
        <ele>170.77</ele>
        <time>2014-09-07T07:59:58Z</time>
      </trkpt>
      <trkpt lat="41.616895574" lon="2.514460197">
        <ele>172.21</ele>
        <time>2014-09-07T08:00:08Z</time>
      </trkpt>
      <trkpt lat="41.616898843" lon="2.514217625">
        <ele>173.17</ele>
        <time>2014-09-07T08:00:15Z</time>
      </trkpt>
      <trkpt lat="41.616914098" lon="2.513888132">
        <ele>174.14</ele>
        <time>2014-09-07T08:00:24Z</time>
      </trkpt>
      <trkpt lat="41.616935975" lon="2.513610691">
        <ele>175.10</ele>
        <time>2014-09-07T08:00:31Z</time>
      </trkpt>
      <trkpt lat="41.616940501" lon="2.513205174">
        <ele>176.54</ele>
        <time>2014-09-07T08:00:43Z</time>
      </trkpt>
      <trkpt lat="41.616924995" lon="2.512931422">
        <ele>177.50</ele>
        <time>2014-09-07T08:00:50Z</time>
      </trkpt>
      <trkpt lat="41.616869003" lon="2.512652053">
        <ele>178.46</ele>
        <time>2014-09-07T08:00:59Z</time>
      </trkpt>
      <trkpt lat="41.616838326" lon="2.512428004">
        <ele>178.94</ele>
        <time>2014-09-07T08:01:06Z</time>
      </trkpt>
      <trkpt lat="41.616769594" lon="2.512255253">
        <ele>179.90</ele>
        <time>2014-09-07T08:01:13Z</time>
      </trkpt>
      <trkpt lat="41.616658031" lon="2.512062721">
        <ele>180.87</ele>
        <time>2014-09-07T08:01:21Z</time>
      </trkpt>
      <trkpt lat="41.616537667" lon="2.511901956">
        <ele>181.35</ele>
        <time>2014-09-07T08:01:27Z</time>
      </trkpt>
      <trkpt lat="41.616420907" lon="2.511706406">
        <ele>182.31</ele>
        <time>2014-09-07T08:01:34Z</time>
      </trkpt>
      <trkpt lat="41.616411771" lon="2.511535080">
        <ele>182.31</ele>
        <time>2014-09-07T08:01:42Z</time>
      </trkpt>
      <trkpt lat="41.616416381" lon="2.511345063">
        <ele>183.27</ele>
        <time>2014-09-07T08:01:48Z</time>
      </trkpt>
      <trkpt lat="41.616498942" lon="2.511054043">
        <ele>184.23</ele>
        <time>2014-09-07T08:01:56Z</time>
      </trkpt>
      <trkpt lat="41.616590305" lon="2.510846591">
        <ele>185.67</ele>
        <time>2014-09-07T08:02:03Z</time>
      </trkpt>
      <trkpt lat="41.616725002" lon="2.510680042">
        <ele>188.08</ele>
        <time>2014-09-07T08:02:10Z</time>
      </trkpt>
      <trkpt lat="41.616819550" lon="2.510483906">
        <ele>190.00</ele>
        <time>2014-09-07T08:02:19Z</time>
      </trkpt>
      <trkpt lat="41.616849390" lon="2.510380473">
        <ele>191.44</ele>
        <time>2014-09-07T08:02:22Z</time>
      </trkpt>
      <trkpt lat="41.616850479" lon="2.510139074">
        <ele>193.36</ele>
        <time>2014-09-07T08:02:31Z</time>
      </trkpt>
      <trkpt lat="41.616841595" lon="2.509930533">
        <ele>195.28</ele>
        <time>2014-09-07T08:02:40Z</time>
      </trkpt>
      <trkpt lat="41.616936226" lon="2.509733809">
        <ele>196.73</ele>
        <time>2014-09-07T08:02:47Z</time>
      </trkpt>
      <trkpt lat="41.616976879" lon="2.509577571">
        <ele>196.73</ele>
        <time>2014-09-07T08:02:54Z</time>
      </trkpt>
      <trkpt lat="41.616890713" lon="2.509580840">
        <ele>197.69</ele>
        <time>2014-09-07T08:03:01Z</time>
      </trkpt>
      <trkpt lat="41.616843606" lon="2.509640938">
        <ele>198.17</ele>
        <time>2014-09-07T08:03:04Z</time>
      </trkpt>
      <trkpt lat="41.616730367" lon="2.509836069">
        <ele>199.13</ele>
        <time>2014-09-07T08:03:15Z</time>
      </trkpt>
      <trkpt lat="41.616675298" lon="2.509890635">
        <ele>200.09</ele>
        <time>2014-09-07T08:03:18Z</time>
      </trkpt>
      <trkpt lat="41.616532051" lon="2.509849982">
        <ele>201.05</ele>
        <time>2014-09-07T08:03:29Z</time>
      </trkpt>
      <trkpt lat="41.616425768" lon="2.509769600">
        <ele>202.49</ele>
        <time>2014-09-07T08:03:37Z</time>
      </trkpt>
      <trkpt lat="41.616392241" lon="2.509623587">
        <ele>204.42</ele>
        <time>2014-09-07T08:03:46Z</time>
      </trkpt>
      <trkpt lat="41.616391319" lon="2.509580001">
        <ele>205.38</ele>
        <time>2014-09-07T08:03:48Z</time>
      </trkpt>
      <trkpt lat="41.616375393" lon="2.509424769">
        <ele>207.30</ele>
        <time>2014-09-07T08:03:58Z</time>
      </trkpt>
      <trkpt lat="41.616356953" lon="2.509214718">
        <ele>209.70</ele>
        <time>2014-09-07T08:04:07Z</time>
      </trkpt>
      <trkpt lat="41.616345721" lon="2.509024868">
        <ele>211.15</ele>
        <time>2014-09-07T08:04:17Z</time>
      </trkpt>
      <trkpt lat="41.616301381" lon="2.508843735">
        <ele>214.03</ele>
        <time>2014-09-07T08:04:26Z</time>
      </trkpt>
      <trkpt lat="41.616256119" lon="2.508670900">
        <ele>216.43</ele>
        <time>2014-09-07T08:04:38Z</time>
      </trkpt>
      <trkpt lat="41.616174982" lon="2.508415001">
        <ele>218.84</ele>
        <time>2014-09-07T08:04:49Z</time>
      </trkpt>
      <trkpt lat="41.616135503" lon="2.508293379">
        <ele>220.28</ele>
        <time>2014-09-07T08:04:56Z</time>
      </trkpt>
      <trkpt lat="41.616090408" lon="2.508163292">
        <ele>221.72</ele>
        <time>2014-09-07T08:05:04Z</time>
      </trkpt>
      <trkpt lat="41.616067442" lon="2.508053573">
        <ele>223.64</ele>
        <time>2014-09-07T08:05:11Z</time>
      </trkpt>
      <trkpt lat="41.616055037" lon="2.508001773">
        <ele>223.64</ele>
        <time>2014-09-07T08:05:13Z</time>
      </trkpt>
      <trkpt lat="41.616038273" lon="2.507915607">
        <ele>223.16</ele>
        <time>2014-09-07T08:05:18Z</time>
      </trkpt>
      <trkpt lat="41.615973313" lon="2.507739838">
        <ele>225.57</ele>
        <time>2014-09-07T08:05:27Z</time>
      </trkpt>
      <trkpt lat="41.615932074" lon="2.507609835">
        <ele>227.97</ele>
        <time>2014-09-07T08:05:36Z</time>
      </trkpt>
      <trkpt lat="41.615895026" lon="2.507427864">
        <ele>228.93</ele>
        <time>2014-09-07T08:05:44Z</time>
      </trkpt>
      <trkpt lat="41.615875748" lon="2.507245558">
        <ele>230.37</ele>
        <time>2014-09-07T08:05:55Z</time>
      </trkpt>
      <trkpt lat="41.615842723" lon="2.507131312">
        <ele>231.81</ele>
        <time>2014-09-07T08:06:02Z</time>
      </trkpt>
      <trkpt lat="41.615807435" lon="2.506997369">
        <ele>233.26</ele>
        <time>2014-09-07T08:06:09Z</time>
      </trkpt>
      <trkpt lat="41.615818583" lon="2.506881280">
        <ele>235.18</ele>
        <time>2014-09-07T08:06:17Z</time>
      </trkpt>
      <trkpt lat="41.615840879" lon="2.506701740">
        <ele>236.62</ele>
        <time>2014-09-07T08:06:28Z</time>
      </trkpt>
      <trkpt lat="41.615885219" lon="2.506490935">
        <ele>239.51</ele>
        <time>2014-09-07T08:06:40Z</time>
      </trkpt>
      <trkpt lat="41.615932745" lon="2.506353052">
        <ele>241.43</ele>
        <time>2014-09-07T08:06:49Z</time>
      </trkpt>
      <trkpt lat="41.616002566" lon="2.506188264">
        <ele>244.31</ele>
        <time>2014-09-07T08:06:59Z</time>
      </trkpt>
      <trkpt lat="41.616040452" lon="2.505987099">
        <ele>246.23</ele>
        <time>2014-09-07T08:07:10Z</time>
      </trkpt>
      <trkpt lat="41.616090576" lon="2.505846199">
        <ele>248.16</ele>
        <time>2014-09-07T08:07:18Z</time>
      </trkpt>
      <trkpt lat="41.616146567" lon="2.505712424">
        <ele>249.60</ele>
        <time>2014-09-07T08:07:27Z</time>
      </trkpt>
      <trkpt lat="41.616182442" lon="2.505594490">
        <ele>251.52</ele>
        <time>2014-09-07T08:07:36Z</time>
      </trkpt>
      <trkpt lat="41.616239523" lon="2.505420733">
        <ele>253.44</ele>
        <time>2014-09-07T08:07:46Z</time>
      </trkpt>
      <trkpt lat="41.616282270" lon="2.505267512">
        <ele>255.37</ele>
        <time>2014-09-07T08:07:55Z</time>
      </trkpt>
      <trkpt lat="41.616259052" lon="2.505122673">
        <ele>257.29</ele>
        <time>2014-09-07T08:08:02Z</time>
      </trkpt>
      <trkpt lat="41.616212281" lon="2.504963081">
        <ele>257.77</ele>
        <time>2014-09-07T08:08:11Z</time>
      </trkpt>
      <trkpt lat="41.616082865" lon="2.504907342">
        <ele>259.21</ele>
        <time>2014-09-07T08:08:19Z</time>
      </trkpt>
      <trkpt lat="41.616012457" lon="2.504897284">
        <ele>260.17</ele>
        <time>2014-09-07T08:08:26Z</time>
      </trkpt>
      <trkpt lat="41.615935595" lon="2.504898206">
        <ele>260.17</ele>
        <time>2014-09-07T08:08:32Z</time>
      </trkpt>
      <trkpt lat="41.615791091" lon="2.504899798">
        <ele>261.62</ele>
        <time>2014-09-07T08:08:40Z</time>
      </trkpt>
      <trkpt lat="41.615673996" lon="2.504894517">
        <ele>263.06</ele>
        <time>2014-09-07T08:08:49Z</time>
      </trkpt>
      <trkpt lat="41.615564696" lon="2.504897786">
        <ele>264.98</ele>
        <time>2014-09-07T08:08:58Z</time>
      </trkpt>
      <trkpt lat="41.615449193" lon="2.504823690">
        <ele>265.46</ele>
        <time>2014-09-07T08:09:05Z</time>
      </trkpt>
      <trkpt lat="41.615443577" lon="2.504681366">
        <ele>266.90</ele>
        <time>2014-09-07T08:09:12Z</time>
      </trkpt>
      <trkpt lat="41.615449780" lon="2.504549351">
        <ele>268.83</ele>
        <time>2014-09-07T08:09:22Z</time>
      </trkpt>
      <trkpt lat="41.615459838" lon="2.504344246">
        <ele>271.23</ele>
        <time>2014-09-07T08:09:33Z</time>
      </trkpt>
      <trkpt lat="41.615483643" lon="2.504189767">
        <ele>273.63</ele>
        <time>2014-09-07T08:09:43Z</time>
      </trkpt>
      <trkpt lat="41.615519685" lon="2.504055070">
        <ele>275.56</ele>
        <time>2014-09-07T08:09:52Z</time>
      </trkpt>
      <trkpt lat="41.615533263" lon="2.504010981">
        <ele>276.04</ele>
        <time>2014-09-07T08:09:55Z</time>
      </trkpt>
      <trkpt lat="41.615552877" lon="2.503872512">
        <ele>278.44</ele>
        <time>2014-09-07T08:10:04Z</time>
      </trkpt>
      <trkpt lat="41.615551452" lon="2.503712585">
        <ele>279.88</ele>
        <time>2014-09-07T08:10:13Z</time>
      </trkpt>
      <trkpt lat="41.615542483" lon="2.503590964">
        <ele>281.32</ele>
        <time>2014-09-07T08:10:21Z</time>
      </trkpt>
      <trkpt lat="41.615523205" lon="2.503391139">
        <ele>282.28</ele>
        <time>2014-09-07T08:10:30Z</time>
      </trkpt>
      <trkpt lat="41.615448858" lon="2.503144125">
        <ele>282.28</ele>
        <time>2014-09-07T08:10:37Z</time>
      </trkpt>
      <trkpt lat="41.615310891" lon="2.502920076">
        <ele>282.28</ele>
        <time>2014-09-07T08:10:48Z</time>
      </trkpt>
      <trkpt lat="41.615268395" lon="2.502774483">
        <ele>282.28</ele>
        <time>2014-09-07T08:10:51Z</time>
      </trkpt>
      <trkpt lat="41.615187678" lon="2.502466113">
        <ele>282.77</ele>
        <time>2014-09-07T08:11:01Z</time>
      </trkpt>
      <trkpt lat="41.615138057" lon="2.502268383">
        <ele>283.73</ele>
        <time>2014-09-07T08:11:10Z</time>
      </trkpt>
      <trkpt lat="41.615086759" lon="2.502108792">
        <ele>285.17</ele>
        <time>2014-09-07T08:11:17Z</time>
      </trkpt>
      <trkpt lat="41.615070750" lon="2.501936125">
        <ele>286.13</ele>
        <time>2014-09-07T08:11:26Z</time>
      </trkpt>
      <trkpt lat="41.615068319" lon="2.501869740">
        <ele>286.13</ele>
        <time>2014-09-07T08:11:29Z</time>
      </trkpt>
      <trkpt lat="41.615047364" lon="2.501599927">
        <ele>286.61</ele>
        <time>2014-09-07T08:11:38Z</time>
      </trkpt>
      <trkpt lat="41.615037893" lon="2.501531111">
        <ele>286.61</ele>
        <time>2014-09-07T08:11:40Z</time>
      </trkpt>
      <trkpt lat="41.614870842" lon="2.501483670">
        <ele>286.61</ele>
        <time>2014-09-07T08:11:45Z</time>
      </trkpt>
      <trkpt lat="41.614750058" lon="2.501469756">
        <ele>287.09</ele>
        <time>2014-09-07T08:11:52Z</time>
      </trkpt>
      <trkpt lat="41.614716363" lon="2.501446957">
        <ele>287.09</ele>
        <time>2014-09-07T08:11:54Z</time>
      </trkpt>
      <trkpt lat="41.614618043" lon="2.501368251">
        <ele>288.53</ele>
        <time>2014-09-07T08:12:01Z</time>
      </trkpt>
      <trkpt lat="41.614510504" lon="2.501307817">
        <ele>289.49</ele>
        <time>2014-09-07T08:12:11Z</time>
      </trkpt>
      <trkpt lat="41.614418889" lon="2.501205977">
        <ele>290.94</ele>
        <time>2014-09-07T08:12:18Z</time>
      </trkpt>
      <trkpt lat="41.614374214" lon="2.501078069">
        <ele>291.42</ele>
        <time>2014-09-07T08:12:25Z</time>
      </trkpt>
      <trkpt lat="41.614306404" lon="2.500875898">
        <ele>293.34</ele>
        <time>2014-09-07T08:12:34Z</time>
      </trkpt>
      <trkpt lat="41.614296262" lon="2.500854105">
        <ele>293.82</ele>
        <time>2014-09-07T08:12:34Z</time>
      </trkpt>
      <trkpt lat="41.614233733" lon="2.500692418">
        <ele>296.22</ele>
        <time>2014-09-07T08:12:44Z</time>
      </trkpt>
      <trkpt lat="41.614160811" lon="2.500589237">
        <ele>297.67</ele>
        <time>2014-09-07T08:12:51Z</time>
      </trkpt>
      <trkpt lat="41.614054360" lon="2.500456300">
        <ele>301.51</ele>
        <time>2014-09-07T08:13:03Z</time>
      </trkpt>
      <trkpt lat="41.614004237" lon="2.500373487">
        <ele>302.95</ele>
        <time>2014-09-07T08:13:10Z</time>
      </trkpt>
      <trkpt lat="41.613933326" lon="2.500258403">
        <ele>304.88</ele>
        <time>2014-09-07T08:13:21Z</time>
      </trkpt>
      <trkpt lat="41.613900636" lon="2.500205262">
        <ele>305.84</ele>
        <time>2014-09-07T08:13:26Z</time>
      </trkpt>
      <trkpt lat="41.613888734" lon="2.500132423">
        <ele>307.28</ele>
        <time>2014-09-07T08:13:31Z</time>
      </trkpt>
      <trkpt lat="41.613922429" lon="2.500092525">
        <ele>307.76</ele>
        <time>2014-09-07T08:13:35Z</time>
      </trkpt>
      <trkpt lat="41.614003566" lon="2.500157485">
        <ele>309.20</ele>
        <time>2014-09-07T08:13:43Z</time>
      </trkpt>
      <trkpt lat="41.614022677" lon="2.500180451">
        <ele>309.68</ele>
        <time>2014-09-07T08:13:45Z</time>
      </trkpt>
      <trkpt lat="41.614139353" lon="2.500291009">
        <ele>311.60</ele>
        <time>2014-09-07T08:13:57Z</time>
      </trkpt>
      <trkpt lat="41.614281007" lon="2.500336439">
        <ele>313.53</ele>
        <time>2014-09-07T08:14:08Z</time>
      </trkpt>
      <trkpt lat="41.614335154" lon="2.500362171">
        <ele>314.49</ele>
        <time>2014-09-07T08:14:13Z</time>
      </trkpt>
      <trkpt lat="41.614436994" lon="2.500402907">
        <ele>316.41</ele>
        <time>2014-09-07T08:14:22Z</time>
      </trkpt>
      <trkpt lat="41.614543528" lon="2.500481362">
        <ele>318.33</ele>
        <time>2014-09-07T08:14:30Z</time>
      </trkpt>
      <trkpt lat="41.614619971" lon="2.500541544">
        <ele>319.78</ele>
        <time>2014-09-07T08:14:37Z</time>
      </trkpt>
      <trkpt lat="41.614710663" lon="2.500610359">
        <ele>321.22</ele>
        <time>2014-09-07T08:14:46Z</time>
      </trkpt>
      <trkpt lat="41.614800350" lon="2.500653274">
        <ele>323.14</ele>
        <time>2014-09-07T08:14:55Z</time>
      </trkpt>
      <trkpt lat="41.614913589" lon="2.500613460">
        <ele>323.62</ele>
        <time>2014-09-07T08:15:04Z</time>
      </trkpt>
      <trkpt lat="41.615026074" lon="2.500583789">
        <ele>324.10</ele>
        <time>2014-09-07T08:15:12Z</time>
      </trkpt>
      <trkpt lat="41.615134536" lon="2.500676744">
        <ele>324.10</ele>
        <time>2014-09-07T08:15:19Z</time>
      </trkpt>
      <trkpt lat="41.615278537" lon="2.500691496">
        <ele>325.06</ele>
        <time>2014-09-07T08:15:26Z</time>
      </trkpt>
      <trkpt lat="41.615399740" lon="2.500632236">
        <ele>325.54</ele>
        <time>2014-09-07T08:15:35Z</time>
      </trkpt>
      <trkpt lat="41.615526223" lon="2.500536095">
        <ele>326.99</ele>
        <time>2014-09-07T08:15:45Z</time>
      </trkpt>
      <trkpt lat="41.615639211" lon="2.500523774">
        <ele>327.47</ele>
        <time>2014-09-07T08:15:52Z</time>
      </trkpt>
      <trkpt lat="41.615796036" lon="2.500533329">
        <ele>329.39</ele>
        <time>2014-09-07T08:16:03Z</time>
      </trkpt>
      <trkpt lat="41.615872647" lon="2.500477171">
        <ele>330.83</ele>
        <time>2014-09-07T08:16:08Z</time>
      </trkpt>
      <trkpt lat="41.615899888" lon="2.500378683">
        <ele>332.27</ele>
        <time>2014-09-07T08:16:15Z</time>
      </trkpt>
      <trkpt lat="41.615867115" lon="2.500315651">
        <ele>332.75</ele>
        <time>2014-09-07T08:16:20Z</time>
      </trkpt>
      <trkpt lat="41.615792683" lon="2.500308443">
        <ele>334.20</ele>
        <time>2014-09-07T08:16:27Z</time>
      </trkpt>
      <trkpt lat="41.615671313" lon="2.500329230">
        <ele>336.60</ele>
        <time>2014-09-07T08:16:36Z</time>
      </trkpt>
      <trkpt lat="41.615545752" lon="2.500318417">
        <ele>338.04</ele>
        <time>2014-09-07T08:16:43Z</time>
      </trkpt>
      <trkpt lat="41.615417342" lon="2.500325374">
        <ele>339.96</ele>
        <time>2014-09-07T08:16:53Z</time>
      </trkpt>
      <trkpt lat="41.615295050" lon="2.500275334">
        <ele>341.41</ele>
        <time>2014-09-07T08:17:02Z</time>
      </trkpt>
      <trkpt lat="41.615234868" lon="2.500135105">
        <ele>342.37</ele>
        <time>2014-09-07T08:17:09Z</time>
      </trkpt>
      <trkpt lat="41.615197903" lon="2.500060590">
        <ele>342.85</ele>
        <time>2014-09-07T08:17:12Z</time>
      </trkpt>
      <trkpt lat="41.615119030" lon="2.499981716">
        <ele>343.81</ele>
        <time>2014-09-07T08:17:18Z</time>
      </trkpt>
      <trkpt lat="41.614952900" lon="2.499986829">
        <ele>345.73</ele>
        <time>2014-09-07T08:17:30Z</time>
      </trkpt>
      <trkpt lat="41.614825244" lon="2.499999654">
        <ele>348.13</ele>
        <time>2014-09-07T08:17:40Z</time>
      </trkpt>
      <trkpt lat="41.614737485" lon="2.499912063">
        <ele>350.54</ele>
        <time>2014-09-07T08:17:49Z</time>
      </trkpt>
      <trkpt lat="41.614678645" lon="2.499767224">
        <ele>352.94</ele>
        <time>2014-09-07T08:17:58Z</time>
      </trkpt>
      <trkpt lat="41.614637154" lon="2.499642166">
        <ele>355.34</ele>
        <time>2014-09-07T08:18:06Z</time>
      </trkpt>
      <trkpt lat="41.614598681" lon="2.499554826">
        <ele>356.79</ele>
        <time>2014-09-07T08:18:13Z</time>
      </trkpt>
      <trkpt lat="41.614582504" lon="2.499511492">
        <ele>357.75</ele>
        <time>2014-09-07T08:18:17Z</time>
      </trkpt>
      <trkpt lat="41.614573200" lon="2.499385847">
        <ele>359.19</ele>
        <time>2014-09-07T08:18:24Z</time>
      </trkpt>
      <trkpt lat="41.614583761" lon="2.499298507">
        <ele>360.15</ele>
        <time>2014-09-07T08:18:29Z</time>
      </trkpt>
      <trkpt lat="41.614600190" lon="2.499213766">
        <ele>361.11</ele>
        <time>2014-09-07T08:18:34Z</time>
      </trkpt>
      <trkpt lat="41.614622821" lon="2.499137072">
        <ele>362.07</ele>
        <time>2014-09-07T08:18:40Z</time>
      </trkpt>
      <trkpt lat="41.614658025" lon="2.498969434">
        <ele>363.04</ele>
        <time>2014-09-07T08:18:50Z</time>
      </trkpt>
      <trkpt lat="41.614663222" lon="2.498889052">
        <ele>363.52</ele>
        <time>2014-09-07T08:18:55Z</time>
      </trkpt>
      <trkpt lat="41.614671688" lon="2.498802131">
        <ele>364.00</ele>
        <time>2014-09-07T08:18:59Z</time>
      </trkpt>
      <trkpt lat="41.614688451" lon="2.498602307">
        <ele>365.92</ele>
        <time>2014-09-07T08:19:11Z</time>
      </trkpt>
      <trkpt lat="41.614717620" lon="2.498413127">
        <ele>367.84</ele>
        <time>2014-09-07T08:19:23Z</time>
      </trkpt>
      <trkpt lat="41.614723236" lon="2.498246746">
        <ele>369.28</ele>
        <time>2014-09-07T08:19:32Z</time>
      </trkpt>
      <trkpt lat="41.614715190" lon="2.498071984">
        <ele>370.73</ele>
        <time>2014-09-07T08:19:42Z</time>
      </trkpt>
      <trkpt lat="41.614687026" lon="2.497887833">
        <ele>372.17</ele>
        <time>2014-09-07T08:19:51Z</time>
      </trkpt>
      <trkpt lat="41.614603878" lon="2.497623384">
        <ele>372.17</ele>
        <time>2014-09-07T08:19:58Z</time>
      </trkpt>
      <trkpt lat="41.614555263" lon="2.497515425">
        <ele>369.76</ele>
        <time>2014-09-07T08:20:00Z</time>
      </trkpt>
      <trkpt lat="41.614430624" lon="2.497417357">
        <ele>367.84</ele>
        <time>2014-09-07T08:20:03Z</time>
      </trkpt>
      <trkpt lat="41.614253179" lon="2.497534117">
        <ele>367.84</ele>
        <time>2014-09-07T08:20:07Z</time>
      </trkpt>
      <trkpt lat="41.614192578" lon="2.497614918">
        <ele>369.28</ele>
        <time>2014-09-07T08:20:10Z</time>
      </trkpt>
      <trkpt lat="41.614056623" lon="2.497740396">
        <ele>371.21</ele>
        <time>2014-09-07T08:20:21Z</time>
      </trkpt>
      <trkpt lat="41.613924692" lon="2.497823125">
        <ele>373.13</ele>
        <time>2014-09-07T08:20:31Z</time>
      </trkpt>
      <trkpt lat="41.613822852" lon="2.497833602">
        <ele>374.57</ele>
        <time>2014-09-07T08:20:40Z</time>
      </trkpt>
      <trkpt lat="41.613735345" lon="2.497747101">
        <ele>375.53</ele>
        <time>2014-09-07T08:20:47Z</time>
      </trkpt>
      <trkpt lat="41.613648090" lon="2.497558676">
        <ele>376.49</ele>
        <time>2014-09-07T08:20:57Z</time>
      </trkpt>
      <trkpt lat="41.613568964" lon="2.497424565">
        <ele>377.45</ele>
        <time>2014-09-07T08:21:06Z</time>
      </trkpt>
      <trkpt lat="41.613455222" lon="2.497351810">
        <ele>378.90</ele>
        <time>2014-09-07T08:21:13Z</time>
      </trkpt>
      <trkpt lat="41.613317340" lon="2.497383326">
        <ele>379.86</ele>
        <time>2014-09-07T08:21:22Z</time>
      </trkpt>
      <trkpt lat="41.613189683" lon="2.497429762">
        <ele>380.82</ele>
        <time>2014-09-07T08:21:30Z</time>
      </trkpt>
      <trkpt lat="41.613080635" lon="2.497394893">
        <ele>382.26</ele>
        <time>2014-09-07T08:21:37Z</time>
      </trkpt>
      <trkpt lat="41.612990948" lon="2.497215940">
        <ele>383.22</ele>
        <time>2014-09-07T08:21:48Z</time>
      </trkpt>
      <trkpt lat="41.612954739" lon="2.497097168">
        <ele>384.18</ele>
        <time>2014-09-07T08:21:55Z</time>
      </trkpt>
      <trkpt lat="41.612912913" lon="2.496965656">
        <ele>385.63</ele>
        <time>2014-09-07T08:22:02Z</time>
      </trkpt>
      <trkpt lat="41.612873099" lon="2.496818554">
        <ele>387.07</ele>
        <time>2014-09-07T08:22:10Z</time>
      </trkpt>
      <trkpt lat="41.612839068" lon="2.496672792">
        <ele>388.03</ele>
        <time>2014-09-07T08:22:17Z</time>
      </trkpt>
      <trkpt lat="41.612773438" lon="2.496473303">
        <ele>389.95</ele>
        <time>2014-09-07T08:22:28Z</time>
      </trkpt>
      <trkpt lat="41.612709400" lon="2.496356795">
        <ele>390.91</ele>
        <time>2014-09-07T08:22:36Z</time>
      </trkpt>
      <trkpt lat="41.612650978" lon="2.496180020">
        <ele>392.36</ele>
        <time>2014-09-07T08:22:47Z</time>
      </trkpt>
      <trkpt lat="41.612623234" lon="2.496046916">
        <ele>393.32</ele>
        <time>2014-09-07T08:22:54Z</time>
      </trkpt>
      <trkpt lat="41.612618959" lon="2.495934263">
        <ele>394.76</ele>
        <time>2014-09-07T08:23:03Z</time>
      </trkpt>
      <trkpt lat="41.612586941" lon="2.495821946">
        <ele>395.72</ele>
        <time>2014-09-07T08:23:11Z</time>
      </trkpt>
      <trkpt lat="41.612581492" lon="2.495783892">
        <ele>395.72</ele>
        <time>2014-09-07T08:23:20Z</time>
      </trkpt>
      <trkpt lat="41.612569087" lon="2.495748855">
        <ele>395.72</ele>
        <time>2014-09-07T08:23:29Z</time>
      </trkpt>
      <trkpt lat="41.612554754" lon="2.495736366">
        <ele>396.20</ele>
        <time>2014-09-07T08:23:36Z</time>
      </trkpt>
      <trkpt lat="41.612542600" lon="2.495746844">
        <ele>396.68</ele>
        <time>2014-09-07T08:23:58Z</time>
      </trkpt>
      <trkpt lat="41.612538745" lon="2.495743491">
        <ele>396.68</ele>
        <time>2014-09-07T08:24:18Z</time>
      </trkpt>
      <trkpt lat="41.612534889" lon="2.495748771">
        <ele>397.16</ele>
        <time>2014-09-07T08:24:42Z</time>
      </trkpt>
      <trkpt lat="41.612554251" lon="2.495757992">
        <ele>397.64</ele>
        <time>2014-09-07T08:25:12Z</time>
      </trkpt>
      <trkpt lat="41.612557688" lon="2.495755226">
        <ele>398.12</ele>
        <time>2014-09-07T08:25:27Z</time>
      </trkpt>
      <trkpt lat="41.612547462" lon="2.495737707">
        <ele>398.12</ele>
        <time>2014-09-07T08:25:41Z</time>
      </trkpt>
      <trkpt lat="41.612540840" lon="2.495738546">
        <ele>398.60</ele>
        <time>2014-09-07T08:26:00Z</time>
      </trkpt>
      <trkpt lat="41.612531704" lon="2.495731672">
        <ele>399.08</ele>
        <time>2014-09-07T08:26:23Z</time>
      </trkpt>
      <trkpt lat="41.612510246" lon="2.495711640">
        <ele>399.08</ele>
        <time>2014-09-07T08:26:46Z</time>
      </trkpt>
      <trkpt lat="41.612498679" lon="2.495675011">
        <ele>399.57</ele>
        <time>2014-09-07T08:27:12Z</time>
      </trkpt>
      <trkpt lat="41.612479820" lon="2.495670065">
        <ele>400.05</ele>
        <time>2014-09-07T08:27:29Z</time>
      </trkpt>
      <trkpt lat="41.612487447" lon="2.495672831">
        <ele>400.53</ele>
        <time>2014-09-07T08:27:52Z</time>
      </trkpt>
      <trkpt lat="41.612483173" lon="2.495675597">
        <ele>400.53</ele>
        <time>2014-09-07T08:28:06Z</time>
      </trkpt>
      <trkpt lat="41.612524328" lon="2.495704766">
        <ele>401.01</ele>
        <time>2014-09-07T08:28:14Z</time>
      </trkpt>
      <trkpt lat="41.612591132" lon="2.495765954">
        <ele>401.01</ele>
        <time>2014-09-07T08:28:21Z</time>
      </trkpt>
      <trkpt lat="41.612719123" lon="2.495787915">
        <ele>401.01</ele>
        <time>2014-09-07T08:28:28Z</time>
      </trkpt>
      <trkpt lat="41.612869327" lon="2.495811720">
        <ele>401.97</ele>
        <time>2014-09-07T08:28:37Z</time>
      </trkpt>
      <trkpt lat="41.612998408" lon="2.495835105">
        <ele>403.41</ele>
        <time>2014-09-07T08:28:46Z</time>
      </trkpt>
      <trkpt lat="41.613092705" lon="2.495865615">
        <ele>403.89</ele>
        <time>2014-09-07T08:28:51Z</time>
      </trkpt>
      <trkpt lat="41.613218433" lon="2.495918505">
        <ele>405.33</ele>
        <time>2014-09-07T08:29:00Z</time>
      </trkpt>
      <trkpt lat="41.613300157" lon="2.495936358">
        <ele>405.81</ele>
        <time>2014-09-07T08:29:05Z</time>
      </trkpt>
      <trkpt lat="41.613454803" lon="2.495912051">
        <ele>406.77</ele>
        <time>2014-09-07T08:29:14Z</time>
      </trkpt>
      <trkpt lat="41.613587321" lon="2.495865531">
        <ele>407.26</ele>
        <time>2014-09-07T08:29:22Z</time>
      </trkpt>
      <trkpt lat="41.613726963" lon="2.495815743">
        <ele>408.70</ele>
        <time>2014-09-07T08:29:31Z</time>
      </trkpt>
      <trkpt lat="41.613818997" lon="2.495781126">
        <ele>409.18</ele>
        <time>2014-09-07T08:29:38Z</time>
      </trkpt>
      <trkpt lat="41.613984707" lon="2.495734522">
        <ele>409.66</ele>
        <time>2014-09-07T08:29:47Z</time>
      </trkpt>
      <trkpt lat="41.614120242" lon="2.495699654">
        <ele>410.62</ele>
        <time>2014-09-07T08:29:54Z</time>
      </trkpt>
      <trkpt lat="41.614288970" lon="2.495648189">
        <ele>412.06</ele>
        <time>2014-09-07T08:30:06Z</time>
      </trkpt>
      <trkpt lat="41.614433642" lon="2.495638466">
        <ele>413.02</ele>
        <time>2014-09-07T08:30:16Z</time>
      </trkpt>
      <trkpt lat="41.614548306" lon="2.495633101">
        <ele>414.95</ele>
        <time>2014-09-07T08:30:25Z</time>
      </trkpt>
      <trkpt lat="41.614641764" lon="2.495592281">
        <ele>415.91</ele>
        <time>2014-09-07T08:30:32Z</time>
      </trkpt>
      <trkpt lat="41.614735222" lon="2.495539140">
        <ele>417.35</ele>
        <time>2014-09-07T08:30:41Z</time>
      </trkpt>
      <trkpt lat="41.614849216" lon="2.495481473">
        <ele>418.79</ele>
        <time>2014-09-07T08:30:48Z</time>
      </trkpt>
      <trkpt lat="41.614884085" lon="2.495459512">
        <ele>419.75</ele>
        <time>2014-09-07T08:30:51Z</time>
      </trkpt>
      <trkpt lat="41.614973604" lon="2.495416597">
        <ele>420.71</ele>
        <time>2014-09-07T08:30:58Z</time>
      </trkpt>
      <trkpt lat="41.615087849" lon="2.495439731">
        <ele>422.16</ele>
        <time>2014-09-07T08:31:07Z</time>
      </trkpt>
      <trkpt lat="41.615160855" lon="2.495537128">
        <ele>423.60</ele>
        <time>2014-09-07T08:31:14Z</time>
      </trkpt>
      <trkpt lat="41.615235957" lon="2.495655062">
        <ele>426.00</ele>
        <time>2014-09-07T08:31:24Z</time>
      </trkpt>
      <trkpt lat="41.615325141" lon="2.495780455">
        <ele>427.44</ele>
        <time>2014-09-07T08:31:33Z</time>
      </trkpt>
      <trkpt lat="41.615403009" lon="2.495904088">
        <ele>428.40</ele>
        <time>2014-09-07T08:31:42Z</time>
      </trkpt>
      <trkpt lat="41.615450450" lon="2.496061752">
        <ele>430.81</ele>
        <time>2014-09-07T08:31:50Z</time>
      </trkpt>
      <trkpt lat="41.615500322" lon="2.496221343">
        <ele>431.77</ele>
        <time>2014-09-07T08:32:01Z</time>
      </trkpt>
      <trkpt lat="41.615532006" lon="2.496312957">
        <ele>432.73</ele>
        <time>2014-09-07T08:32:06Z</time>
      </trkpt>
      <trkpt lat="41.615568132" lon="2.496385628">
        <ele>433.21</ele>
        <time>2014-09-07T08:32:10Z</time>
      </trkpt>
      <trkpt lat="41.615653879" lon="2.496533988">
        <ele>435.13</ele>
        <time>2014-09-07T08:32:18Z</time>
      </trkpt>
      <trkpt lat="41.615675588" lon="2.496591823">
        <ele>436.58</ele>
        <time>2014-09-07T08:32:22Z</time>
      </trkpt>
      <trkpt lat="41.615775081" lon="2.496749152">
        <ele>438.02</ele>
        <time>2014-09-07T08:32:32Z</time>
      </trkpt>
      <trkpt lat="41.615856470" lon="2.496802125">
        <ele>438.50</ele>
        <time>2014-09-07T08:32:37Z</time>
      </trkpt>
      <trkpt lat="41.615990915" lon="2.496780584">
        <ele>439.94</ele>
        <time>2014-09-07T08:32:48Z</time>
      </trkpt>
      <trkpt lat="41.616094180" lon="2.496701291">
        <ele>441.86</ele>
        <time>2014-09-07T08:32:57Z</time>
      </trkpt>
      <trkpt lat="41.616207168" lon="2.496567767">
        <ele>444.27</ele>
        <time>2014-09-07T08:33:07Z</time>
      </trkpt>
      <trkpt lat="41.616273469" lon="2.496375319">
        <ele>445.23</ele>
        <time>2014-09-07T08:33:16Z</time>
      </trkpt>
      <trkpt lat="41.616291155" lon="2.496320920">
        <ele>445.71</ele>
        <time>2014-09-07T08:33:19Z</time>
      </trkpt>
      <trkpt lat="41.616306662" lon="2.496182786">
        <ele>446.19</ele>
        <time>2014-09-07T08:33:26Z</time>
      </trkpt>
      <trkpt lat="41.616316133" lon="2.495966114">
        <ele>448.59</ele>
        <time>2014-09-07T08:33:37Z</time>
      </trkpt>
      <trkpt lat="41.616319570" lon="2.495822029">
        <ele>450.03</ele>
        <time>2014-09-07T08:33:45Z</time>
      </trkpt>
      <trkpt lat="41.616339183" lon="2.495640645">
        <ele>452.44</ele>
        <time>2014-09-07T08:33:56Z</time>
      </trkpt>
      <trkpt lat="41.616396348" lon="2.495471079">
        <ele>453.88</ele>
        <time>2014-09-07T08:34:05Z</time>
      </trkpt>
      <trkpt lat="41.616540098" lon="2.495432103">
        <ele>454.36</ele>
        <time>2014-09-07T08:34:13Z</time>
      </trkpt>
      <trkpt lat="41.616735480" lon="2.495497650">
        <ele>454.84</ele>
        <time>2014-09-07T08:34:22Z</time>
      </trkpt>
      <trkpt lat="41.616979896" lon="2.495594712">
        <ele>455.32</ele>
        <time>2014-09-07T08:34:34Z</time>
      </trkpt>
      <trkpt lat="41.617165723" lon="2.495658750">
        <ele>455.80</ele>
        <time>2014-09-07T08:34:43Z</time>
      </trkpt>
      <trkpt lat="41.617329505" lon="2.495668473">
        <ele>457.72</ele>
        <time>2014-09-07T08:34:53Z</time>
      </trkpt>
      <trkpt lat="41.617480966" lon="2.495656068">
        <ele>457.72</ele>
        <time>2014-09-07T08:35:00Z</time>
      </trkpt>
      <trkpt lat="41.617613065" lon="2.495654475">
        <ele>459.17</ele>
        <time>2014-09-07T08:35:09Z</time>
      </trkpt>
      <trkpt lat="41.617753630" lon="2.495664952">
        <ele>460.13</ele>
        <time>2014-09-07T08:35:18Z</time>
      </trkpt>
      <trkpt lat="41.617909617" lon="2.495712645">
        <ele>461.57</ele>
        <time>2014-09-07T08:35:28Z</time>
      </trkpt>
      <trkpt lat="41.618037692" lon="2.495757489">
        <ele>463.01</ele>
        <time>2014-09-07T08:35:35Z</time>
      </trkpt>
      <trkpt lat="41.618174736" lon="2.495772408">
        <ele>464.45</ele>
        <time>2014-09-07T08:35:44Z</time>
      </trkpt>
      <trkpt lat="41.618299878" lon="2.495760255">
        <ele>465.42</ele>
        <time>2014-09-07T08:35:51Z</time>
      </trkpt>
      <trkpt lat="41.618450920" lon="2.495678196">
        <ele>467.34</ele>
        <time>2014-09-07T08:36:00Z</time>
      </trkpt>
      <trkpt lat="41.618593580" lon="2.495544085">
        <ele>468.78</ele>
        <time>2014-09-07T08:36:08Z</time>
      </trkpt>
      <trkpt lat="41.618657115" lon="2.495477114">
        <ele>469.74</ele>
        <time>2014-09-07T08:36:12Z</time>
      </trkpt>
      <trkpt lat="41.618759290" lon="2.495348619">
        <ele>470.22</ele>
        <time>2014-09-07T08:36:19Z</time>
      </trkpt>
      <trkpt lat="41.618849647" lon="2.495223897">
        <ele>470.70</ele>
        <time>2014-09-07T08:36:26Z</time>
      </trkpt>
      <trkpt lat="41.618931538" lon="2.495142592">
        <ele>471.18</ele>
        <time>2014-09-07T08:36:31Z</time>
      </trkpt>
      <trkpt lat="41.619083167" lon="2.495069334">
        <ele>471.66</ele>
        <time>2014-09-07T08:36:40Z</time>
      </trkpt>
      <trkpt lat="41.619281231" lon="2.495112334">
        <ele>471.66</ele>
        <time>2014-09-07T08:36:48Z</time>
      </trkpt>
      <trkpt lat="41.619464544" lon="2.495185675">
        <ele>472.63</ele>
        <time>2014-09-07T08:36:57Z</time>
      </trkpt>
      <trkpt lat="41.619539981" lon="2.495230518">
        <ele>473.11</ele>
        <time>2014-09-07T08:37:02Z</time>
      </trkpt>
      <trkpt lat="41.619607455" lon="2.495275194">
        <ele>473.11</ele>
        <time>2014-09-07T08:37:06Z</time>
      </trkpt>
      <trkpt lat="41.619766963" lon="2.495382315">
        <ele>474.55</ele>
        <time>2014-09-07T08:37:14Z</time>
      </trkpt>
      <trkpt lat="41.619833096" lon="2.495364629">
        <ele>474.55</ele>
        <time>2014-09-07T08:37:18Z</time>
      </trkpt>
      <trkpt lat="41.619911048" lon="2.495272847">
        <ele>475.99</ele>
        <time>2014-09-07T08:37:25Z</time>
      </trkpt>
      <trkpt lat="41.619962512" lon="2.495208977">
        <ele>476.47</ele>
        <time>2014-09-07T08:37:28Z</time>
      </trkpt>
      <trkpt lat="41.620089666" lon="2.495100934">
        <ele>477.43</ele>
        <time>2014-09-07T08:37:37Z</time>
      </trkpt>
      <trkpt lat="41.620212461" lon="2.494954251">
        <ele>478.87</ele>
        <time>2014-09-07T08:37:46Z</time>
      </trkpt>
      <trkpt lat="41.620339614" lon="2.494806226">
        <ele>480.80</ele>
        <time>2014-09-07T08:37:56Z</time>
      </trkpt>
      <trkpt lat="41.620474982" lon="2.494840844">
        <ele>482.24</ele>
        <time>2014-09-07T08:38:03Z</time>
      </trkpt>
      <trkpt lat="41.620627449" lon="2.494982749">
        <ele>483.68</ele>
        <time>2014-09-07T08:38:14Z</time>
      </trkpt>
      <trkpt lat="41.620753345" lon="2.495094899">
        <ele>485.12</ele>
        <time>2014-09-07T08:38:22Z</time>
      </trkpt>
      <trkpt lat="41.620878654" lon="2.495196739">
        <ele>486.56</ele>
        <time>2014-09-07T08:38:29Z</time>
      </trkpt>
      <trkpt lat="41.621020979" lon="2.495288521">
        <ele>487.53</ele>
        <time>2014-09-07T08:38:38Z</time>
      </trkpt>
      <trkpt lat="41.621068672" lon="2.495291120">
        <ele>487.53</ele>
        <time>2014-09-07T08:38:40Z</time>
      </trkpt>
      <trkpt lat="41.621180152" lon="2.495162876">
        <ele>488.97</ele>
        <time>2014-09-07T08:38:50Z</time>
      </trkpt>
      <trkpt lat="41.621184342" lon="2.495139239">
        <ele>488.97</ele>
        <time>2014-09-07T08:38:50Z</time>
      </trkpt>
      <trkpt lat="41.621250392" lon="2.494916532">
        <ele>489.93</ele>
        <time>2014-09-07T08:38:59Z</time>
      </trkpt>
      <trkpt lat="41.621396908" lon="2.494746966">
        <ele>489.93</ele>
        <time>2014-09-07T08:39:09Z</time>
      </trkpt>
      <trkpt lat="41.621421467" lon="2.494703213">
        <ele>489.93</ele>
        <time>2014-09-07T08:39:11Z</time>
      </trkpt>
      <trkpt lat="41.621415432" lon="2.494562648">
        <ele>489.93</ele>
        <time>2014-09-07T08:39:16Z</time>
      </trkpt>
      <trkpt lat="41.621387352" lon="2.494256541">
        <ele>490.41</ele>
        <time>2014-09-07T08:39:25Z</time>
      </trkpt>
      <trkpt lat="41.621421215" lon="2.494057303">
        <ele>490.89</ele>
        <time>2014-09-07T08:39:32Z</time>
      </trkpt>
      <trkpt lat="41.621553146" lon="2.493915314">
        <ele>490.89</ele>
        <time>2014-09-07T08:39:37Z</time>
      </trkpt>
      <trkpt lat="41.621728663" lon="2.493728314">
        <ele>489.45</ele>
        <time>2014-09-07T08:39:44Z</time>
      </trkpt>
      <trkpt lat="41.621935277" lon="2.493609039">
        <ele>488.97</ele>
        <time>2014-09-07T08:39:51Z</time>
      </trkpt>
      <trkpt lat="41.622066119" lon="2.493725296">
        <ele>488.49</ele>
        <time>2014-09-07T08:39:55Z</time>
      </trkpt>
      <trkpt lat="41.622231997" lon="2.493955966">
        <ele>488.49</ele>
        <time>2014-09-07T08:40:02Z</time>
      </trkpt>
      <trkpt lat="41.622422685" lon="2.493985638">
        <ele>488.49</ele>
        <time>2014-09-07T08:40:07Z</time>
      </trkpt>
      <trkpt lat="41.622595520" lon="2.493991841">
        <ele>488.01</ele>
        <time>2014-09-07T08:40:14Z</time>
      </trkpt>
      <trkpt lat="41.622782101" lon="2.494129891">
        <ele>487.53</ele>
        <time>2014-09-07T08:40:19Z</time>
      </trkpt>
      <trkpt lat="41.623015453" lon="2.494446056">
        <ele>487.53</ele>
        <time>2014-09-07T08:40:28Z</time>
      </trkpt>
      <trkpt lat="41.623129615" lon="2.494793486">
        <ele>488.49</ele>
        <time>2014-09-07T08:40:38Z</time>
      </trkpt>
      <trkpt lat="41.623178816" lon="2.495107724">
        <ele>488.49</ele>
        <time>2014-09-07T08:40:45Z</time>
      </trkpt>
      <trkpt lat="41.623145540" lon="2.495343674">
        <ele>488.97</ele>
        <time>2014-09-07T08:40:52Z</time>
      </trkpt>
      <trkpt lat="41.623067421" lon="2.495551797">
        <ele>489.45</ele>
        <time>2014-09-07T08:40:59Z</time>
      </trkpt>
      <trkpt lat="41.623067253" lon="2.495618936">
        <ele>489.93</ele>
        <time>2014-09-07T08:41:01Z</time>
      </trkpt>
      <trkpt lat="41.623166244" lon="2.495772408">
        <ele>490.41</ele>
        <time>2014-09-07T08:41:06Z</time>
      </trkpt>
      <trkpt lat="41.623304042" lon="2.495987656">
        <ele>491.37</ele>
        <time>2014-09-07T08:41:13Z</time>
      </trkpt>
      <trkpt lat="41.623415605" lon="2.496226540">
        <ele>492.33</ele>
        <time>2014-09-07T08:41:22Z</time>
      </trkpt>
      <trkpt lat="41.623555415" lon="2.496377750">
        <ele>492.33</ele>
        <time>2014-09-07T08:41:29Z</time>
      </trkpt>
      <trkpt lat="41.623731854" lon="2.496417480">
        <ele>492.81</ele>
        <time>2014-09-07T08:41:36Z</time>
      </trkpt>
      <trkpt lat="41.623873508" lon="2.496375067">
        <ele>492.81</ele>
        <time>2014-09-07T08:41:41Z</time>
      </trkpt>
      <trkpt lat="41.623963530" lon="2.496318154">
        <ele>491.37</ele>
        <time>2014-09-07T08:41:43Z</time>
      </trkpt>
      <trkpt lat="41.624032848" lon="2.496244477">
        <ele>490.41</ele>
        <time>2014-09-07T08:41:46Z</time>
      </trkpt>
      <trkpt lat="41.624124295" lon="2.496109780">
        <ele>490.41</ele>
        <time>2014-09-07T08:41:48Z</time>
      </trkpt>
      <trkpt lat="41.624177772" lon="2.496005174">
        <ele>490.41</ele>
        <time>2014-09-07T08:41:51Z</time>
      </trkpt>
      <trkpt lat="41.624259747" lon="2.495607369">
        <ele>488.97</ele>
        <time>2014-09-07T08:41:58Z</time>
      </trkpt>
      <trkpt lat="41.624262680" lon="2.495330766">
        <ele>488.01</ele>
        <time>2014-09-07T08:42:02Z</time>
      </trkpt>
      <trkpt lat="41.624242228" lon="2.495149801">
        <ele>488.01</ele>
        <time>2014-09-07T08:42:05Z</time>
      </trkpt>
      <trkpt lat="41.624214736" lon="2.494963974">
        <ele>487.53</ele>
        <time>2014-09-07T08:42:09Z</time>
      </trkpt>
      <trkpt lat="41.624240636" lon="2.494716792">
        <ele>487.05</ele>
        <time>2014-09-07T08:42:12Z</time>
      </trkpt>
      <trkpt lat="41.624280534" lon="2.494591314">
        <ele>487.05</ele>
        <time>2014-09-07T08:42:14Z</time>
      </trkpt>
      <trkpt lat="41.624273241" lon="2.494295685">
        <ele>486.56</ele>
        <time>2014-09-07T08:42:19Z</time>
      </trkpt>
      <trkpt lat="41.624186070" lon="2.493949847">
        <ele>486.56</ele>
        <time>2014-09-07T08:42:28Z</time>
      </trkpt>
      <trkpt lat="41.624121278" lon="2.493534692">
        <ele>486.08</ele>
        <time>2014-09-07T08:42:37Z</time>
      </trkpt>
      <trkpt lat="41.624099568" lon="2.493179215">
        <ele>486.08</ele>
        <time>2014-09-07T08:42:47Z</time>
      </trkpt>
      <trkpt lat="41.624059335" lon="2.492889201">
        <ele>486.56</ele>
        <time>2014-09-07T08:42:54Z</time>
      </trkpt>
      <trkpt lat="41.624121026" lon="2.492611425">
        <ele>486.08</ele>
        <time>2014-09-07T08:42:59Z</time>
      </trkpt>
      <trkpt lat="41.624226303" lon="2.492347982">
        <ele>486.08</ele>
        <time>2014-09-07T08:43:06Z</time>
      </trkpt>
      <trkpt lat="41.624293190" lon="2.492055453">
        <ele>486.08</ele>
        <time>2014-09-07T08:43:15Z</time>
      </trkpt>
      <trkpt lat="41.624334681" lon="2.491786478">
        <ele>487.53</ele>
        <time>2014-09-07T08:43:22Z</time>
      </trkpt>
      <trkpt lat="41.624341135" lon="2.491456147">
        <ele>487.53</ele>
        <time>2014-09-07T08:43:31Z</time>
      </trkpt>
      <trkpt lat="41.624363682" lon="2.491163200">
        <ele>488.49</ele>
        <time>2014-09-07T08:43:39Z</time>
      </trkpt>
      <trkpt lat="41.624408944" lon="2.490945522">
        <ele>489.93</ele>
        <time>2014-09-07T08:43:46Z</time>
      </trkpt>
      <trkpt lat="41.624479855" lon="2.490712337">
        <ele>490.89</ele>
        <time>2014-09-07T08:43:53Z</time>
      </trkpt>
      <trkpt lat="41.624597705" lon="2.490488373">
        <ele>490.89</ele>
        <time>2014-09-07T08:44:00Z</time>
      </trkpt>
      <trkpt lat="41.624722260" lon="2.490277317">
        <ele>490.89</ele>
        <time>2014-09-07T08:44:07Z</time>
      </trkpt>
      <trkpt lat="41.624903644" lon="2.490043797">
        <ele>490.89</ele>
        <time>2014-09-07T08:44:14Z</time>
      </trkpt>
      <trkpt lat="41.624985368" lon="2.489835506">
        <ele>490.89</ele>
        <time>2014-09-07T08:44:23Z</time>
      </trkpt>
      <trkpt lat="41.625000791" lon="2.489784461">
        <ele>490.89</ele>
        <time>2014-09-07T08:44:25Z</time>
      </trkpt>
      <trkpt lat="41.625019566" lon="2.489656385">
        <ele>489.93</ele>
        <time>2014-09-07T08:44:30Z</time>
      </trkpt>
      <trkpt lat="41.625067259" lon="2.489438875">
        <ele>489.93</ele>
        <time>2014-09-07T08:44:39Z</time>
      </trkpt>
      <trkpt lat="41.625106067" lon="2.489235027">
        <ele>489.93</ele>
        <time>2014-09-07T08:44:46Z</time>
      </trkpt>
      <trkpt lat="41.625116042" lon="2.489061773">
        <ele>491.37</ele>
        <time>2014-09-07T08:44:51Z</time>
      </trkpt>
      <trkpt lat="41.625135236" lon="2.488918275">
        <ele>491.37</ele>
        <time>2014-09-07T08:44:54Z</time>
      </trkpt>
      <trkpt lat="41.625186617" lon="2.488656592">
        <ele>491.85</ele>
        <time>2014-09-07T08:45:03Z</time>
      </trkpt>
      <trkpt lat="41.625187875" lon="2.488519296">
        <ele>491.85</ele>
        <time>2014-09-07T08:45:08Z</time>
      </trkpt>
      <trkpt lat="41.625152755" lon="2.488310838">
        <ele>492.81</ele>
        <time>2014-09-07T08:45:15Z</time>
      </trkpt>
      <trkpt lat="41.625147893" lon="2.488262307">
        <ele>492.81</ele>
        <time>2014-09-07T08:45:17Z</time>
      </trkpt>
      <trkpt lat="41.625098440" lon="2.488211429">
        <ele>494.26</ele>
        <time>2014-09-07T08:45:20Z</time>
      </trkpt>
      <trkpt lat="41.624902555" lon="2.488276892">
        <ele>494.26</ele>
        <time>2014-09-07T08:45:29Z</time>
      </trkpt>
      <trkpt lat="41.624778000" lon="2.488296254">
        <ele>494.26</ele>
        <time>2014-09-07T08:45:34Z</time>
      </trkpt>
      <trkpt lat="41.624620923" lon="2.488272617">
        <ele>494.26</ele>
        <time>2014-09-07T08:45:41Z</time>
      </trkpt>
      <trkpt lat="41.624445406" lon="2.488224672">
        <ele>496.18</ele>
        <time>2014-09-07T08:45:48Z</time>
      </trkpt>
      <trkpt lat="41.624320180" lon="2.488218721">
        <ele>496.66</ele>
        <time>2014-09-07T08:45:55Z</time>
      </trkpt>
      <trkpt lat="41.624208617" lon="2.488215704">
        <ele>497.62</ele>
        <time>2014-09-07T08:46:02Z</time>
      </trkpt>
      <trkpt lat="41.624144998" lon="2.488201454">
        <ele>498.10</ele>
        <time>2014-09-07T08:46:06Z</time>
      </trkpt>
      <trkpt lat="41.624014324" lon="2.488190558">
        <ele>500.02</ele>
        <time>2014-09-07T08:46:13Z</time>
      </trkpt>
      <trkpt lat="41.623895469" lon="2.488172872">
        <ele>500.50</ele>
        <time>2014-09-07T08:46:20Z</time>
      </trkpt>
      <trkpt lat="41.623751049" lon="2.488187373">
        <ele>501.95</ele>
        <time>2014-09-07T08:46:28Z</time>
      </trkpt>
      <trkpt lat="41.623630936" lon="2.488262558">
        <ele>504.35</ele>
        <time>2014-09-07T08:46:35Z</time>
      </trkpt>
      <trkpt lat="41.623605120" lon="2.488286698">
        <ele>504.83</ele>
        <time>2014-09-07T08:46:37Z</time>
      </trkpt>
      <trkpt lat="41.623453324" lon="2.488379235">
        <ele>506.75</ele>
        <time>2014-09-07T08:46:46Z</time>
      </trkpt>
      <trkpt lat="41.623307814" lon="2.488488451">
        <ele>508.67</ele>
        <time>2014-09-07T08:46:54Z</time>
      </trkpt>
      <trkpt lat="41.623288619" lon="2.488503287">
        <ele>508.67</ele>
        <time>2014-09-07T08:46:56Z</time>
      </trkpt>
      <trkpt lat="41.623185773" lon="2.488550393">
        <ele>509.64</ele>
        <time>2014-09-07T08:47:03Z</time>
      </trkpt>
      <trkpt lat="41.623051495" lon="2.488519464">
        <ele>507.23</ele>
        <time>2014-09-07T08:47:08Z</time>
      </trkpt>
      <trkpt lat="41.622871201" lon="2.488478309">
        <ele>503.39</ele>
        <time>2014-09-07T08:47:15Z</time>
      </trkpt>
      <trkpt lat="41.622777407" lon="2.488435896">
        <ele>501.95</ele>
        <time>2014-09-07T08:47:19Z</time>
      </trkpt>
      <trkpt lat="41.622629886" lon="2.488249986">
        <ele>498.58</ele>
        <time>2014-09-07T08:47:26Z</time>
      </trkpt>
      <trkpt lat="41.622503989" lon="2.488124006">
        <ele>496.66</ele>
        <time>2014-09-07T08:47:33Z</time>
      </trkpt>
      <trkpt lat="41.622332663" lon="2.487999283">
        <ele>494.74</ele>
        <time>2014-09-07T08:47:38Z</time>
      </trkpt>
      <trkpt lat="41.622322437" lon="2.487872884">
        <ele>494.26</ele>
        <time>2014-09-07T08:47:43Z</time>
      </trkpt>
      <trkpt lat="41.622423858" lon="2.487805242">
        <ele>493.77</ele>
        <time>2014-09-07T08:47:50Z</time>
      </trkpt>
      <trkpt lat="41.622550090" lon="2.487646237">
        <ele>494.26</ele>
        <time>2014-09-07T08:47:57Z</time>
      </trkpt>
      <trkpt lat="41.622596693" lon="2.487547415">
        <ele>495.70</ele>
        <time>2014-09-07T08:48:01Z</time>
      </trkpt>
      <trkpt lat="41.622682524" lon="2.487390421">
        <ele>497.14</ele>
        <time>2014-09-07T08:48:09Z</time>
      </trkpt>
      <trkpt lat="41.622757039" lon="2.487202918">
        <ele>498.58</ele>
        <time>2014-09-07T08:48:16Z</time>
      </trkpt>
      <trkpt lat="41.622806744" lon="2.487030419">
        <ele>500.02</ele>
        <time>2014-09-07T08:48:25Z</time>
      </trkpt>
      <trkpt lat="41.622836164" lon="2.486903684">
        <ele>502.43</ele>
        <time>2014-09-07T08:48:32Z</time>
      </trkpt>
      <trkpt lat="41.622855443" lon="2.486854566">
        <ele>502.43</ele>
        <time>2014-09-07T08:48:39Z</time>
      </trkpt>
      <trkpt lat="41.622915960" lon="2.486773597">
        <ele>502.43</ele>
        <time>2014-09-07T08:48:51Z</time>
      </trkpt>
      <trkpt lat="41.623006065" lon="2.486741327">
        <ele>500.98</ele>
        <time>2014-09-07T08:48:53Z</time>
      </trkpt>
      <trkpt lat="41.623149564" lon="2.486687180">
        <ele>499.54</ele>
        <time>2014-09-07T08:48:58Z</time>
      </trkpt>
      <trkpt lat="41.623420215" lon="2.486532617">
        <ele>497.62</ele>
        <time>2014-09-07T08:49:05Z</time>
      </trkpt>
      <trkpt lat="41.623553320" lon="2.486369422">
        <ele>495.22</ele>
        <time>2014-09-07T08:49:09Z</time>
      </trkpt>
      <trkpt lat="41.623627332" lon="2.486298176">
        <ele>494.74</ele>
        <time>2014-09-07T08:49:10Z</time>
      </trkpt>
      <trkpt lat="41.623788851" lon="2.486223493">
        <ele>493.77</ele>
        <time>2014-09-07T08:49:14Z</time>
      </trkpt>
      <trkpt lat="41.624067298" lon="2.486113774">
        <ele>490.41</ele>
        <time>2014-09-07T08:49:21Z</time>
      </trkpt>
      <trkpt lat="41.624169138" lon="2.486077313">
        <ele>489.45</ele>
        <time>2014-09-07T08:49:24Z</time>
      </trkpt>
      <trkpt lat="41.624198391" lon="2.485812780">
        <ele>487.05</ele>
        <time>2014-09-07T08:49:31Z</time>
      </trkpt>
      <trkpt lat="41.624142819" lon="2.485742372">
        <ele>486.56</ele>
        <time>2014-09-07T08:49:33Z</time>
      </trkpt>
      <trkpt lat="41.624037878" lon="2.485603064">
        <ele>484.64</ele>
        <time>2014-09-07T08:49:36Z</time>
      </trkpt>
      <trkpt lat="41.623982473" lon="2.485498123">
        <ele>483.20</ele>
        <time>2014-09-07T08:49:38Z</time>
      </trkpt>
      <trkpt lat="41.623875520" lon="2.485293940">
        <ele>481.76</ele>
        <time>2014-09-07T08:49:42Z</time>
      </trkpt>
      <trkpt lat="41.623823552" lon="2.485207439">
        <ele>480.80</ele>
        <time>2014-09-07T08:49:45Z</time>
      </trkpt>
      <trkpt lat="41.623884237" lon="2.485010212">
        <ele>479.84</ele>
        <time>2014-09-07T08:49:49Z</time>
      </trkpt>
      <trkpt lat="41.623958250" lon="2.484960172">
        <ele>479.84</ele>
        <time>2014-09-07T08:49:52Z</time>
      </trkpt>
      <trkpt lat="41.624046092" lon="2.484773507">
        <ele>478.87</ele>
        <time>2014-09-07T08:49:57Z</time>
      </trkpt>
      <trkpt lat="41.624062688" lon="2.484529762">
        <ele>477.91</ele>
        <time>2014-09-07T08:50:01Z</time>
      </trkpt>
      <trkpt lat="41.623903851" lon="2.484409062">
        <ele>476.47</ele>
        <time>2014-09-07T08:50:06Z</time>
      </trkpt>
      <trkpt lat="41.623854901" lon="2.484396909">
        <ele>476.47</ele>
        <time>2014-09-07T08:50:08Z</time>
      </trkpt>
      <trkpt lat="41.623696567" lon="2.484350640">
        <ele>476.47</ele>
        <time>2014-09-07T08:50:11Z</time>
      </trkpt>
      <trkpt lat="41.623386436" lon="2.484339325">
        <ele>475.51</ele>
        <time>2014-09-07T08:50:20Z</time>
      </trkpt>
      <trkpt lat="41.623191808" lon="2.484281657">
        <ele>475.51</ele>
        <time>2014-09-07T08:50:25Z</time>
      </trkpt>
      <trkpt lat="41.623173452" lon="2.484265145">
        <ele>475.51</ele>
        <time>2014-09-07T08:50:27Z</time>
      </trkpt>
      <trkpt lat="41.623169680" lon="2.484020645">
        <ele>475.51</ele>
        <time>2014-09-07T08:50:34Z</time>
      </trkpt>
      <trkpt lat="41.623249643" lon="2.483733984">
        <ele>476.95</ele>
        <time>2014-09-07T08:50:41Z</time>
      </trkpt>
      <trkpt lat="41.623306221" lon="2.483530304">
        <ele>479.35</ele>
        <time>2014-09-07T08:50:50Z</time>
      </trkpt>
      <trkpt lat="41.623189797" lon="2.483387560">
        <ele>479.35</ele>
        <time>2014-09-07T08:50:57Z</time>
      </trkpt>
      <trkpt lat="41.623034983" lon="2.483400552">
        <ele>479.84</ele>
        <time>2014-09-07T08:51:02Z</time>
      </trkpt>
      <trkpt lat="41.622879331" lon="2.483401809">
        <ele>480.32</ele>
        <time>2014-09-07T08:51:09Z</time>
      </trkpt>
      <trkpt lat="41.622721164" lon="2.483378926">
        <ele>481.76</ele>
        <time>2014-09-07T08:51:16Z</time>
      </trkpt>
      <trkpt lat="41.622525950" lon="2.483304244">
        <ele>482.24</ele>
        <time>2014-09-07T08:51:24Z</time>
      </trkpt>
      <trkpt lat="41.622364850" lon="2.483192848">
        <ele>479.84</ele>
        <time>2014-09-07T08:51:30Z</time>
      </trkpt>
      <trkpt lat="41.622271978" lon="2.483001573">
        <ele>478.39</ele>
        <time>2014-09-07T08:51:35Z</time>
      </trkpt>
      <trkpt lat="41.622183046" lon="2.482713655">
        <ele>477.91</ele>
        <time>2014-09-07T08:51:40Z</time>
      </trkpt>
      <trkpt lat="41.622068466" lon="2.482409308">
        <ele>477.43</ele>
        <time>2014-09-07T08:51:47Z</time>
      </trkpt>
      <trkpt lat="41.622105849" lon="2.482217278">
        <ele>478.87</ele>
        <time>2014-09-07T08:51:52Z</time>
      </trkpt>
      <trkpt lat="41.622058994" lon="2.482030697">
        <ele>479.35</ele>
        <time>2014-09-07T08:51:59Z</time>
      </trkpt>
      <trkpt lat="41.621911137" lon="2.481877811">
        <ele>479.84</ele>
        <time>2014-09-07T08:52:06Z</time>
      </trkpt>
      <trkpt lat="41.621846094" lon="2.481762728">
        <ele>478.39</ele>
        <time>2014-09-07T08:52:08Z</time>
      </trkpt>
      <trkpt lat="41.621711145" lon="2.481548319">
        <ele>477.43</ele>
        <time>2014-09-07T08:52:15Z</time>
      </trkpt>
      <trkpt lat="41.621717432" lon="2.481383614">
        <ele>476.47</ele>
        <time>2014-09-07T08:52:20Z</time>
      </trkpt>
      <trkpt lat="41.621850452" lon="2.481242463">
        <ele>474.55</ele>
        <time>2014-09-07T08:52:25Z</time>
      </trkpt>
      <trkpt lat="41.621896720" lon="2.481171720">
        <ele>474.07</ele>
        <time>2014-09-07T08:52:27Z</time>
      </trkpt>
      <trkpt lat="41.621887919" lon="2.481009949">
        <ele>473.59</ele>
        <time>2014-09-07T08:52:31Z</time>
      </trkpt>
      <trkpt lat="41.621898816" lon="2.480779614">
        <ele>473.11</ele>
        <time>2014-09-07T08:52:38Z</time>
      </trkpt>
      <trkpt lat="41.621919855" lon="2.480704680">
        <ele>473.11</ele>
        <time>2014-09-07T08:52:39Z</time>
      </trkpt>
      <trkpt lat="41.621812399" lon="2.480635949">
        <ele>473.59</ele>
        <time>2014-09-07T08:52:45Z</time>
      </trkpt>
      <trkpt lat="41.621734363" lon="2.480647180">
        <ele>473.59</ele>
        <time>2014-09-07T08:52:48Z</time>
      </trkpt>
      <trkpt lat="41.621579549" lon="2.480577862">
        <ele>475.03</ele>
        <time>2014-09-07T08:52:53Z</time>
      </trkpt>
      <trkpt lat="41.621555577" lon="2.480571240">
        <ele>475.03</ele>
        <time>2014-09-07T08:52:55Z</time>
      </trkpt>
      <trkpt lat="41.621326248" lon="2.480558584">
        <ele>477.43</ele>
        <time>2014-09-07T08:53:05Z</time>
      </trkpt>
      <trkpt lat="41.621249218" lon="2.480536791">
        <ele>478.87</ele>
        <time>2014-09-07T08:53:09Z</time>
      </trkpt>
      <trkpt lat="41.621080826" lon="2.480427742">
        <ele>480.80</ele>
        <time>2014-09-07T08:53:18Z</time>
      </trkpt>
      <trkpt lat="41.620940681" lon="2.480438387">
        <ele>481.28</ele>
        <time>2014-09-07T08:53:25Z</time>
      </trkpt>
      <trkpt lat="41.620791650" lon="2.480359597">
        <ele>481.76</ele>
        <time>2014-09-07T08:53:32Z</time>
      </trkpt>
      <trkpt lat="41.620662988" lon="2.480192211">
        <ele>481.76</ele>
        <time>2014-09-07T08:53:40Z</time>
      </trkpt>
      <trkpt lat="41.620578750" lon="2.479994062">
        <ele>481.76</ele>
        <time>2014-09-07T08:53:49Z</time>
      </trkpt>
      <trkpt lat="41.620451932" lon="2.479804799">
        <ele>481.76</ele>
        <time>2014-09-07T08:53:56Z</time>
      </trkpt>
      <trkpt lat="41.620246408" lon="2.479652668">
        <ele>479.35</ele>
        <time>2014-09-07T08:54:03Z</time>
      </trkpt>
      <trkpt lat="41.620200139" lon="2.479604975">
        <ele>478.39</ele>
        <time>2014-09-07T08:54:05Z</time>
      </trkpt>
      <trkpt lat="41.620206929" lon="2.479473546">
        <ele>476.95</ele>
        <time>2014-09-07T08:54:10Z</time>
      </trkpt>
      <trkpt lat="41.620262501" lon="2.479402971">
        <ele>475.99</ele>
        <time>2014-09-07T08:54:12Z</time>
      </trkpt>
      <trkpt lat="41.620345063" lon="2.479120584">
        <ele>474.55</ele>
        <time>2014-09-07T08:54:17Z</time>
      </trkpt>
      <trkpt lat="41.620295274" lon="2.478957892">
        <ele>474.55</ele>
        <time>2014-09-07T08:54:19Z</time>
      </trkpt>
      <trkpt lat="41.620122020" lon="2.478647258">
        <ele>475.03</ele>
        <time>2014-09-07T08:54:29Z</time>
      </trkpt>
      <trkpt lat="41.620135599" lon="2.478449194">
        <ele>475.03</ele>
        <time>2014-09-07T08:54:34Z</time>
      </trkpt>
      <trkpt lat="41.620154961" lon="2.478400830">
        <ele>475.03</ele>
        <time>2014-09-07T08:54:36Z</time>
      </trkpt>
      <trkpt lat="41.620194272" lon="2.478278455">
        <ele>475.03</ele>
        <time>2014-09-07T08:54:38Z</time>
      </trkpt>
      <trkpt lat="41.620256382" lon="2.477930606">
        <ele>475.03</ele>
        <time>2014-09-07T08:54:45Z</time>
      </trkpt>
      <trkpt lat="41.620333915" lon="2.477647632">
        <ele>475.99</ele>
        <time>2014-09-07T08:54:54Z</time>
      </trkpt>
      <trkpt lat="41.620370544" lon="2.477384273">
        <ele>476.47</ele>
        <time>2014-09-07T08:55:02Z</time>
      </trkpt>
      <trkpt lat="41.620247497" lon="2.477231806">
        <ele>477.43</ele>
        <time>2014-09-07T08:55:09Z</time>
      </trkpt>
      <trkpt lat="41.620029735" lon="2.477046734">
        <ele>478.39</ele>
        <time>2014-09-07T08:55:18Z</time>
      </trkpt>
      <trkpt lat="41.619952287" lon="2.476835342">
        <ele>478.87</ele>
        <time>2014-09-07T08:55:23Z</time>
      </trkpt>
      <trkpt lat="41.619994448" lon="2.476616491">
        <ele>478.87</ele>
        <time>2014-09-07T08:55:28Z</time>
      </trkpt>
      <trkpt lat="41.620041135" lon="2.476454804">
        <ele>478.87</ele>
        <time>2014-09-07T08:55:35Z</time>
      </trkpt>
      <trkpt lat="41.620002327" lon="2.476283142">
        <ele>479.84</ele>
        <time>2014-09-07T08:55:41Z</time>
      </trkpt>
      <trkpt lat="41.619881962" lon="2.476097986">
        <ele>481.28</ele>
        <time>2014-09-07T08:55:49Z</time>
      </trkpt>
      <trkpt lat="41.619696136" lon="2.476000505">
        <ele>483.20</ele>
        <time>2014-09-07T08:55:58Z</time>
      </trkpt>
      <trkpt lat="41.619585327" lon="2.475927163">
        <ele>484.64</ele>
        <time>2014-09-07T08:56:05Z</time>
      </trkpt>
      <trkpt lat="41.619510644" lon="2.475800680">
        <ele>485.60</ele>
        <time>2014-09-07T08:56:12Z</time>
      </trkpt>
      <trkpt lat="41.619582309" lon="2.475768997">
        <ele>486.56</ele>
        <time>2014-09-07T08:56:17Z</time>
      </trkpt>
      <trkpt lat="41.619701500" lon="2.475782575">
        <ele>488.01</ele>
        <time>2014-09-07T08:56:24Z</time>
      </trkpt>
      <trkpt lat="41.619865785" lon="2.475666067">
        <ele>489.45</ele>
        <time>2014-09-07T08:56:33Z</time>
      </trkpt>
      <trkpt lat="41.619934852" lon="2.475475546">
        <ele>490.41</ele>
        <time>2014-09-07T08:56:42Z</time>
      </trkpt>
      <trkpt lat="41.619936109" lon="2.475155022">
        <ele>490.41</ele>
        <time>2014-09-07T08:56:50Z</time>
      </trkpt>
      <trkpt lat="41.619936948" lon="2.474998448">
        <ele>489.45</ele>
        <time>2014-09-07T08:56:54Z</time>
      </trkpt>
      <trkpt lat="41.620011630" lon="2.474853525">
        <ele>488.01</ele>
        <time>2014-09-07T08:56:59Z</time>
      </trkpt>
      <trkpt lat="41.620053540" lon="2.474646660">
        <ele>487.05</ele>
        <time>2014-09-07T08:57:04Z</time>
      </trkpt>
      <trkpt lat="41.620128390" lon="2.474312557">
        <ele>486.56</ele>
        <time>2014-09-07T08:57:11Z</time>
      </trkpt>
      <trkpt lat="41.620283539" lon="2.474122623">
        <ele>486.56</ele>
        <time>2014-09-07T08:57:18Z</time>
      </trkpt>
      <trkpt lat="41.620333663" lon="2.474021202">
        <ele>486.56</ele>
        <time>2014-09-07T08:57:23Z</time>
      </trkpt>
      <trkpt lat="41.620237774" lon="2.473916764">
        <ele>488.01</ele>
        <time>2014-09-07T08:57:29Z</time>
      </trkpt>
      <trkpt lat="41.619996459" lon="2.473870831">
        <ele>486.56</ele>
        <time>2014-09-07T08:57:36Z</time>
      </trkpt>
      <trkpt lat="41.619863271" lon="2.473823641">
        <ele>485.12</ele>
        <time>2014-09-07T08:57:39Z</time>
      </trkpt>
      <trkpt lat="41.619735531" lon="2.473520719">
        <ele>484.64</ele>
        <time>2014-09-07T08:57:46Z</time>
      </trkpt>
      <trkpt lat="41.619596139" lon="2.473394152">
        <ele>484.16</ele>
        <time>2014-09-07T08:57:51Z</time>
      </trkpt>
      <trkpt lat="41.619487342" lon="2.473327013">
        <ele>484.16</ele>
        <time>2014-09-07T08:57:56Z</time>
      </trkpt>
      <trkpt lat="41.619405116" lon="2.473228526">
        <ele>486.56</ele>
        <time>2014-09-07T08:58:03Z</time>
      </trkpt>
      <trkpt lat="41.619290871" lon="2.473010512">
        <ele>487.53</ele>
        <time>2014-09-07T08:58:12Z</time>
      </trkpt>
      <trkpt lat="41.619273436" lon="2.472860476">
        <ele>486.08</ele>
        <time>2014-09-07T08:58:14Z</time>
      </trkpt>
      <trkpt lat="41.619252649" lon="2.472495193">
        <ele>485.60</ele>
        <time>2014-09-07T08:58:21Z</time>
      </trkpt>
      <trkpt lat="41.619181403" lon="2.472259829">
        <ele>485.60</ele>
        <time>2014-09-07T08:58:28Z</time>
      </trkpt>
      <trkpt lat="41.619055842" lon="2.472008707">
        <ele>487.05</ele>
        <time>2014-09-07T08:58:35Z</time>
      </trkpt>
      <trkpt lat="41.619055758" lon="2.471845847">
        <ele>485.60</ele>
        <time>2014-09-07T08:58:40Z</time>
      </trkpt>
      <trkpt lat="41.619264970" lon="2.471561197">
        <ele>483.68</ele>
        <time>2014-09-07T08:58:49Z</time>
      </trkpt>
      <trkpt lat="41.619345353" lon="2.471256934">
        <ele>483.20</ele>
        <time>2014-09-07T08:58:54Z</time>
      </trkpt>
      <trkpt lat="41.619386592" lon="2.470994162">
        <ele>481.76</ele>
        <time>2014-09-07T08:58:59Z</time>
      </trkpt>
      <trkpt lat="41.619432441" lon="2.470646313">
        <ele>481.76</ele>
        <time>2014-09-07T08:59:06Z</time>
      </trkpt>
      <trkpt lat="41.619312412" lon="2.470564673">
        <ele>482.24</ele>
        <time>2014-09-07T08:59:11Z</time>
      </trkpt>
      <trkpt lat="41.619244016" lon="2.470521338">
        <ele>483.20</ele>
        <time>2014-09-07T08:59:13Z</time>
      </trkpt>
      <trkpt lat="41.619167657" lon="2.470384630">
        <ele>485.12</ele>
        <time>2014-09-07T08:59:20Z</time>
      </trkpt>
      <trkpt lat="41.619143181" lon="2.470150188">
        <ele>485.60</ele>
        <time>2014-09-07T08:59:27Z</time>
      </trkpt>
      <trkpt lat="41.619173440" lon="2.469863862">
        <ele>484.64</ele>
        <time>2014-09-07T08:59:34Z</time>
      </trkpt>
      <trkpt lat="41.619145361" lon="2.469525317">
        <ele>482.24</ele>
        <time>2014-09-07T08:59:39Z</time>
      </trkpt>
      <trkpt lat="41.619152904" lon="2.469334042">
        <ele>482.24</ele>
        <time>2014-09-07T08:59:43Z</time>
      </trkpt>
      <trkpt lat="41.619270670" lon="2.468957024">
        <ele>481.28</ele>
        <time>2014-09-07T08:59:50Z</time>
      </trkpt>
      <trkpt lat="41.619269245" lon="2.468746890">
        <ele>480.32</ele>
        <time>2014-09-07T08:59:53Z</time>
      </trkpt>
      <trkpt lat="41.619266731" lon="2.468703136">
        <ele>480.32</ele>
        <time>2014-09-07T08:59:55Z</time>
      </trkpt>
      <trkpt lat="41.619239909" lon="2.468466096">
        <ele>478.87</ele>
        <time>2014-09-07T09:00:02Z</time>
      </trkpt>
      <trkpt lat="41.619206800" lon="2.468247747">
        <ele>477.91</ele>
        <time>2014-09-07T09:00:09Z</time>
      </trkpt>
      <trkpt lat="41.619187270" lon="2.468058819">
        <ele>476.95</ele>
        <time>2014-09-07T09:00:14Z</time>
      </trkpt>
      <trkpt lat="41.619215098" lon="2.467808200">
        <ele>476.47</ele>
        <time>2014-09-07T09:00:21Z</time>
      </trkpt>
      <trkpt lat="41.619186600" lon="2.467552720">
        <ele>476.47</ele>
        <time>2014-09-07T09:00:28Z</time>
      </trkpt>
      <trkpt lat="41.619176709" lon="2.467465548">
        <ele>477.91</ele>
        <time>2014-09-07T09:00:30Z</time>
      </trkpt>
      <trkpt lat="41.619177799" lon="2.467332695">
        <ele>480.80</ele>
        <time>2014-09-07T09:00:37Z</time>
      </trkpt>
      <trkpt lat="41.619176206" lon="2.467314422">
        <ele>481.28</ele>
        <time>2014-09-07T09:00:37Z</time>
      </trkpt>
      <trkpt lat="41.619179727" lon="2.467218366">
        <ele>481.28</ele>
        <time>2014-09-07T09:00:42Z</time>
      </trkpt>
      <trkpt lat="41.619163801" lon="2.467070677">
        <ele>481.76</ele>
        <time>2014-09-07T09:00:51Z</time>
      </trkpt>
      <trkpt lat="41.619151396" lon="2.467002532">
        <ele>481.76</ele>
        <time>2014-09-07T09:00:56Z</time>
      </trkpt>
      <trkpt lat="41.619119293" lon="2.466822572">
        <ele>481.76</ele>
        <time>2014-09-07T09:01:03Z</time>
      </trkpt>
      <trkpt lat="41.619103451" lon="2.466716290">
        <ele>480.32</ele>
        <time>2014-09-07T09:01:06Z</time>
      </trkpt>
      <trkpt lat="41.619030110" lon="2.466449661">
        <ele>479.84</ele>
        <time>2014-09-07T09:01:13Z</time>
      </trkpt>
      <trkpt lat="41.618954756" lon="2.466241371">
        <ele>479.84</ele>
        <time>2014-09-07T09:01:20Z</time>
      </trkpt>
      <trkpt lat="41.618951823" lon="2.466058646">
        <ele>481.28</ele>
        <time>2014-09-07T09:01:27Z</time>
      </trkpt>
      <trkpt lat="41.619020135" lon="2.465874998">
        <ele>481.76</ele>
        <time>2014-09-07T09:01:34Z</time>
      </trkpt>
      <trkpt lat="41.619018543" lon="2.465601580">
        <ele>481.76</ele>
        <time>2014-09-07T09:01:41Z</time>
      </trkpt>
      <trkpt lat="41.618990379" lon="2.465470404">
        <ele>480.32</ele>
        <time>2014-09-07T09:01:43Z</time>
      </trkpt>
      <trkpt lat="41.618914942" lon="2.465220539">
        <ele>480.32</ele>
        <time>2014-09-07T09:01:50Z</time>
      </trkpt>
      <trkpt lat="41.618831794" lon="2.465007555">
        <ele>480.32</ele>
        <time>2014-09-07T09:01:57Z</time>
      </trkpt>
      <trkpt lat="41.618799523" lon="2.464868667">
        <ele>480.32</ele>
        <time>2014-09-07T09:02:02Z</time>
      </trkpt>
      <trkpt lat="41.618737414" lon="2.464662975">
        <ele>480.32</ele>
        <time>2014-09-07T09:02:11Z</time>
      </trkpt>
      <trkpt lat="41.618705814" lon="2.464508748">
        <ele>479.84</ele>
        <time>2014-09-07T09:02:18Z</time>
      </trkpt>
      <trkpt lat="41.618655271" lon="2.464253938">
        <ele>479.35</ele>
        <time>2014-09-07T09:02:25Z</time>
      </trkpt>
      <trkpt lat="41.618632724" lon="2.463903742">
        <ele>478.87</ele>
        <time>2014-09-07T09:02:33Z</time>
      </trkpt>
      <trkpt lat="41.618575810" lon="2.463707103">
        <ele>477.43</ele>
        <time>2014-09-07T09:02:40Z</time>
      </trkpt>
      <trkpt lat="41.618521328" lon="2.463467632">
        <ele>475.99</ele>
        <time>2014-09-07T09:02:46Z</time>
      </trkpt>
      <trkpt lat="41.618566339" lon="2.463187844">
        <ele>474.07</ele>
        <time>2014-09-07T09:02:51Z</time>
      </trkpt>
      <trkpt lat="41.618551251" lon="2.462984666">
        <ele>474.07</ele>
        <time>2014-09-07T09:02:56Z</time>
      </trkpt>
      <trkpt lat="41.618444717" lon="2.462734969">
        <ele>475.51</ele>
        <time>2014-09-07T09:03:05Z</time>
      </trkpt>
      <trkpt lat="41.618385541" lon="2.462499689">
        <ele>475.99</ele>
        <time>2014-09-07T09:03:12Z</time>
      </trkpt>
      <trkpt lat="41.618362826" lon="2.462258291">
        <ele>477.43</ele>
        <time>2014-09-07T09:03:19Z</time>
      </trkpt>
      <trkpt lat="41.618348242" lon="2.462209508">
        <ele>477.43</ele>
        <time>2014-09-07T09:03:22Z</time>
      </trkpt>
      <trkpt lat="41.618281606" lon="2.462122336">
        <ele>478.39</ele>
        <time>2014-09-07T09:03:27Z</time>
      </trkpt>
      <trkpt lat="41.618146741" lon="2.461851768">
        <ele>479.35</ele>
        <time>2014-09-07T09:03:38Z</time>
      </trkpt>
      <trkpt lat="41.618077925" lon="2.461636270">
        <ele>480.32</ele>
        <time>2014-09-07T09:03:45Z</time>
      </trkpt>
      <trkpt lat="41.618016235" lon="2.461512217">
        <ele>480.80</ele>
        <time>2014-09-07T09:03:52Z</time>
      </trkpt>
      <trkpt lat="41.617980695" lon="2.461437535">
        <ele>483.20</ele>
        <time>2014-09-07T09:03:59Z</time>
      </trkpt>
      <trkpt lat="41.617977091" lon="2.461426973">
        <ele>483.68</ele>
        <time>2014-09-07T09:03:59Z</time>
      </trkpt>
      <trkpt lat="41.617962758" lon="2.461324044">
        <ele>485.12</ele>
        <time>2014-09-07T09:04:06Z</time>
      </trkpt>
      <trkpt lat="41.617957310" lon="2.461297305">
        <ele>485.60</ele>
        <time>2014-09-07T09:04:09Z</time>
      </trkpt>
      <trkpt lat="41.617980109" lon="2.461098403">
        <ele>485.60</ele>
        <time>2014-09-07T09:04:16Z</time>
      </trkpt>
      <trkpt lat="41.618027969" lon="2.460937303">
        <ele>485.60</ele>
        <time>2014-09-07T09:04:23Z</time>
      </trkpt>
      <trkpt lat="41.618008188" lon="2.460801851">
        <ele>485.60</ele>
        <time>2014-09-07T09:04:30Z</time>
      </trkpt>
      <trkpt lat="41.618031406" lon="2.460569337">
        <ele>485.60</ele>
        <time>2014-09-07T09:04:37Z</time>
      </trkpt>
      <trkpt lat="41.618095695" lon="2.460354593">
        <ele>486.08</ele>
        <time>2014-09-07T09:04:44Z</time>
      </trkpt>
      <trkpt lat="41.618116734" lon="2.460136747">
        <ele>486.56</ele>
        <time>2014-09-07T09:04:51Z</time>
      </trkpt>
      <trkpt lat="41.618175910" lon="2.459928122">
        <ele>487.53</ele>
        <time>2014-09-07T09:04:58Z</time>
      </trkpt>
      <trkpt lat="41.618230225" lon="2.459720753">
        <ele>488.01</ele>
        <time>2014-09-07T09:05:07Z</time>
      </trkpt>
      <trkpt lat="41.618279259" lon="2.459487569">
        <ele>488.01</ele>
        <time>2014-09-07T09:05:14Z</time>
      </trkpt>
      <trkpt lat="41.618332484" lon="2.459413976">
        <ele>489.45</ele>
        <time>2014-09-07T09:05:17Z</time>
      </trkpt>
      <trkpt lat="41.618332148" lon="2.459296713">
        <ele>489.93</ele>
        <time>2014-09-07T09:05:22Z</time>
      </trkpt>
      <trkpt lat="41.618253610" lon="2.458996808">
        <ele>490.89</ele>
        <time>2014-09-07T09:05:31Z</time>
      </trkpt>
      <trkpt lat="41.618198289" lon="2.458760690">
        <ele>492.81</ele>
        <time>2014-09-07T09:05:40Z</time>
      </trkpt>
      <trkpt lat="41.618160152" lon="2.458572433">
        <ele>495.22</ele>
        <time>2014-09-07T09:05:48Z</time>
      </trkpt>
      <trkpt lat="41.618141628" lon="2.458394988">
        <ele>496.18</ele>
        <time>2014-09-07T09:05:55Z</time>
      </trkpt>
      <trkpt lat="41.618128133" lon="2.458177729">
        <ele>497.14</ele>
        <time>2014-09-07T09:06:04Z</time>
      </trkpt>
      <trkpt lat="41.618128552" lon="2.458013946">
        <ele>498.58</ele>
        <time>2014-09-07T09:06:11Z</time>
      </trkpt>
      <trkpt lat="41.618158643" lon="2.457860390">
        <ele>500.98</ele>
        <time>2014-09-07T09:06:20Z</time>
      </trkpt>
      <trkpt lat="41.618184962" lon="2.457727788">
        <ele>503.39</ele>
        <time>2014-09-07T09:06:29Z</time>
      </trkpt>
      <trkpt lat="41.618225531" lon="2.457619410">
        <ele>504.83</ele>
        <time>2014-09-07T09:06:36Z</time>
      </trkpt>
      <trkpt lat="41.618233996" lon="2.457586805">
        <ele>504.83</ele>
        <time>2014-09-07T09:06:37Z</time>
      </trkpt>
      <trkpt lat="41.618241205" lon="2.457480522">
        <ele>506.27</ele>
        <time>2014-09-07T09:06:44Z</time>
      </trkpt>
      <trkpt lat="41.618220837" lon="2.457353201">
        <ele>507.23</ele>
        <time>2014-09-07T09:06:51Z</time>
      </trkpt>
      <trkpt lat="41.618254784" lon="2.457132673">
        <ele>507.71</ele>
        <time>2014-09-07T09:07:00Z</time>
      </trkpt>
      <trkpt lat="41.618250425" lon="2.456936201">
        <ele>507.71</ele>
        <time>2014-09-07T09:07:05Z</time>
      </trkpt>
      <trkpt lat="41.618210527" lon="2.456746519">
        <ele>507.71</ele>
        <time>2014-09-07T09:07:12Z</time>
      </trkpt>
      <trkpt lat="41.618203235" lon="2.456723720">
        <ele>507.71</ele>
        <time>2014-09-07T09:07:14Z</time>
      </trkpt>
      <trkpt lat="41.618146489" lon="2.456559518">
        <ele>507.71</ele>
        <time>2014-09-07T09:07:21Z</time>
      </trkpt>
      <trkpt lat="41.618097371" lon="2.456393138">
        <ele>507.71</ele>
        <time>2014-09-07T09:07:28Z</time>
      </trkpt>
      <trkpt lat="41.617986227" lon="2.456157858">
        <ele>507.71</ele>
        <time>2014-09-07T09:07:36Z</time>
      </trkpt>
      <trkpt lat="41.617898720" lon="2.455951160">
        <ele>508.19</ele>
        <time>2014-09-07T09:07:45Z</time>
      </trkpt>
      <trkpt lat="41.617851111" lon="2.455713030">
        <ele>509.16</ele>
        <time>2014-09-07T09:07:54Z</time>
      </trkpt>
      <trkpt lat="41.617834347" lon="2.455511361">
        <ele>509.16</ele>
        <time>2014-09-07T09:08:01Z</time>
      </trkpt>
      <trkpt lat="41.617792102" lon="2.455284044">
        <ele>509.16</ele>
        <time>2014-09-07T09:08:08Z</time>
      </trkpt>
      <trkpt lat="41.617772992" lon="2.455160746">
        <ele>509.16</ele>
        <time>2014-09-07T09:08:11Z</time>
      </trkpt>
      <trkpt lat="41.617691687" lon="2.454993192">
        <ele>509.16</ele>
        <time>2014-09-07T09:08:18Z</time>
      </trkpt>
      <trkpt lat="41.617555900" lon="2.454719775">
        <ele>509.16</ele>
        <time>2014-09-07T09:08:27Z</time>
      </trkpt>
      <trkpt lat="41.617491192" lon="2.454609720">
        <ele>507.71</ele>
        <time>2014-09-07T09:08:30Z</time>
      </trkpt>
      <trkpt lat="41.617285165" lon="2.454189452">
        <ele>506.27</ele>
        <time>2014-09-07T09:08:41Z</time>
      </trkpt>
      <trkpt lat="41.617160526" lon="2.454084091">
        <ele>506.27</ele>
        <time>2014-09-07T09:08:46Z</time>
      </trkpt>
      <trkpt lat="41.616974113" lon="2.453986861">
        <ele>506.27</ele>
        <time>2014-09-07T09:08:53Z</time>
      </trkpt>
      <trkpt lat="41.616786274" lon="2.453849482">
        <ele>506.27</ele>
        <time>2014-09-07T09:09:00Z</time>
      </trkpt>
      <trkpt lat="41.616751992" lon="2.453803297">
        <ele>507.23</ele>
        <time>2014-09-07T09:09:02Z</time>
      </trkpt>
      <trkpt lat="41.616672615" lon="2.453623757">
        <ele>508.67</ele>
        <time>2014-09-07T09:09:09Z</time>
      </trkpt>
      <trkpt lat="41.616557783" lon="2.453411192">
        <ele>511.08</ele>
        <time>2014-09-07T09:09:19Z</time>
      </trkpt>
      <trkpt lat="41.616434653" lon="2.453270292">
        <ele>512.52</ele>
        <time>2014-09-07T09:09:26Z</time>
      </trkpt>
      <trkpt lat="41.616279337" lon="2.453179013">
        <ele>512.52</ele>
        <time>2014-09-07T09:09:33Z</time>
      </trkpt>
      <trkpt lat="41.616151429" lon="2.453101481">
        <ele>512.52</ele>
        <time>2014-09-07T09:09:40Z</time>
      </trkpt>
      <trkpt lat="41.615949844" lon="2.452944571">
        <ele>513.00</ele>
        <time>2014-09-07T09:09:51Z</time>
      </trkpt>
      <trkpt lat="41.615796288" lon="2.452784058">
        <ele>513.00</ele>
        <time>2014-09-07T09:09:59Z</time>
      </trkpt>
      <trkpt lat="41.615677516" lon="2.452509634">
        <ele>513.00</ele>
        <time>2014-09-07T09:10:08Z</time>
      </trkpt>
      <trkpt lat="41.615659411" lon="2.452219956">
        <ele>513.00</ele>
        <time>2014-09-07T09:10:15Z</time>
      </trkpt>
      <trkpt lat="41.615668883" lon="2.452136388">
        <ele>513.00</ele>
        <time>2014-09-07T09:10:17Z</time>
      </trkpt>
      <trkpt lat="41.615713223" lon="2.452065058">
        <ele>511.56</ele>
        <time>2014-09-07T09:10:20Z</time>
      </trkpt>
      <trkpt lat="41.615867617" lon="2.451912005">
        <ele>509.16</ele>
        <time>2014-09-07T09:10:27Z</time>
      </trkpt>
      <trkpt lat="41.616056126" lon="2.451769931">
        <ele>507.23</ele>
        <time>2014-09-07T09:10:34Z</time>
      </trkpt>
      <trkpt lat="41.616156039" lon="2.451627774">
        <ele>504.35</ele>
        <time>2014-09-07T09:10:39Z</time>
      </trkpt>
      <trkpt lat="41.616210186" lon="2.451514283">
        <ele>502.43</ele>
        <time>2014-09-07T09:10:43Z</time>
      </trkpt>
      <trkpt lat="41.616248659" lon="2.451420155">
        <ele>501.46</ele>
        <time>2014-09-07T09:10:46Z</time>
      </trkpt>
      <trkpt lat="41.616326611" lon="2.451085968">
        <ele>498.58</ele>
        <time>2014-09-07T09:10:52Z</time>
      </trkpt>
      <trkpt lat="41.616395845" lon="2.450798050">
        <ele>496.66</ele>
        <time>2014-09-07T09:10:57Z</time>
      </trkpt>
      <trkpt lat="41.616536326" lon="2.450568637">
        <ele>495.22</ele>
        <time>2014-09-07T09:11:04Z</time>
      </trkpt>
      <trkpt lat="41.616603884" lon="2.450292872">
        <ele>494.26</ele>
        <time>2014-09-07T09:11:09Z</time>
      </trkpt>
      <trkpt lat="41.616571027" lon="2.450105285">
        <ele>491.85</ele>
        <time>2014-09-07T09:11:14Z</time>
      </trkpt>
      <trkpt lat="41.616609835" lon="2.449949047">
        <ele>489.45</ele>
        <time>2014-09-07T09:11:18Z</time>
      </trkpt>
      <trkpt lat="41.616778311" lon="2.449807309">
        <ele>487.05</ele>
        <time>2014-09-07T09:11:25Z</time>
      </trkpt>
      <trkpt lat="41.616912086" lon="2.449527940">
        <ele>484.16</ele>
        <time>2014-09-07T09:11:33Z</time>
      </trkpt>
      <trkpt lat="41.617007808" lon="2.449187802">
        <ele>483.68</ele>
        <time>2014-09-07T09:11:39Z</time>
      </trkpt>
      <trkpt lat="41.617141248" lon="2.448936429">
        <ele>481.76</ele>
        <time>2014-09-07T09:11:44Z</time>
      </trkpt>
      <trkpt lat="41.617169327" lon="2.448830566">
        <ele>481.28</ele>
        <time>2014-09-07T09:11:47Z</time>
      </trkpt>
      <trkpt lat="41.617235041" lon="2.448432258">
        <ele>478.39</ele>
        <time>2014-09-07T09:11:54Z</time>
      </trkpt>
      <trkpt lat="41.617249039" lon="2.448291442">
        <ele>476.95</ele>
        <time>2014-09-07T09:11:56Z</time>
      </trkpt>
      <trkpt lat="41.617297067" lon="2.448102094">
        <ele>474.07</ele>
        <time>2014-09-07T09:12:01Z</time>
      </trkpt>
      <trkpt lat="41.617358758" lon="2.447836891">
        <ele>471.18</ele>
        <time>2014-09-07T09:12:08Z</time>
      </trkpt>
      <trkpt lat="41.617440314" lon="2.447554421">
        <ele>468.30</ele>
        <time>2014-09-07T09:12:15Z</time>
      </trkpt>
      <trkpt lat="41.617418772" lon="2.447280752">
        <ele>466.86</ele>
        <time>2014-09-07T09:12:22Z</time>
      </trkpt>
      <trkpt lat="41.617446517" lon="2.447057206">
        <ele>466.86</ele>
        <time>2014-09-07T09:12:27Z</time>
      </trkpt>
      <trkpt lat="41.617553470" lon="2.446814550">
        <ele>466.86</ele>
        <time>2014-09-07T09:12:34Z</time>
      </trkpt>
      <trkpt lat="41.617659333" lon="2.446493775">
        <ele>465.90</ele>
        <time>2014-09-07T09:12:41Z</time>
      </trkpt>
      <trkpt lat="41.617800065" lon="2.446334770">
        <ele>463.97</ele>
        <time>2014-09-07T09:12:47Z</time>
      </trkpt>
      <trkpt lat="41.617932583" lon="2.446063616">
        <ele>463.01</ele>
        <time>2014-09-07T09:12:52Z</time>
      </trkpt>
      <trkpt lat="41.618193428" lon="2.445749713">
        <ele>459.17</ele>
        <time>2014-09-07T09:13:00Z</time>
      </trkpt>
      <trkpt lat="41.618291748" lon="2.445501944">
        <ele>457.24</ele>
        <time>2014-09-07T09:13:06Z</time>
      </trkpt>
      <trkpt lat="41.618330640" lon="2.445363643">
        <ele>455.80</ele>
        <time>2014-09-07T09:13:09Z</time>
      </trkpt>
      <trkpt lat="41.618394175" lon="2.445081005">
        <ele>454.36</ele>
        <time>2014-09-07T09:13:16Z</time>
      </trkpt>
      <trkpt lat="41.618402137" lon="2.445045130">
        <ele>453.88</ele>
        <time>2014-09-07T09:13:18Z</time>
      </trkpt>
      <trkpt lat="41.618418482" lon="2.444804821">
        <ele>452.92</ele>
        <time>2014-09-07T09:13:25Z</time>
      </trkpt>
      <trkpt lat="41.618478748" lon="2.444439957">
        <ele>450.52</ele>
        <time>2014-09-07T09:13:32Z</time>
      </trkpt>
      <trkpt lat="41.618497021" lon="2.444389079">
        <ele>450.52</ele>
        <time>2014-09-07T09:13:35Z</time>
      </trkpt>
      <trkpt lat="41.618535577" lon="2.444344487">
        <ele>449.07</ele>
        <time>2014-09-07T09:13:37Z</time>
      </trkpt>
      <trkpt lat="41.618619564" lon="2.444393186">
        <ele>448.59</ele>
        <time>2014-09-07T09:13:42Z</time>
      </trkpt>
      <trkpt lat="41.618700785" lon="2.444666520">
        <ele>445.71</ele>
        <time>2014-09-07T09:13:47Z</time>
      </trkpt>
      <trkpt lat="41.618758787" lon="2.444944045">
        <ele>443.79</ele>
        <time>2014-09-07T09:13:53Z</time>
      </trkpt>
      <trkpt lat="41.618766750" lon="2.444987128">
        <ele>443.79</ele>
        <time>2014-09-07T09:13:54Z</time>
      </trkpt>
      <trkpt lat="41.618817293" lon="2.445143618">
        <ele>442.82</ele>
        <time>2014-09-07T09:13:58Z</time>
      </trkpt>
      <trkpt lat="41.618779323" lon="2.445414437">
        <ele>441.86</ele>
        <time>2014-09-07T09:14:03Z</time>
      </trkpt>
      <trkpt lat="41.618781000" lon="2.445573023">
        <ele>441.38</ele>
        <time>2014-09-07T09:14:07Z</time>
      </trkpt>
      <trkpt lat="41.618875883" lon="2.445709145">
        <ele>440.90</ele>
        <time>2014-09-07T09:14:10Z</time>
      </trkpt>
      <trkpt lat="41.619065900" lon="2.445823725">
        <ele>441.38</ele>
        <time>2014-09-07T09:14:19Z</time>
      </trkpt>
      <trkpt lat="41.619190455" lon="2.445843088">
        <ele>441.38</ele>
        <time>2014-09-07T09:14:24Z</time>
      </trkpt>
      <trkpt lat="41.619301683" lon="2.445854487">
        <ele>442.34</ele>
        <time>2014-09-07T09:14:31Z</time>
      </trkpt>
      <trkpt lat="41.619372510" lon="2.445900001">
        <ele>442.82</ele>
        <time>2014-09-07T09:14:35Z</time>
      </trkpt>
      <trkpt lat="41.619538807" lon="2.445941407">
        <ele>444.27</ele>
        <time>2014-09-07T09:14:43Z</time>
      </trkpt>
      <trkpt lat="41.619598067" lon="2.445895642">
        <ele>445.23</ele>
        <time>2014-09-07T09:14:47Z</time>
      </trkpt>
      <trkpt lat="41.619636540" lon="2.445823390">
        <ele>446.19</ele>
        <time>2014-09-07T09:14:50Z</time>
      </trkpt>
      <trkpt lat="41.619723042" lon="2.445750803">
        <ele>446.67</ele>
        <time>2014-09-07T09:14:57Z</time>
      </trkpt>
      <trkpt lat="41.619743996" lon="2.445833700">
        <ele>447.63</ele>
        <time>2014-09-07T09:15:02Z</time>
      </trkpt>
      <trkpt lat="41.619716252" lon="2.446022460">
        <ele>447.63</ele>
        <time>2014-09-07T09:15:09Z</time>
      </trkpt>
      <trkpt lat="41.619722036" lon="2.446069734">
        <ele>448.11</ele>
        <time>2014-09-07T09:15:11Z</time>
      </trkpt>
      <trkpt lat="41.619784229" lon="2.446152715">
        <ele>449.07</ele>
        <time>2014-09-07T09:15:16Z</time>
      </trkpt>
      <trkpt lat="41.619892440" lon="2.446219435">
        <ele>450.52</ele>
        <time>2014-09-07T09:15:23Z</time>
      </trkpt>
      <trkpt lat="41.619953292" lon="2.446190434">
        <ele>451.48</ele>
        <time>2014-09-07T09:15:27Z</time>
      </trkpt>
      <trkpt lat="41.619992017" lon="2.445969906">
        <ele>451.96</ele>
        <time>2014-09-07T09:15:37Z</time>
      </trkpt>
      <trkpt lat="41.619944491" lon="2.445770081">
        <ele>452.44</ele>
        <time>2014-09-07T09:15:46Z</time>
      </trkpt>
      <trkpt lat="41.619959244" lon="2.445558354">
        <ele>452.92</ele>
        <time>2014-09-07T09:15:55Z</time>
      </trkpt>
      <trkpt lat="41.620105256" lon="2.445316956">
        <ele>452.92</ele>
        <time>2014-09-07T09:16:03Z</time>
      </trkpt>
      <trkpt lat="41.620177508" lon="2.445152754">
        <ele>451.48</ele>
        <time>2014-09-07T09:16:07Z</time>
      </trkpt>
      <trkpt lat="41.620189830" lon="2.445114197">
        <ele>451.48</ele>
        <time>2014-09-07T09:16:07Z</time>
      </trkpt>
      <trkpt lat="41.620281444" lon="2.445067845">
        <ele>451.00</ele>
        <time>2014-09-07T09:16:14Z</time>
      </trkpt>
      <trkpt lat="41.620299968" lon="2.445071701">
        <ele>452.44</ele>
        <time>2014-09-07T09:16:14Z</time>
      </trkpt>
      <trkpt lat="41.620410777" lon="2.445135990">
        <ele>454.84</ele>
        <time>2014-09-07T09:16:21Z</time>
      </trkpt>
      <trkpt lat="41.620436425" lon="2.445163064">
        <ele>455.32</ele>
        <time>2014-09-07T09:16:24Z</time>
      </trkpt>
      <trkpt lat="41.620467355" lon="2.445167758">
        <ele>455.80</ele>
        <time>2014-09-07T09:16:28Z</time>
      </trkpt>
      <trkpt lat="41.620530135" lon="2.445101373">
        <ele>456.76</ele>
        <time>2014-09-07T09:16:33Z</time>
      </trkpt>
      <trkpt lat="41.620631556" lon="2.445045214">
        <ele>457.24</ele>
        <time>2014-09-07T09:16:42Z</time>
      </trkpt>
      <trkpt lat="41.620725852" lon="2.444977069">
        <ele>458.69</ele>
        <time>2014-09-07T09:16:49Z</time>
      </trkpt>
      <trkpt lat="41.620791064" lon="2.444947984">
        <ele>459.17</ele>
        <time>2014-09-07T09:16:56Z</time>
      </trkpt>
      <trkpt lat="41.620852419" lon="2.444906913">
        <ele>457.72</ele>
        <time>2014-09-07T09:17:01Z</time>
      </trkpt>
      <trkpt lat="41.621005054" lon="2.444826614">
        <ele>454.36</ele>
        <time>2014-09-07T09:17:06Z</time>
      </trkpt>
      <trkpt lat="41.621160370" lon="2.444742711">
        <ele>452.92</ele>
        <time>2014-09-07T09:17:13Z</time>
      </trkpt>
      <trkpt lat="41.621365056" lon="2.444726283">
        <ele>451.00</ele>
        <time>2014-09-07T09:17:18Z</time>
      </trkpt>
      <trkpt lat="41.621541915" lon="2.444702394">
        <ele>449.55</ele>
        <time>2014-09-07T09:17:24Z</time>
      </trkpt>
      <trkpt lat="41.621679294" lon="2.444792835">
        <ele>448.11</ele>
        <time>2014-09-07T09:17:29Z</time>
      </trkpt>
      <trkpt lat="41.621760598" lon="2.444981847">
        <ele>446.19</ele>
        <time>2014-09-07T09:17:34Z</time>
      </trkpt>
      <trkpt lat="41.621872162" lon="2.445184270">
        <ele>444.75</ele>
        <time>2014-09-07T09:17:39Z</time>
      </trkpt>
      <trkpt lat="41.621889680" lon="2.445221486">
        <ele>444.27</ele>
        <time>2014-09-07T09:17:41Z</time>
      </trkpt>
      <trkpt lat="41.621991101" lon="2.445522815">
        <ele>443.31</ele>
        <time>2014-09-07T09:17:48Z</time>
      </trkpt>
      <trkpt lat="41.622077015" lon="2.445746696">
        <ele>440.90</ele>
        <time>2014-09-07T09:17:53Z</time>
      </trkpt>
      <trkpt lat="41.622110375" lon="2.445784163">
        <ele>440.90</ele>
        <time>2014-09-07T09:17:55Z</time>
      </trkpt>
      <trkpt lat="41.622153710" lon="2.445713839">
        <ele>438.98</ele>
        <time>2014-09-07T09:18:00Z</time>
      </trkpt>
      <trkpt lat="41.622262507" lon="2.445697662">
        <ele>438.50</ele>
        <time>2014-09-07T09:18:05Z</time>
      </trkpt>
      <trkpt lat="41.622429390" lon="2.445906539">
        <ele>436.58</ele>
        <time>2014-09-07T09:18:12Z</time>
      </trkpt>
      <trkpt lat="41.622526704" lon="2.446072165">
        <ele>436.58</ele>
        <time>2014-09-07T09:18:19Z</time>
      </trkpt>
      <trkpt lat="41.622668861" lon="2.446196469">
        <ele>436.10</ele>
        <time>2014-09-07T09:18:24Z</time>
      </trkpt>
      <trkpt lat="41.622844881" lon="2.446257908">
        <ele>435.61</ele>
        <time>2014-09-07T09:18:33Z</time>
      </trkpt>
      <trkpt lat="41.622996845" lon="2.446212143">
        <ele>435.13</ele>
        <time>2014-09-07T09:18:40Z</time>
      </trkpt>
      <trkpt lat="41.623039677" lon="2.446173335">
        <ele>435.13</ele>
        <time>2014-09-07T09:18:44Z</time>
      </trkpt>
      <trkpt lat="41.623059877" lon="2.446104519">
        <ele>435.13</ele>
        <time>2014-09-07T09:18:47Z</time>
      </trkpt>
      <trkpt lat="41.623072785" lon="2.446069650">
        <ele>436.58</ele>
        <time>2014-09-07T09:18:49Z</time>
      </trkpt>
      <trkpt lat="41.623106481" lon="2.445855577">
        <ele>436.58</ele>
        <time>2014-09-07T09:18:56Z</time>
      </trkpt>
      <trkpt lat="41.623123496" lon="2.445713755">
        <ele>435.13</ele>
        <time>2014-09-07T09:18:59Z</time>
      </trkpt>
      <trkpt lat="41.623123412" lon="2.445519127">
        <ele>434.65</ele>
        <time>2014-09-07T09:19:03Z</time>
      </trkpt>
      <trkpt lat="41.623192395" lon="2.445453581">
        <ele>433.21</ele>
        <time>2014-09-07T09:19:08Z</time>
      </trkpt>
      <trkpt lat="41.623228354" lon="2.445606802">
        <ele>432.25</ele>
        <time>2014-09-07T09:19:13Z</time>
      </trkpt>
      <trkpt lat="41.623243776" lon="2.445651813">
        <ele>432.25</ele>
        <time>2014-09-07T09:19:13Z</time>
      </trkpt>
      <trkpt lat="41.623282920" lon="2.445750132">
        <ele>430.81</ele>
        <time>2014-09-07T09:19:15Z</time>
      </trkpt>
      <trkpt lat="41.623374953" lon="2.446000500">
        <ele>429.37</ele>
        <time>2014-09-07T09:19:22Z</time>
      </trkpt>
      <trkpt lat="41.623386939" lon="2.446053054">
        <ele>428.40</ele>
        <time>2014-09-07T09:19:24Z</time>
      </trkpt>
      <trkpt lat="41.623501101" lon="2.446284143">
        <ele>426.00</ele>
        <time>2014-09-07T09:19:31Z</time>
      </trkpt>
      <trkpt lat="41.623628673" lon="2.446445076">
        <ele>424.08</ele>
        <time>2014-09-07T09:19:38Z</time>
      </trkpt>
      <trkpt lat="41.623781894" lon="2.446512802">
        <ele>422.16</ele>
        <time>2014-09-07T09:19:43Z</time>
      </trkpt>
      <trkpt lat="41.623899912" lon="2.446659485">
        <ele>421.19</ele>
        <time>2014-09-07T09:19:48Z</time>
      </trkpt>
      <trkpt lat="41.624016588" lon="2.446861489">
        <ele>420.23</ele>
        <time>2014-09-07T09:19:55Z</time>
      </trkpt>
      <trkpt lat="41.624254885" lon="2.447082268">
        <ele>419.27</ele>
        <time>2014-09-07T09:20:02Z</time>
      </trkpt>
      <trkpt lat="41.624338537" lon="2.447165584">
        <ele>418.79</ele>
        <time>2014-09-07T09:20:04Z</time>
      </trkpt>
      <trkpt lat="41.624481867" lon="2.447117807">
        <ele>418.31</ele>
        <time>2014-09-07T09:20:11Z</time>
      </trkpt>
      <trkpt lat="41.624585803" lon="2.446904991">
        <ele>417.35</ele>
        <time>2014-09-07T09:20:18Z</time>
      </trkpt>
      <trkpt lat="41.624691079" lon="2.446662922">
        <ele>416.39</ele>
        <time>2014-09-07T09:20:25Z</time>
      </trkpt>
      <trkpt lat="41.624765092" lon="2.446515819">
        <ele>415.91</ele>
        <time>2014-09-07T09:20:32Z</time>
      </trkpt>
      <trkpt lat="41.624769199" lon="2.446473155">
        <ele>415.91</ele>
        <time>2014-09-07T09:20:33Z</time>
      </trkpt>
      <trkpt lat="41.624755201" lon="2.446288083">
        <ele>415.91</ele>
        <time>2014-09-07T09:20:42Z</time>
      </trkpt>
      <trkpt lat="41.624781604" lon="2.446052719">
        <ele>417.83</ele>
        <time>2014-09-07T09:20:53Z</time>
      </trkpt>
      <trkpt lat="41.624814293" lon="2.445836382">
        <ele>418.31</ele>
        <time>2014-09-07T09:21:01Z</time>
      </trkpt>
      <trkpt lat="41.624843043" lon="2.445642006">
        <ele>419.75</ele>
        <time>2014-09-07T09:21:08Z</time>
      </trkpt>
      <trkpt lat="41.624927701" lon="2.445481325">
        <ele>420.23</ele>
        <time>2014-09-07T09:21:15Z</time>
      </trkpt>
      <trkpt lat="41.625022500" lon="2.445310334">
        <ele>420.71</ele>
        <time>2014-09-07T09:21:22Z</time>
      </trkpt>
      <trkpt lat="41.625136578" lon="2.445108665">
        <ele>420.71</ele>
        <time>2014-09-07T09:21:29Z</time>
      </trkpt>
      <trkpt lat="41.625239759" lon="2.444923174">
        <ele>420.71</ele>
        <time>2014-09-07T09:21:36Z</time>
      </trkpt>
      <trkpt lat="41.625330451" lon="2.444740951">
        <ele>421.19</ele>
        <time>2014-09-07T09:21:43Z</time>
      </trkpt>
      <trkpt lat="41.625392812" lon="2.444676662">
        <ele>421.68</ele>
        <time>2014-09-07T09:21:48Z</time>
      </trkpt>
      <trkpt lat="41.625469507" lon="2.444669370">
        <ele>422.16</ele>
        <time>2014-09-07T09:21:52Z</time>
      </trkpt>
      <trkpt lat="41.625562378" lon="2.444723852">
        <ele>422.16</ele>
        <time>2014-09-07T09:21:55Z</time>
      </trkpt>
      <trkpt lat="41.625768489" lon="2.444791075">
        <ele>422.64</ele>
        <time>2014-09-07T09:22:04Z</time>
      </trkpt>
      <trkpt lat="41.625872006" lon="2.444884785">
        <ele>422.64</ele>
        <time>2014-09-07T09:22:09Z</time>
      </trkpt>
      <trkpt lat="41.625950879" lon="2.445104139">
        <ele>422.64</ele>
        <time>2014-09-07T09:22:14Z</time>
      </trkpt>
      <trkpt lat="41.625987592" lon="2.445168931">
        <ele>422.64</ele>
        <time>2014-09-07T09:22:16Z</time>
      </trkpt>
      <trkpt lat="41.626110639" lon="2.445131548">
        <ele>422.64</ele>
        <time>2014-09-07T09:22:21Z</time>
      </trkpt>
      <trkpt lat="41.626200325" lon="2.444989726">
        <ele>422.64</ele>
        <time>2014-09-07T09:22:28Z</time>
      </trkpt>
      <trkpt lat="41.626365365" lon="2.444835331">
        <ele>422.64</ele>
        <time>2014-09-07T09:22:35Z</time>
      </trkpt>
      <trkpt lat="41.626475754" lon="2.444711531">
        <ele>422.64</ele>
        <time>2014-09-07T09:22:39Z</time>
      </trkpt>
      <trkpt lat="41.626674405" lon="2.444494439">
        <ele>420.71</ele>
        <time>2014-09-07T09:22:48Z</time>
      </trkpt>
      <trkpt lat="41.626856712" lon="2.444476418">
        <ele>420.23</ele>
        <time>2014-09-07T09:22:53Z</time>
      </trkpt>
      <trkpt lat="41.627005742" lon="2.444453536">
        <ele>420.23</ele>
        <time>2014-09-07T09:23:00Z</time>
      </trkpt>
      <trkpt lat="41.627182013" lon="2.444410788">
        <ele>419.27</ele>
        <time>2014-09-07T09:23:07Z</time>
      </trkpt>
      <trkpt lat="41.627376809" lon="2.444444483">
        <ele>418.31</ele>
        <time>2014-09-07T09:23:14Z</time>
      </trkpt>
      <trkpt lat="41.627504801" lon="2.444458481">
        <ele>418.31</ele>
        <time>2014-09-07T09:23:19Z</time>
      </trkpt>
      <trkpt lat="41.627647712" lon="2.444486896">
        <ele>419.75</ele>
        <time>2014-09-07T09:23:26Z</time>
      </trkpt>
      <trkpt lat="41.627776542" lon="2.444506258">
        <ele>419.75</ele>
        <time>2014-09-07T09:23:33Z</time>
      </trkpt>
      <trkpt lat="41.627859020" lon="2.444531655">
        <ele>421.68</ele>
        <time>2014-09-07T09:23:38Z</time>
      </trkpt>
      <trkpt lat="41.627981312" lon="2.444586808">
        <ele>423.12</ele>
        <time>2014-09-07T09:23:43Z</time>
      </trkpt>
      <trkpt lat="41.628096479" lon="2.444673058">
        <ele>424.56</ele>
        <time>2014-09-07T09:23:50Z</time>
      </trkpt>
      <trkpt lat="41.628219022" lon="2.444745226">
        <ele>423.12</ele>
        <time>2014-09-07T09:23:57Z</time>
      </trkpt>
      <trkpt lat="41.628242324" lon="2.444753356">
        <ele>423.12</ele>
        <time>2014-09-07T09:23:57Z</time>
      </trkpt>
      <trkpt lat="41.628365790" lon="2.444682529">
        <ele>421.68</ele>
        <time>2014-09-07T09:24:04Z</time>
      </trkpt>
      <trkpt lat="41.628393701" lon="2.444527632">
        <ele>421.68</ele>
        <time>2014-09-07T09:24:11Z</time>
      </trkpt>
      <trkpt lat="41.628401664" lon="2.444314145">
        <ele>423.60</ele>
        <time>2014-09-07T09:24:20Z</time>
      </trkpt>
      <trkpt lat="41.628339470" lon="2.444165450">
        <ele>425.52</ele>
        <time>2014-09-07T09:24:25Z</time>
      </trkpt>
      <trkpt lat="41.628225979" lon="2.443983479">
        <ele>426.00</ele>
        <time>2014-09-07T09:24:32Z</time>
      </trkpt>
      <trkpt lat="41.628117182" lon="2.443685753">
        <ele>426.96</ele>
        <time>2014-09-07T09:24:42Z</time>
      </trkpt>
      <trkpt lat="41.628075692" lon="2.443549464">
        <ele>428.40</ele>
        <time>2014-09-07T09:24:49Z</time>
      </trkpt>
      <trkpt lat="41.628014169" lon="2.443347544">
        <ele>430.81</ele>
        <time>2014-09-07T09:24:58Z</time>
      </trkpt>
      <trkpt lat="41.628016851" lon="2.443305886">
        <ele>431.29</ele>
        <time>2014-09-07T09:25:00Z</time>
      </trkpt>
      <trkpt lat="41.628113662" lon="2.443272106">
        <ele>431.77</ele>
        <time>2014-09-07T09:25:07Z</time>
      </trkpt>
      <trkpt lat="41.628133611" lon="2.443285350">
        <ele>431.77</ele>
        <time>2014-09-07T09:25:09Z</time>
      </trkpt>
      <trkpt lat="41.628251796" lon="2.443415018">
        <ele>432.73</ele>
        <time>2014-09-07T09:25:17Z</time>
      </trkpt>
      <trkpt lat="41.628367215" lon="2.443521384">
        <ele>433.69</ele>
        <time>2014-09-07T09:25:26Z</time>
      </trkpt>
      <trkpt lat="41.628539127" lon="2.443574190">
        <ele>434.65</ele>
        <time>2014-09-07T09:25:35Z</time>
      </trkpt>
      <trkpt lat="41.628700563" lon="2.443597408">
        <ele>434.65</ele>
        <time>2014-09-07T09:25:42Z</time>
      </trkpt>
      <trkpt lat="41.628860573" lon="2.443607718">
        <ele>434.65</ele>
        <time>2014-09-07T09:25:49Z</time>
      </trkpt>
      <trkpt lat="41.629040784" lon="2.443576118">
        <ele>435.61</ele>
        <time>2014-09-07T09:25:57Z</time>
      </trkpt>
      <trkpt lat="41.629125944" lon="2.443572095">
        <ele>436.10</ele>
        <time>2014-09-07T09:26:03Z</time>
      </trkpt>
      <trkpt lat="41.629264749" lon="2.443668822">
        <ele>436.10</ele>
        <time>2014-09-07T09:26:11Z</time>
      </trkpt>
      <trkpt lat="41.629409337" lon="2.443841154">
        <ele>434.65</ele>
        <time>2014-09-07T09:26:17Z</time>
      </trkpt>
      <trkpt lat="41.629682754" lon="2.443994710">
        <ele>434.17</ele>
        <time>2014-09-07T09:26:23Z</time>
      </trkpt>
      <trkpt lat="41.629943683" lon="2.444113482">
        <ele>433.21</ele>
        <time>2014-09-07T09:26:30Z</time>
      </trkpt>
      <trkpt lat="41.629992046" lon="2.444168719">
        <ele>433.21</ele>
        <time>2014-09-07T09:26:36Z</time>
      </trkpt>
      <trkpt lat="41.630010403" lon="2.444198223">
        <ele>433.21</ele>
        <time>2014-09-07T09:26:53Z</time>
      </trkpt>
      <trkpt lat="41.630020293" lon="2.444189338">
        <ele>433.21</ele>
        <time>2014-09-07T09:27:07Z</time>
      </trkpt>
      <trkpt lat="41.630015181" lon="2.444184393">
        <ele>433.69</ele>
        <time>2014-09-07T09:27:26Z</time>
      </trkpt>
      <trkpt lat="41.630022557" lon="2.444173999">
        <ele>433.69</ele>
        <time>2014-09-07T09:27:38Z</time>
      </trkpt>
      <trkpt lat="41.630048121" lon="2.444183890">
        <ele>433.69</ele>
        <time>2014-09-07T09:27:54Z</time>
      </trkpt>
      <trkpt lat="41.630061281" lon="2.444194200">
        <ele>433.69</ele>
        <time>2014-09-07T09:28:15Z</time>
      </trkpt>
      <trkpt lat="41.630049714" lon="2.444181962">
        <ele>433.69</ele>
        <time>2014-09-07T09:28:34Z</time>
      </trkpt>
      <trkpt lat="41.630039907" lon="2.444159582">
        <ele>433.69</ele>
        <time>2014-09-07T09:28:46Z</time>
      </trkpt>
      <trkpt lat="41.630056503" lon="2.444185315">
        <ele>434.17</ele>
        <time>2014-09-07T09:28:55Z</time>
      </trkpt>
      <trkpt lat="41.630114087" lon="2.444216328">
        <ele>433.69</ele>
        <time>2014-09-07T09:29:00Z</time>
      </trkpt>
      <trkpt lat="41.630142166" lon="2.444271648">
        <ele>433.69</ele>
        <time>2014-09-07T09:29:04Z</time>
      </trkpt>
      <trkpt lat="41.630269404" lon="2.444356892">
        <ele>433.69</ele>
        <time>2014-09-07T09:29:11Z</time>
      </trkpt>
      <trkpt lat="41.630447184" lon="2.444372315">
        <ele>430.81</ele>
        <time>2014-09-07T09:29:16Z</time>
      </trkpt>
      <trkpt lat="41.630678776" lon="2.444349181">
        <ele>429.37</ele>
        <time>2014-09-07T09:29:25Z</time>
      </trkpt>
      <trkpt lat="41.630701658" lon="2.444340548">
        <ele>428.89</ele>
        <time>2014-09-07T09:29:25Z</time>
      </trkpt>
      <trkpt lat="41.630787154" lon="2.444274414">
        <ele>427.92</ele>
        <time>2014-09-07T09:29:33Z</time>
      </trkpt>
      <trkpt lat="41.630818334" lon="2.444259746">
        <ele>427.92</ele>
        <time>2014-09-07T09:29:44Z</time>
      </trkpt>
      <trkpt lat="41.630841217" lon="2.444253376">
        <ele>426.96</ele>
        <time>2014-09-07T09:29:51Z</time>
      </trkpt>
      <trkpt lat="41.630882205" lon="2.444232253">
        <ele>426.00</ele>
        <time>2014-09-07T09:30:01Z</time>
      </trkpt>
      <trkpt lat="41.630916487" lon="2.444185734">
        <ele>425.04</ele>
        <time>2014-09-07T09:30:08Z</time>
      </trkpt>
      <trkpt lat="41.630933669" lon="2.444139382">
        <ele>424.08</ele>
        <time>2014-09-07T09:30:17Z</time>
      </trkpt>
      <trkpt lat="41.630950517" lon="2.444125300">
        <ele>424.08</ele>
        <time>2014-09-07T09:30:27Z</time>
      </trkpt>
      <trkpt lat="41.630959067" lon="2.444093282">
        <ele>423.12</ele>
        <time>2014-09-07T09:30:34Z</time>
      </trkpt>
      <trkpt lat="41.630990918" lon="2.444050282">
        <ele>422.16</ele>
        <time>2014-09-07T09:30:41Z</time>
      </trkpt>
      <trkpt lat="41.631022685" lon="2.444024298">
        <ele>421.68</ele>
        <time>2014-09-07T09:30:50Z</time>
      </trkpt>
      <trkpt lat="41.631044394" lon="2.444009882">
        <ele>421.68</ele>
        <time>2014-09-07T09:30:55Z</time>
      </trkpt>
      <trkpt lat="41.631051603" lon="2.443996387">
        <ele>421.68</ele>
        <time>2014-09-07T09:31:02Z</time>
      </trkpt>
      <trkpt lat="41.631048502" lon="2.443902342">
        <ele>422.16</ele>
        <time>2014-09-07T09:31:09Z</time>
      </trkpt>
      <trkpt lat="41.631072055" lon="2.443862528">
        <ele>421.19</ele>
        <time>2014-09-07T09:31:14Z</time>
      </trkpt>
      <trkpt lat="41.631125783" lon="2.443812655">
        <ele>419.27</ele>
        <time>2014-09-07T09:31:20Z</time>
      </trkpt>
      <trkpt lat="41.631171213" lon="2.443726154">
        <ele>416.87</ele>
        <time>2014-09-07T09:31:23Z</time>
      </trkpt>
      <trkpt lat="41.631238016" lon="2.443642251">
        <ele>415.43</ele>
        <time>2014-09-07T09:31:30Z</time>
      </trkpt>
      <trkpt lat="41.631312280" lon="2.443603611">
        <ele>413.50</ele>
        <time>2014-09-07T09:31:37Z</time>
      </trkpt>
      <trkpt lat="41.631377827" lon="2.443516271">
        <ele>412.06</ele>
        <time>2014-09-07T09:31:41Z</time>
      </trkpt>
      <trkpt lat="41.631458293" lon="2.443424992">
        <ele>411.10</ele>
        <time>2014-09-07T09:31:46Z</time>
      </trkpt>
      <trkpt lat="41.631502717" lon="2.443403786">
        <ele>410.14</ele>
        <time>2014-09-07T09:31:49Z</time>
      </trkpt>
      <trkpt lat="41.631561558" lon="2.443289792">
        <ele>409.18</ele>
        <time>2014-09-07T09:31:54Z</time>
      </trkpt>
      <trkpt lat="41.631620818" lon="2.443191137">
        <ele>408.22</ele>
        <time>2014-09-07T09:31:58Z</time>
      </trkpt>
      <trkpt lat="41.631747301" lon="2.442991648">
        <ele>404.85</ele>
        <time>2014-09-07T09:32:05Z</time>
      </trkpt>
      <trkpt lat="41.631846626" lon="2.442768019">
        <ele>402.45</ele>
        <time>2014-09-07T09:32:12Z</time>
      </trkpt>
      <trkpt lat="41.631890631" lon="2.442664419">
        <ele>401.49</ele>
        <time>2014-09-07T09:32:17Z</time>
      </trkpt>
      <trkpt lat="41.631883591" lon="2.442510359">
        <ele>400.05</ele>
        <time>2014-09-07T09:32:24Z</time>
      </trkpt>
      <trkpt lat="41.631798347" lon="2.442316067">
        <ele>399.08</ele>
        <time>2014-09-07T09:32:33Z</time>
      </trkpt>
      <trkpt lat="41.631812512" lon="2.442076931">
        <ele>397.64</ele>
        <time>2014-09-07T09:32:40Z</time>
      </trkpt>
      <trkpt lat="41.631905048" lon="2.441899235">
        <ele>396.20</ele>
        <time>2014-09-07T09:32:45Z</time>
      </trkpt>
      <trkpt lat="41.631952071" lon="2.441694129">
        <ele>394.28</ele>
        <time>2014-09-07T09:32:52Z</time>
      </trkpt>
      <trkpt lat="41.631968164" lon="2.441572843">
        <ele>392.84</ele>
        <time>2014-09-07T09:32:57Z</time>
      </trkpt>
      <trkpt lat="41.632058269" lon="2.441429177">
        <ele>391.87</ele>
        <time>2014-09-07T09:33:06Z</time>
      </trkpt>
      <trkpt lat="41.632177795" lon="2.441277297">
        <ele>390.91</ele>
        <time>2014-09-07T09:33:13Z</time>
      </trkpt>
      <trkpt lat="41.632255496" lon="2.441059955">
        <ele>390.91</ele>
        <time>2014-09-07T09:33:20Z</time>
      </trkpt>
      <trkpt lat="41.632234373" lon="2.440825345">
        <ele>390.91</ele>
        <time>2014-09-07T09:33:27Z</time>
      </trkpt>
      <trkpt lat="41.632326406" lon="2.440713614">
        <ele>390.91</ele>
        <time>2014-09-07T09:33:34Z</time>
      </trkpt>
      <trkpt lat="41.632370160" lon="2.440690816">
        <ele>390.91</ele>
        <time>2014-09-07T09:33:36Z</time>
      </trkpt>
      <trkpt lat="41.632437634" lon="2.440549245">
        <ele>391.87</ele>
        <time>2014-09-07T09:33:41Z</time>
      </trkpt>
      <trkpt lat="41.632472671" lon="2.440280521">
        <ele>392.36</ele>
        <time>2014-09-07T09:33:48Z</time>
      </trkpt>
      <trkpt lat="41.632537211" lon="2.440048007">
        <ele>392.36</ele>
        <time>2014-09-07T09:33:55Z</time>
      </trkpt>
      <trkpt lat="41.632600998" lon="2.439831503">
        <ele>392.84</ele>
        <time>2014-09-07T09:34:03Z</time>
      </trkpt>
      <trkpt lat="41.632737120" lon="2.439689513">
        <ele>393.80</ele>
        <time>2014-09-07T09:34:10Z</time>
      </trkpt>
      <trkpt lat="41.632865195" lon="2.439606868">
        <ele>393.80</ele>
        <time>2014-09-07T09:34:14Z</time>
      </trkpt>
      <trkpt lat="41.632924707" lon="2.439487426">
        <ele>394.76</ele>
        <time>2014-09-07T09:34:19Z</time>
      </trkpt>
      <trkpt lat="41.632886401" lon="2.439266060">
        <ele>395.24</ele>
        <time>2014-09-07T09:34:28Z</time>
      </trkpt>
      <trkpt lat="41.632829824" lon="2.439049723">
        <ele>395.24</ele>
        <time>2014-09-07T09:34:35Z</time>
      </trkpt>
      <trkpt lat="41.632799397" lon="2.438845121">
        <ele>395.24</ele>
        <time>2014-09-07T09:34:40Z</time>
      </trkpt>
      <trkpt lat="41.632834601" lon="2.438643703">
        <ele>395.72</ele>
        <time>2014-09-07T09:34:47Z</time>
      </trkpt>
      <trkpt lat="41.632880115" lon="2.438405909">
        <ele>396.20</ele>
        <time>2014-09-07T09:34:52Z</time>
      </trkpt>
      <trkpt lat="41.633002156" lon="2.438182615">
        <ele>396.68</ele>
        <time>2014-09-07T09:34:57Z</time>
      </trkpt>
      <trkpt lat="41.633122352" lon="2.437955465">
        <ele>396.68</ele>
        <time>2014-09-07T09:35:04Z</time>
      </trkpt>
      <trkpt lat="41.633171302" lon="2.437780535">
        <ele>395.24</ele>
        <time>2014-09-07T09:35:08Z</time>
      </trkpt>
      <trkpt lat="41.633230227" lon="2.437659081">
        <ele>394.76</ele>
        <time>2014-09-07T09:35:11Z</time>
      </trkpt>
      <trkpt lat="41.633216900" lon="2.437446097">
        <ele>391.87</ele>
        <time>2014-09-07T09:35:18Z</time>
      </trkpt>
      <trkpt lat="41.633140289" lon="2.437137140">
        <ele>391.39</ele>
        <time>2014-09-07T09:35:27Z</time>
      </trkpt>
      <trkpt lat="41.633012298" lon="2.436921725">
        <ele>390.91</ele>
        <time>2014-09-07T09:35:34Z</time>
      </trkpt>
      <trkpt lat="41.632951948" lon="2.436753249">
        <ele>390.91</ele>
        <time>2014-09-07T09:35:39Z</time>
      </trkpt>
      <trkpt lat="41.632917079" lon="2.436618300">
        <ele>390.91</ele>
        <time>2014-09-07T09:35:46Z</time>
      </trkpt>
      <trkpt lat="41.632910122" lon="2.436386708">
        <ele>390.91</ele>
        <time>2014-09-07T09:35:53Z</time>
      </trkpt>
      <trkpt lat="41.632916576" lon="2.436356114">
        <ele>390.91</ele>
        <time>2014-09-07T09:35:53Z</time>
      </trkpt>
      <trkpt lat="41.632988577" lon="2.436102227">
        <ele>391.39</ele>
        <time>2014-09-07T09:36:04Z</time>
      </trkpt>
      <trkpt lat="41.633044568" lon="2.435919752">
        <ele>390.43</ele>
        <time>2014-09-07T09:36:11Z</time>
      </trkpt>
      <trkpt lat="41.633111958" lon="2.435690507">
        <ele>388.99</ele>
        <time>2014-09-07T09:36:16Z</time>
      </trkpt>
      <trkpt lat="41.633121430" lon="2.435420778">
        <ele>387.07</ele>
        <time>2014-09-07T09:36:21Z</time>
      </trkpt>
      <trkpt lat="41.633091255" lon="2.435166136">
        <ele>385.15</ele>
        <time>2014-09-07T09:36:24Z</time>
      </trkpt>
      <trkpt lat="41.633066277" lon="2.434548222">
        <ele>383.70</ele>
        <time>2014-09-07T09:36:31Z</time>
      </trkpt>
      <trkpt lat="41.633077425" lon="2.434316127">
        <ele>383.70</ele>
        <time>2014-09-07T09:36:35Z</time>
      </trkpt>
      <trkpt lat="41.633182702" lon="2.434067352">
        <ele>383.70</ele>
        <time>2014-09-07T09:36:40Z</time>
      </trkpt>
      <trkpt lat="41.633384454" lon="2.433920249">
        <ele>383.70</ele>
        <time>2014-09-07T09:36:49Z</time>
      </trkpt>
      <trkpt lat="41.633533820" lon="2.433883285">
        <ele>382.74</ele>
        <time>2014-09-07T09:36:56Z</time>
      </trkpt>
      <trkpt lat="41.633683185" lon="2.433900552">
        <ele>382.74</ele>
        <time>2014-09-07T09:37:01Z</time>
      </trkpt>
      <trkpt lat="41.633762394" lon="2.433873143">
        <ele>382.74</ele>
        <time>2014-09-07T09:37:05Z</time>
      </trkpt>
      <trkpt lat="41.633938246" lon="2.433658902">
        <ele>382.74</ele>
        <time>2014-09-07T09:37:13Z</time>
      </trkpt>
      <trkpt lat="41.634059784" lon="2.433516996">
        <ele>382.74</ele>
        <time>2014-09-07T09:37:20Z</time>
      </trkpt>
      <trkpt lat="41.634228428" lon="2.433357488">
        <ele>382.74</ele>
        <time>2014-09-07T09:37:27Z</time>
      </trkpt>
      <trkpt lat="41.634311996" lon="2.433189934">
        <ele>382.74</ele>
        <time>2014-09-07T09:37:32Z</time>
      </trkpt>
      <trkpt lat="41.634385253" lon="2.432859855">
        <ele>381.30</ele>
        <time>2014-09-07T09:37:38Z</time>
      </trkpt>
      <trkpt lat="41.634651882" lon="2.432363479">
        <ele>378.42</ele>
        <time>2014-09-07T09:37:43Z</time>
      </trkpt>
      <trkpt lat="41.634760763" lon="2.432224171">
        <ele>378.42</ele>
        <time>2014-09-07T09:37:46Z</time>
      </trkpt>
      <trkpt lat="41.635006101" lon="2.431976738">
        <ele>378.42</ele>
        <time>2014-09-07T09:37:50Z</time>
      </trkpt>
      <trkpt lat="41.635105426" lon="2.431901217">
        <ele>377.45</ele>
        <time>2014-09-07T09:37:53Z</time>
      </trkpt>
      <trkpt lat="41.635378341" lon="2.431851512">
        <ele>376.97</ele>
        <time>2014-09-07T09:37:59Z</time>
      </trkpt>
      <trkpt lat="41.635477415" lon="2.431818403">
        <ele>376.01</ele>
        <time>2014-09-07T09:38:04Z</time>
      </trkpt>
      <trkpt lat="41.635497867" lon="2.431821924">
        <ele>376.01</ele>
        <time>2014-09-07T09:38:14Z</time>
      </trkpt>
      <trkpt lat="41.635505746" lon="2.431827372">
        <ele>376.01</ele>
        <time>2014-09-07T09:38:30Z</time>
      </trkpt>
      <trkpt lat="41.635506836" lon="2.431828294">
        <ele>376.01</ele>
        <time>2014-09-07T09:38:54Z</time>
      </trkpt>
      <trkpt lat="41.635497532" lon="2.431818320">
        <ele>375.53</ele>
        <time>2014-09-07T09:39:19Z</time>
      </trkpt>
      <trkpt lat="41.635494263" lon="2.431815302">
        <ele>375.53</ele>
        <time>2014-09-07T09:39:31Z</time>
      </trkpt>
      <trkpt lat="41.635492754" lon="2.431824774">
        <ele>375.53</ele>
        <time>2014-09-07T09:39:45Z</time>
      </trkpt>
      <trkpt lat="41.635499627" lon="2.431846399">
        <ele>375.53</ele>
        <time>2014-09-07T09:39:57Z</time>
      </trkpt>
      <trkpt lat="41.635497364" lon="2.431858301">
        <ele>375.53</ele>
        <time>2014-09-07T09:40:06Z</time>
      </trkpt>
      <trkpt lat="41.635499544" lon="2.431872970">
        <ele>375.53</ele>
        <time>2014-09-07T09:40:14Z</time>
      </trkpt>
      <trkpt lat="41.635500382" lon="2.431880262">
        <ele>375.53</ele>
        <time>2014-09-07T09:40:16Z</time>
      </trkpt>
      <trkpt lat="41.635556876" lon="2.431975732">
        <ele>373.61</ele>
        <time>2014-09-07T09:40:21Z</time>
      </trkpt>
      <trkpt lat="41.635685622" lon="2.432041278">
        <ele>370.73</ele>
        <time>2014-09-07T09:40:28Z</time>
      </trkpt>
      <trkpt lat="41.635776146" lon="2.432129456">
        <ele>367.36</ele>
        <time>2014-09-07T09:40:32Z</time>
      </trkpt>
      <trkpt lat="41.635873460" lon="2.432216544">
        <ele>364.00</ele>
        <time>2014-09-07T09:40:37Z</time>
      </trkpt>
      <trkpt lat="41.635951747" lon="2.432280665">
        <ele>362.55</ele>
        <time>2014-09-07T09:40:39Z</time>
      </trkpt>
      <trkpt lat="41.636059119" lon="2.432436066">
        <ele>360.63</ele>
        <time>2014-09-07T09:40:44Z</time>
      </trkpt>
      <trkpt lat="41.636145118" lon="2.432541510">
        <ele>358.23</ele>
        <time>2014-09-07T09:40:49Z</time>
      </trkpt>
      <trkpt lat="41.636238157" lon="2.432607476">
        <ele>355.34</ele>
        <time>2014-09-07T09:40:53Z</time>
      </trkpt>
      <trkpt lat="41.636348295" lon="2.432650391">
        <ele>353.42</ele>
        <time>2014-09-07T09:40:58Z</time>
      </trkpt>
      <trkpt lat="41.636426247" lon="2.432670927">
        <ele>351.98</ele>
        <time>2014-09-07T09:41:00Z</time>
      </trkpt>
      <trkpt lat="41.636492548" lon="2.432668999">
        <ele>350.54</ele>
        <time>2014-09-07T09:41:03Z</time>
      </trkpt>
      <trkpt lat="41.636582066" lon="2.432725409">
        <ele>348.62</ele>
        <time>2014-09-07T09:41:08Z</time>
      </trkpt>
      <trkpt lat="41.636695306" lon="2.432791710">
        <ele>345.73</ele>
        <time>2014-09-07T09:41:15Z</time>
      </trkpt>
      <trkpt lat="41.636711902" lon="2.432802858">
        <ele>345.25</ele>
        <time>2014-09-07T09:41:17Z</time>
      </trkpt>
      <trkpt lat="41.636784238" lon="2.432868237">
        <ele>344.29</ele>
        <time>2014-09-07T09:41:21Z</time>
      </trkpt>
      <trkpt lat="41.636797481" lon="2.432886677">
        <ele>343.33</ele>
        <time>2014-09-07T09:41:22Z</time>
      </trkpt>
      <trkpt lat="41.636875684" lon="2.432914421">
        <ele>341.89</ele>
        <time>2014-09-07T09:41:29Z</time>
      </trkpt>
      <trkpt lat="41.636922623" lon="2.432930850">
        <ele>340.92</ele>
        <time>2014-09-07T09:41:38Z</time>
      </trkpt>
      <trkpt lat="41.636947853" lon="2.432974268">
        <ele>339.96</ele>
        <time>2014-09-07T09:41:45Z</time>
      </trkpt>
      <trkpt lat="41.636918264" lon="2.433032354">
        <ele>338.04</ele>
        <time>2014-09-07T09:41:54Z</time>
      </trkpt>
      <trkpt lat="41.636919857" lon="2.433026739">
        <ele>338.04</ele>
        <time>2014-09-07T09:42:01Z</time>
      </trkpt>
      <trkpt lat="41.636916840" lon="2.433030175">
        <ele>338.04</ele>
        <time>2014-09-07T09:42:01Z</time>
      </trkpt>
      <trkpt lat="41.636838385" lon="2.433068732">
        <ele>337.08</ele>
        <time>2014-09-07T09:42:08Z</time>
      </trkpt>
      <trkpt lat="41.636689187" lon="2.433091447">
        <ele>336.12</ele>
        <time>2014-09-07T09:42:16Z</time>
      </trkpt>
      <trkpt lat="41.636636381" lon="2.433137044">
        <ele>334.20</ele>
        <time>2014-09-07T09:42:20Z</time>
      </trkpt>
      <trkpt lat="41.636612828" lon="2.433155149">
        <ele>333.23</ele>
        <time>2014-09-07T09:42:23Z</time>
      </trkpt>
      <trkpt lat="41.636565303" lon="2.433153138">
        <ele>330.83</ele>
        <time>2014-09-07T09:42:30Z</time>
      </trkpt>
      <trkpt lat="41.636542085" lon="2.433169985">
        <ele>330.83</ele>
        <time>2014-09-07T09:42:41Z</time>
      </trkpt>
      <trkpt lat="41.636513754" lon="2.433195802">
        <ele>329.87</ele>
        <time>2014-09-07T09:42:48Z</time>
      </trkpt>
      <trkpt lat="41.636494475" lon="2.433202507">
        <ele>329.39</ele>
        <time>2014-09-07T09:42:58Z</time>
      </trkpt>
      <trkpt lat="41.636483495" lon="2.433190772">
        <ele>328.43</ele>
        <time>2014-09-07T09:43:12Z</time>
      </trkpt>
      <trkpt lat="41.636483244" lon="2.433209296">
        <ele>328.43</ele>
        <time>2014-09-07T09:43:23Z</time>
      </trkpt>
      <trkpt lat="41.636480226" lon="2.433258833">
        <ele>327.47</ele>
        <time>2014-09-07T09:43:33Z</time>
      </trkpt>
      <trkpt lat="41.636452734" lon="2.433303677">
        <ele>326.50</ele>
        <time>2014-09-07T09:43:40Z</time>
      </trkpt>
      <trkpt lat="41.636442005" lon="2.433313148">
        <ele>326.02</ele>
        <time>2014-09-07T09:43:49Z</time>
      </trkpt>
      <trkpt lat="41.636406801" lon="2.433325805">
        <ele>326.02</ele>
        <time>2014-09-07T09:43:54Z</time>
      </trkpt>
      <trkpt lat="41.636371429" lon="2.433371654">
        <ele>325.54</ele>
        <time>2014-09-07T09:44:08Z</time>
      </trkpt>
      <trkpt lat="41.636243270" lon="2.433398727">
        <ele>324.58</ele>
        <time>2014-09-07T09:44:13Z</time>
      </trkpt>
      <trkpt lat="41.636080577" lon="2.433449187">
        <ele>323.62</ele>
        <time>2014-09-07T09:44:20Z</time>
      </trkpt>
      <trkpt lat="41.636033806" lon="2.433469135">
        <ele>323.14</ele>
        <time>2014-09-07T09:44:22Z</time>
      </trkpt>
      <trkpt lat="41.636011678" lon="2.433593020">
        <ele>321.70</ele>
        <time>2014-09-07T09:44:29Z</time>
      </trkpt>
      <trkpt lat="41.636026179" lon="2.433788318">
        <ele>319.78</ele>
        <time>2014-09-07T09:44:36Z</time>
      </trkpt>
      <trkpt lat="41.636032884" lon="2.433963165">
        <ele>317.85</ele>
        <time>2014-09-07T09:44:41Z</time>
      </trkpt>
      <trkpt lat="41.636027184" lon="2.434184699">
        <ele>314.49</ele>
        <time>2014-09-07T09:44:46Z</time>
      </trkpt>
      <trkpt lat="41.636076805" lon="2.434416793">
        <ele>312.09</ele>
        <time>2014-09-07T09:44:51Z</time>
      </trkpt>
      <trkpt lat="41.636171772" lon="2.434518550">
        <ele>310.64</ele>
        <time>2014-09-07T09:44:57Z</time>
      </trkpt>
      <trkpt lat="41.636278809" lon="2.434724577">
        <ele>306.80</ele>
        <time>2014-09-07T09:45:04Z</time>
      </trkpt>
      <trkpt lat="41.636337985" lon="2.434793392">
        <ele>304.39</ele>
        <time>2014-09-07T09:45:07Z</time>
      </trkpt>
      <trkpt lat="41.636413925" lon="2.434767073">
        <ele>302.47</ele>
        <time>2014-09-07T09:45:11Z</time>
      </trkpt>
      <trkpt lat="41.636432114" lon="2.434720386">
        <ele>300.55</ele>
        <time>2014-09-07T09:45:12Z</time>
      </trkpt>
      <trkpt lat="41.636455248" lon="2.434686523">
        <ele>299.59</ele>
        <time>2014-09-07T09:45:16Z</time>
      </trkpt>
      <trkpt lat="41.636499924" lon="2.434750980">
        <ele>298.63</ele>
        <time>2014-09-07T09:45:19Z</time>
      </trkpt>
      <trkpt lat="41.636598663" lon="2.434974525">
        <ele>294.78</ele>
        <time>2014-09-07T09:45:26Z</time>
      </trkpt>
      <trkpt lat="41.636658090" lon="2.435135961">
        <ele>291.90</ele>
        <time>2014-09-07T09:45:33Z</time>
      </trkpt>
      <trkpt lat="41.636686337" lon="2.435205111">
        <ele>290.46</ele>
        <time>2014-09-07T09:45:35Z</time>
      </trkpt>
      <trkpt lat="41.636774934" lon="2.435328661">
        <ele>289.01</ele>
        <time>2014-09-07T09:45:42Z</time>
      </trkpt>
      <trkpt lat="41.636862692" lon="2.435377108">
        <ele>289.01</ele>
        <time>2014-09-07T09:45:45Z</time>
      </trkpt>
      <trkpt lat="41.636954977" lon="2.435398398">
        <ele>289.01</ele>
        <time>2014-09-07T09:45:51Z</time>
      </trkpt>
      <trkpt lat="41.636977357" lon="2.435388005">
        <ele>289.01</ele>
        <time>2014-09-07T09:46:01Z</time>
      </trkpt>
      <trkpt lat="41.636992780" lon="2.435407786">
        <ele>289.49</ele>
        <time>2014-09-07T09:46:13Z</time>
      </trkpt>
      <trkpt lat="41.637014992" lon="2.435424298">
        <ele>289.49</ele>
        <time>2014-09-07T09:46:29Z</time>
      </trkpt>
      <trkpt lat="41.637019937" lon="2.435413234">
        <ele>289.01</ele>
        <time>2014-09-07T09:46:43Z</time>
      </trkpt>
      <trkpt lat="41.637156562" lon="2.435366798">
        <ele>288.53</ele>
        <time>2014-09-07T09:46:48Z</time>
      </trkpt>
      <trkpt lat="41.637251026" lon="2.435365038">
        <ele>287.57</ele>
        <time>2014-09-07T09:46:50Z</time>
      </trkpt>
      <trkpt lat="41.637445151" lon="2.435271412">
        <ele>285.17</ele>
        <time>2014-09-07T09:46:55Z</time>
      </trkpt>
      <trkpt lat="41.637559815" lon="2.435135961">
        <ele>283.25</ele>
        <time>2014-09-07T09:46:57Z</time>
      </trkpt>
      <trkpt lat="41.637729214" lon="2.434869835">
        <ele>279.88</ele>
        <time>2014-09-07T09:47:04Z</time>
      </trkpt>
      <trkpt lat="41.638000452" lon="2.434725750">
        <ele>277.00</ele>
        <time>2014-09-07T09:47:09Z</time>
      </trkpt>
      <trkpt lat="41.638122576" lon="2.434657773">
        <ele>275.56</ele>
        <time>2014-09-07T09:47:11Z</time>
      </trkpt>
      <trkpt lat="41.638448884" lon="2.434546713">
        <ele>271.23</ele>
        <time>2014-09-07T09:47:18Z</time>
      </trkpt>
      <trkpt lat="41.638665975" lon="2.434502289">
        <ele>268.35</ele>
        <time>2014-09-07T09:47:21Z</time>
      </trkpt>
      <trkpt lat="41.638708220" lon="2.434488207">
        <ele>267.86</ele>
        <time>2014-09-07T09:47:23Z</time>
      </trkpt>
      <trkpt lat="41.638989097" lon="2.434335992">
        <ele>264.50</ele>
        <time>2014-09-07T09:47:28Z</time>
      </trkpt>
      <trkpt lat="41.639263772" lon="2.434099874">
        <ele>261.14</ele>
        <time>2014-09-07T09:47:33Z</time>
      </trkpt>
      <trkpt lat="41.639384891" lon="2.433979761">
        <ele>259.69</ele>
        <time>2014-09-07T09:47:35Z</time>
      </trkpt>
      <trkpt lat="41.639557977" lon="2.433803490">
        <ele>257.29</ele>
        <time>2014-09-07T09:47:37Z</time>
      </trkpt>
      <trkpt lat="41.639782948" lon="2.433526132">
        <ele>255.85</ele>
        <time>2014-09-07T09:47:42Z</time>
      </trkpt>
      <trkpt lat="41.639993501" lon="2.433298648">
        <ele>254.89</ele>
        <time>2014-09-07T09:47:49Z</time>
      </trkpt>
      <trkpt lat="41.640191733" lon="2.433033863">
        <ele>255.37</ele>
        <time>2014-09-07T09:47:56Z</time>
      </trkpt>
      <trkpt lat="41.640261470" lon="2.432865890">
        <ele>255.37</ele>
        <time>2014-09-07T09:48:01Z</time>
      </trkpt>
      <trkpt lat="41.640323832" lon="2.432637483">
        <ele>255.37</ele>
        <time>2014-09-07T09:48:08Z</time>
      </trkpt>
      <trkpt lat="41.640436652" lon="2.432374291">
        <ele>255.37</ele>
        <time>2014-09-07T09:48:15Z</time>
      </trkpt>
      <trkpt lat="41.640554753" lon="2.432120152">
        <ele>255.37</ele>
        <time>2014-09-07T09:48:22Z</time>
      </trkpt>
      <trkpt lat="41.640708058" lon="2.431912532">
        <ele>255.37</ele>
        <time>2014-09-07T09:48:29Z</time>
      </trkpt>
      <trkpt lat="41.640875110" lon="2.431735339">
        <ele>255.37</ele>
        <time>2014-09-07T09:48:34Z</time>
      </trkpt>
      <trkpt lat="41.641032605" lon="2.431541046">
        <ele>254.89</ele>
        <time>2014-09-07T09:48:41Z</time>
      </trkpt>
      <trkpt lat="41.641181300" lon="2.431258744">
        <ele>253.93</ele>
        <time>2014-09-07T09:48:47Z</time>
      </trkpt>
      <trkpt lat="41.641217678" lon="2.431142571">
        <ele>253.44</ele>
        <time>2014-09-07T09:48:48Z</time>
      </trkpt>
      <trkpt lat="41.641346256" lon="2.430734372">
        <ele>250.56</ele>
        <time>2014-09-07T09:48:53Z</time>
      </trkpt>
      <trkpt lat="41.641592349" lon="2.430290802">
        <ele>250.08</ele>
        <time>2014-09-07T09:48:59Z</time>
      </trkpt>
      <trkpt lat="41.641707852" lon="2.430092150">
        <ele>249.60</ele>
        <time>2014-09-07T09:49:02Z</time>
      </trkpt>
      <trkpt lat="41.641849422" lon="2.429870868">
        <ele>248.64</ele>
        <time>2014-09-07T09:49:07Z</time>
      </trkpt>
      <trkpt lat="41.642030806" lon="2.429551015">
        <ele>247.20</ele>
        <time>2014-09-07T09:49:14Z</time>
      </trkpt>
      <trkpt lat="41.642313444" lon="2.429319423">
        <ele>247.20</ele>
        <time>2014-09-07T09:49:25Z</time>
      </trkpt>
      <trkpt lat="41.642544952" lon="2.429151114">
        <ele>247.20</ele>
        <time>2014-09-07T09:49:32Z</time>
      </trkpt>
      <trkpt lat="41.642777634" lon="2.428902842">
        <ele>244.31</ele>
        <time>2014-09-07T09:49:37Z</time>
      </trkpt>
      <trkpt lat="41.642957426" lon="2.428751884">
        <ele>242.87</ele>
        <time>2014-09-07T09:49:41Z</time>
      </trkpt>
      <trkpt lat="41.643027666" lon="2.428770576">
        <ele>242.39</ele>
        <time>2014-09-07T09:49:46Z</time>
      </trkpt>
      <trkpt lat="41.643043508" lon="2.428765547">
        <ele>241.91</ele>
        <time>2014-09-07T09:49:53Z</time>
      </trkpt>
      <trkpt lat="41.643122465" lon="2.428651804">
        <ele>241.91</ele>
        <time>2014-09-07T09:50:01Z</time>
      </trkpt>
      <trkpt lat="41.643174182" lon="2.428573266">
        <ele>241.91</ele>
        <time>2014-09-07T09:50:08Z</time>
      </trkpt>
      <trkpt lat="41.643179965" lon="2.428572595">
        <ele>241.91</ele>
        <time>2014-09-07T09:50:15Z</time>
      </trkpt>
      <trkpt lat="41.643199244" lon="2.428591874">
        <ele>241.91</ele>
        <time>2014-09-07T09:50:22Z</time>
      </trkpt>
      <trkpt lat="41.643215924" lon="2.428601178">
        <ele>241.91</ele>
        <time>2014-09-07T09:50:31Z</time>
      </trkpt>
      <trkpt lat="41.643195388" lon="2.428622048">
        <ele>241.91</ele>
        <time>2014-09-07T09:50:38Z</time>
      </trkpt>
      <trkpt lat="41.643210643" lon="2.428617941">
        <ele>241.91</ele>
        <time>2014-09-07T09:50:47Z</time>
      </trkpt>
      <trkpt lat="41.643212487" lon="2.428612828">
        <ele>241.91</ele>
        <time>2014-09-07T09:51:01Z</time>
      </trkpt>
      <trkpt lat="41.643222210" lon="2.428614421">
        <ele>241.91</ele>
        <time>2014-09-07T09:51:23Z</time>
      </trkpt>
      <trkpt lat="41.643214331" lon="2.428609643">
        <ele>241.43</ele>
        <time>2014-09-07T09:51:49Z</time>
      </trkpt>
      <trkpt lat="41.643219695" lon="2.428600088">
        <ele>241.43</ele>
        <time>2014-09-07T09:52:03Z</time>
      </trkpt>
      <trkpt lat="41.643222042" lon="2.428601680">
        <ele>241.43</ele>
        <time>2014-09-07T09:52:14Z</time>
      </trkpt>
      <trkpt lat="41.643221791" lon="2.428610901">
        <ele>241.43</ele>
        <time>2014-09-07T09:52:33Z</time>
      </trkpt>
      <trkpt lat="41.643211062" lon="2.428620707">
        <ele>241.43</ele>
        <time>2014-09-07T09:52:49Z</time>
      </trkpt>
      <trkpt lat="41.643202093" lon="2.428612577">
        <ele>241.43</ele>
        <time>2014-09-07T09:53:08Z</time>
      </trkpt>
      <trkpt lat="41.643202093" lon="2.428607464">
        <ele>240.95</ele>
        <time>2014-09-07T09:53:24Z</time>
      </trkpt>
      <trkpt lat="41.643199076" lon="2.428619534">
        <ele>240.95</ele>
        <time>2014-09-07T09:53:32Z</time>
      </trkpt>
      <trkpt lat="41.643203099" lon="2.428622635">
        <ele>240.95</ele>
        <time>2014-09-07T09:53:53Z</time>
      </trkpt>
      <trkpt lat="41.643203183" lon="2.428626491">
        <ele>240.95</ele>
        <time>2014-09-07T09:54:05Z</time>
      </trkpt>
      <trkpt lat="41.643207374" lon="2.428623557">
        <ele>240.95</ele>
        <time>2014-09-07T09:54:21Z</time>
      </trkpt>
      <trkpt lat="41.643227407" lon="2.428608554">
        <ele>240.95</ele>
        <time>2014-09-07T09:54:40Z</time>
      </trkpt>
      <trkpt lat="41.643218522" lon="2.428599920">
        <ele>240.47</ele>
        <time>2014-09-07T09:55:03Z</time>
      </trkpt>
      <trkpt lat="41.643229838" lon="2.428608135">
        <ele>240.47</ele>
        <time>2014-09-07T09:55:31Z</time>
      </trkpt>
      <trkpt lat="41.643226736" lon="2.428609727">
        <ele>240.47</ele>
        <time>2014-09-07T09:55:55Z</time>
      </trkpt>
      <trkpt lat="41.643226988" lon="2.428587431">
        <ele>239.99</ele>
        <time>2014-09-07T09:56:21Z</time>
      </trkpt>
      <trkpt lat="41.643230592" lon="2.428594221">
        <ele>239.99</ele>
        <time>2014-09-07T09:56:46Z</time>
      </trkpt>
      <trkpt lat="41.643239058" lon="2.428597992">
        <ele>239.99</ele>
        <time>2014-09-07T09:57:15Z</time>
      </trkpt>
      <trkpt lat="41.643227574" lon="2.428595645">
        <ele>239.99</ele>
        <time>2014-09-07T09:57:34Z</time>
      </trkpt>
      <trkpt lat="41.643239141" lon="2.428599250">
        <ele>239.99</ele>
        <time>2014-09-07T09:58:02Z</time>
      </trkpt>
      <trkpt lat="41.643239561" lon="2.428608470">
        <ele>239.99</ele>
        <time>2014-09-07T09:58:23Z</time>
      </trkpt>
      <trkpt lat="41.643239309" lon="2.428602183">
        <ele>239.99</ele>
        <time>2014-09-07T09:58:47Z</time>
      </trkpt>
      <trkpt lat="41.643238303" lon="2.428615008">
        <ele>239.99</ele>
        <time>2014-09-07T09:59:03Z</time>
      </trkpt>
      <trkpt lat="41.643239141" lon="2.428619618">
        <ele>239.51</ele>
        <time>2014-09-07T09:59:28Z</time>
      </trkpt>
      <trkpt lat="41.643231011" lon="2.428612661">
        <ele>239.51</ele>
        <time>2014-09-07T09:59:52Z</time>
      </trkpt>
      <trkpt lat="41.643232771" lon="2.428615678">
        <ele>239.51</ele>
        <time>2014-09-07T10:00:16Z</time>
      </trkpt>
      <trkpt lat="41.643236375" lon="2.428627413">
        <ele>239.51</ele>
        <time>2014-09-07T10:00:39Z</time>
      </trkpt>
      <trkpt lat="41.643238639" lon="2.428616768">
        <ele>239.51</ele>
        <time>2014-09-07T10:01:03Z</time>
      </trkpt>
      <trkpt lat="41.643253055" lon="2.428594807">
        <ele>239.51</ele>
        <time>2014-09-07T10:01:28Z</time>
      </trkpt>
      <trkpt lat="41.643264790" lon="2.428587264">
        <ele>239.51</ele>
        <time>2014-09-07T10:01:56Z</time>
      </trkpt>
      <trkpt lat="41.643275603" lon="2.428594304">
        <ele>239.51</ele>
        <time>2014-09-07T10:02:20Z</time>
      </trkpt>
      <trkpt lat="41.643272585" lon="2.428585587">
        <ele>239.51</ele>
        <time>2014-09-07T10:02:44Z</time>
      </trkpt>
      <trkpt lat="41.643271915" lon="2.428595729">
        <ele>239.51</ele>
        <time>2014-09-07T10:03:14Z</time>
      </trkpt>
      <trkpt lat="41.643268646" lon="2.428575110">
        <ele>239.51</ele>
        <time>2014-09-07T10:03:35Z</time>
      </trkpt>
      <trkpt lat="41.643274429" lon="2.428568237">
        <ele>239.51</ele>
        <time>2014-09-07T10:03:52Z</time>
      </trkpt>
      <trkpt lat="41.643268394" lon="2.428572763">
        <ele>239.51</ele>
        <time>2014-09-07T10:04:18Z</time>
      </trkpt>
      <trkpt lat="41.643254229" lon="2.428609811">
        <ele>239.02</ele>
        <time>2014-09-07T10:04:43Z</time>
      </trkpt>
      <trkpt lat="41.643252469" lon="2.428598076">
        <ele>239.02</ele>
        <time>2014-09-07T10:05:09Z</time>
      </trkpt>
      <trkpt lat="41.643268394" lon="2.428580558">
        <ele>239.02</ele>
        <time>2014-09-07T10:05:35Z</time>
      </trkpt>
      <trkpt lat="41.643281302" lon="2.428591538">
        <ele>239.51</ele>
        <time>2014-09-07T10:06:01Z</time>
      </trkpt>
      <trkpt lat="41.643281135" lon="2.428594640">
        <ele>239.02</ele>
        <time>2014-09-07T10:06:27Z</time>
      </trkpt>
      <trkpt lat="41.643282392" lon="2.428611068">
        <ele>239.02</ele>
        <time>2014-09-07T10:06:54Z</time>
      </trkpt>
      <trkpt lat="41.643277698" lon="2.428606458">
        <ele>239.02</ele>
        <time>2014-09-07T10:07:23Z</time>
      </trkpt>
      <trkpt lat="41.643274094" lon="2.428597070">
        <ele>239.02</ele>
        <time>2014-09-07T10:07:44Z</time>
      </trkpt>
      <trkpt lat="41.643279375" lon="2.428583659">
        <ele>239.02</ele>
        <time>2014-09-07T10:08:10Z</time>
      </trkpt>
      <trkpt lat="41.643280045" lon="2.428574858">
        <ele>239.02</ele>
        <time>2014-09-07T10:08:36Z</time>
      </trkpt>
      <trkpt lat="41.643268562" lon="2.428583240">
        <ele>239.02</ele>
        <time>2014-09-07T10:08:57Z</time>
      </trkpt>
      <trkpt lat="41.643259845" lon="2.428593131">
        <ele>238.54</ele>
        <time>2014-09-07T10:09:20Z</time>
      </trkpt>
      <trkpt lat="41.643254648" lon="2.428600256">
        <ele>238.54</ele>
        <time>2014-09-07T10:09:51Z</time>
      </trkpt>
      <trkpt lat="41.643257749" lon="2.428607045">
        <ele>238.54</ele>
        <time>2014-09-07T10:10:10Z</time>
      </trkpt>
      <trkpt lat="41.643253307" lon="2.428605620">
        <ele>238.54</ele>
        <time>2014-09-07T10:10:26Z</time>
      </trkpt>
      <trkpt lat="41.643221959" lon="2.428599334">
        <ele>238.54</ele>
        <time>2014-09-07T10:10:38Z</time>
      </trkpt>
      <trkpt lat="41.643186000" lon="2.428573936">
        <ele>238.54</ele>
        <time>2014-09-07T10:10:47Z</time>
      </trkpt>
      <trkpt lat="41.643169991" lon="2.428546695">
        <ele>238.54</ele>
        <time>2014-09-07T10:10:49Z</time>
      </trkpt>
      <trkpt lat="41.643165465" lon="2.428489950">
        <ele>238.54</ele>
        <time>2014-09-07T10:10:52Z</time>
      </trkpt>
      <trkpt lat="41.643190862" lon="2.428441083">
        <ele>238.54</ele>
        <time>2014-09-07T10:11:01Z</time>
      </trkpt>
      <trkpt lat="41.643193795" lon="2.428438652">
        <ele>238.54</ele>
        <time>2014-09-07T10:11:06Z</time>
      </trkpt>
      <trkpt lat="41.643195388" lon="2.428258274">
        <ele>237.58</ele>
        <time>2014-09-07T10:11:13Z</time>
      </trkpt>
      <trkpt lat="41.643211984" lon="2.428075129">
        <ele>235.66</ele>
        <time>2014-09-07T10:11:18Z</time>
      </trkpt>
      <trkpt lat="41.643249619" lon="2.427984186">
        <ele>234.22</ele>
        <time>2014-09-07T10:11:20Z</time>
      </trkpt>
      <trkpt lat="41.643374761" lon="2.427788049">
        <ele>231.33</ele>
        <time>2014-09-07T10:11:23Z</time>
      </trkpt>
      <trkpt lat="41.643477607" lon="2.427556709">
        <ele>229.41</ele>
        <time>2014-09-07T10:11:27Z</time>
      </trkpt>
      <trkpt lat="41.643521025" lon="2.427394770">
        <ele>227.97</ele>
        <time>2014-09-07T10:11:29Z</time>
      </trkpt>
      <trkpt lat="41.643585817" lon="2.427154964">
        <ele>225.09</ele>
        <time>2014-09-07T10:11:32Z</time>
      </trkpt>
      <trkpt lat="41.643707774" lon="2.426889090">
        <ele>222.68</ele>
        <time>2014-09-07T10:11:36Z</time>
      </trkpt>
      <trkpt lat="41.643769884" lon="2.426803259">
        <ele>221.24</ele>
        <time>2014-09-07T10:11:37Z</time>
      </trkpt>
      <trkpt lat="41.643886141" lon="2.426578373">
        <ele>219.80</ele>
        <time>2014-09-07T10:11:43Z</time>
      </trkpt>
      <trkpt lat="41.643959985" lon="2.426465888">
        <ele>219.32</ele>
        <time>2014-09-07T10:11:44Z</time>
      </trkpt>
      <trkpt lat="41.644133826" lon="2.426228512">
        <ele>218.36</ele>
        <time>2014-09-07T10:11:48Z</time>
      </trkpt>
      <trkpt lat="41.644246898" lon="2.426061293">
        <ele>217.88</ele>
        <time>2014-09-07T10:11:51Z</time>
      </trkpt>
      <trkpt lat="41.644528865" lon="2.425783266">
        <ele>217.40</ele>
        <time>2014-09-07T10:12:00Z</time>
      </trkpt>
      <trkpt lat="41.644556525" lon="2.425748648">
        <ele>217.40</ele>
        <time>2014-09-07T10:12:05Z</time>
      </trkpt>
      <trkpt lat="41.644559878" lon="2.425739763">
        <ele>216.91</ele>
        <time>2014-09-07T10:12:23Z</time>
      </trkpt>
      <trkpt lat="41.644635902" lon="2.425580256">
        <ele>216.43</ele>
        <time>2014-09-07T10:12:33Z</time>
      </trkpt>
      <trkpt lat="41.644709830" lon="2.425319495">
        <ele>215.47</ele>
        <time>2014-09-07T10:12:40Z</time>
      </trkpt>
      <trkpt lat="41.644857771" lon="2.424973490">
        <ele>214.03</ele>
        <time>2014-09-07T10:12:49Z</time>
      </trkpt>
      <trkpt lat="41.644899597" lon="2.424872739">
        <ele>214.03</ele>
        <time>2014-09-07T10:12:51Z</time>
      </trkpt>
      <trkpt lat="41.644973525" lon="2.424653888">
        <ele>213.55</ele>
        <time>2014-09-07T10:12:54Z</time>
      </trkpt>
      <trkpt lat="41.645133368" lon="2.424140329">
        <ele>211.63</ele>
        <time>2014-09-07T10:13:03Z</time>
      </trkpt>
      <trkpt lat="41.645195562" lon="2.423992975">
        <ele>210.67</ele>
        <time>2014-09-07T10:13:06Z</time>
      </trkpt>
      <trkpt lat="41.645287427" lon="2.423838999">
        <ele>209.70</ele>
        <time>2014-09-07T10:13:15Z</time>
      </trkpt>
      <trkpt lat="41.645359512" lon="2.423671277">
        <ele>209.22</ele>
        <time>2014-09-07T10:13:22Z</time>
      </trkpt>
      <trkpt lat="41.645493622" lon="2.423414707">
        <ele>208.74</ele>
        <time>2014-09-07T10:13:29Z</time>
      </trkpt>
      <trkpt lat="41.645648100" lon="2.423269281">
        <ele>208.26</ele>
        <time>2014-09-07T10:13:36Z</time>
      </trkpt>
      <trkpt lat="41.645778188" lon="2.423201472">
        <ele>207.30</ele>
        <time>2014-09-07T10:13:41Z</time>
      </trkpt>
      <trkpt lat="41.645918082" lon="2.422973400">
        <ele>206.82</ele>
        <time>2014-09-07T10:13:46Z</time>
      </trkpt>
      <trkpt lat="41.645900815" lon="2.422606105">
        <ele>206.82</ele>
        <time>2014-09-07T10:13:52Z</time>
      </trkpt>
      <trkpt lat="41.645792185" lon="2.422352133">
        <ele>205.38</ele>
        <time>2014-09-07T10:13:55Z</time>
      </trkpt>
      <trkpt lat="41.645746839" lon="2.422132779">
        <ele>205.38</ele>
        <time>2014-09-07T10:14:00Z</time>
      </trkpt>
      <trkpt lat="41.645791096" lon="2.421922980">
        <ele>205.38</ele>
        <time>2014-09-07T10:14:07Z</time>
      </trkpt>
      <trkpt lat="41.645928559" lon="2.421778560">
        <ele>205.38</ele>
        <time>2014-09-07T10:14:14Z</time>
      </trkpt>
      <trkpt lat="41.646128300" lon="2.421608910">
        <ele>205.38</ele>
        <time>2014-09-07T10:14:23Z</time>
      </trkpt>
      <trkpt lat="41.646347403" lon="2.421494832">
        <ele>205.38</ele>
        <time>2014-09-07T10:14:30Z</time>
      </trkpt>
      <trkpt lat="41.646455781" lon="2.421606982">
        <ele>205.38</ele>
        <time>2014-09-07T10:14:35Z</time>
      </trkpt>
      <trkpt lat="41.646530883" lon="2.421898756">
        <ele>204.90</ele>
        <time>2014-09-07T10:14:42Z</time>
      </trkpt>
      <trkpt lat="41.646555106" lon="2.422000932">
        <ele>204.42</ele>
        <time>2014-09-07T10:14:44Z</time>
      </trkpt>
      <trkpt lat="41.646749902" lon="2.422507031">
        <ele>202.49</ele>
        <time>2014-09-07T10:14:51Z</time>
      </trkpt>
      <trkpt lat="41.646967328" lon="2.422950937">
        <ele>202.49</ele>
        <time>2014-09-07T10:15:00Z</time>
      </trkpt>
      <trkpt lat="41.647130356" lon="2.423260732">
        <ele>203.94</ele>
        <time>2014-09-07T10:15:08Z</time>
      </trkpt>
      <trkpt lat="41.647364463" lon="2.423625428">
        <ele>205.38</ele>
        <time>2014-09-07T10:15:19Z</time>
      </trkpt>
      <trkpt lat="41.647607706" lon="2.423773034">
        <ele>205.86</ele>
        <time>2014-09-07T10:15:27Z</time>
      </trkpt>
      <trkpt lat="41.647898725" lon="2.423905300">
        <ele>206.34</ele>
        <time>2014-09-07T10:15:38Z</time>
      </trkpt>
      <trkpt lat="41.648080445" lon="2.424129684">
        <ele>206.34</ele>
        <time>2014-09-07T10:15:45Z</time>
      </trkpt>
      <trkpt lat="41.648144147" lon="2.424274607">
        <ele>206.34</ele>
        <time>2014-09-07T10:15:50Z</time>
      </trkpt>
      <trkpt lat="41.648178010" lon="2.424371082">
        <ele>206.82</ele>
        <time>2014-09-07T10:15:55Z</time>
      </trkpt>
      <trkpt lat="41.648290412" lon="2.424559675">
        <ele>207.30</ele>
        <time>2014-09-07T10:16:04Z</time>
      </trkpt>
      <trkpt lat="41.648453440" lon="2.424719267">
        <ele>207.30</ele>
        <time>2014-09-07T10:16:11Z</time>
      </trkpt>
      <trkpt lat="41.648598782" lon="2.424967539">
        <ele>207.78</ele>
        <time>2014-09-07T10:16:18Z</time>
      </trkpt>
      <trkpt lat="41.648677069" lon="2.425384119">
        <ele>207.78</ele>
        <time>2014-09-07T10:16:27Z</time>
      </trkpt>
      <trkpt lat="41.648724007" lon="2.425697100">
        <ele>208.26</ele>
        <time>2014-09-07T10:16:34Z</time>
      </trkpt>
      <trkpt lat="41.648826518" lon="2.426043021">
        <ele>209.22</ele>
        <time>2014-09-07T10:16:42Z</time>
      </trkpt>
      <trkpt lat="41.648966999" lon="2.426142430">
        <ele>209.22</ele>
        <time>2014-09-07T10:16:48Z</time>
      </trkpt>
      <trkpt lat="41.649237986" lon="2.426318534">
        <ele>209.70</ele>
        <time>2014-09-07T10:16:56Z</time>
      </trkpt>
      <trkpt lat="41.649319374" lon="2.426602764">
        <ele>209.70</ele>
        <time>2014-09-07T10:17:03Z</time>
      </trkpt>
      <trkpt lat="41.649363714" lon="2.426976010">
        <ele>210.19</ele>
        <time>2014-09-07T10:17:12Z</time>
      </trkpt>
      <trkpt lat="41.649407133" lon="2.427331654">
        <ele>210.19</ele>
        <time>2014-09-07T10:17:21Z</time>
      </trkpt>
      <trkpt lat="41.649448455" lon="2.427710181">
        <ele>210.67</ele>
        <time>2014-09-07T10:17:29Z</time>
      </trkpt>
      <trkpt lat="41.649440660" lon="2.427968009">
        <ele>210.67</ele>
        <time>2014-09-07T10:17:36Z</time>
      </trkpt>
      <trkpt lat="41.649412497" lon="2.428346200">
        <ele>211.15</ele>
        <time>2014-09-07T10:17:43Z</time>
      </trkpt>
      <trkpt lat="41.649383915" lon="2.428754063">
        <ele>211.63</ele>
        <time>2014-09-07T10:17:54Z</time>
      </trkpt>
      <trkpt lat="41.649332869" lon="2.429069474">
        <ele>212.11</ele>
        <time>2014-09-07T10:18:01Z</time>
      </trkpt>
      <trkpt lat="41.649185934" lon="2.429337695">
        <ele>212.11</ele>
        <time>2014-09-07T10:18:09Z</time>
      </trkpt>
      <trkpt lat="41.648931376" lon="2.429485301">
        <ele>212.59</ele>
        <time>2014-09-07T10:18:16Z</time>
      </trkpt>
      <trkpt lat="41.648752925" lon="2.429532072">
        <ele>213.55</ele>
        <time>2014-09-07T10:18:23Z</time>
      </trkpt>
      <trkpt lat="41.648451679" lon="2.429615304">
        <ele>215.47</ele>
        <time>2014-09-07T10:18:34Z</time>
      </trkpt>
      <trkpt lat="41.648171221" lon="2.429694597">
        <ele>216.43</ele>
        <time>2014-09-07T10:18:44Z</time>
      </trkpt>
      <trkpt lat="41.647895373" lon="2.429803310">
        <ele>216.43</ele>
        <time>2014-09-07T10:18:55Z</time>
      </trkpt>
      <trkpt lat="41.647857570" lon="2.429915376">
        <ele>216.43</ele>
        <time>2014-09-07T10:19:02Z</time>
      </trkpt>
      <trkpt lat="41.647897133" lon="2.430097683">
        <ele>214.99</ele>
        <time>2014-09-07T10:19:07Z</time>
      </trkpt>
      <trkpt lat="41.648012803" lon="2.430491213">
        <ele>213.55</ele>
        <time>2014-09-07T10:19:14Z</time>
      </trkpt>
      <trkpt lat="41.648125372" lon="2.431074174">
        <ele>212.59</ele>
        <time>2014-09-07T10:19:23Z</time>
      </trkpt>
      <trkpt lat="41.648242467" lon="2.431699716">
        <ele>212.11</ele>
        <time>2014-09-07T10:19:33Z</time>
      </trkpt>
      <trkpt lat="41.648375823" lon="2.432468001">
        <ele>212.11</ele>
        <time>2014-09-07T10:19:45Z</time>
      </trkpt>
      <trkpt lat="41.648453272" lon="2.433023134">
        <ele>212.11</ele>
        <time>2014-09-07T10:19:54Z</time>
      </trkpt>
      <trkpt lat="41.648536001" lon="2.433567371">
        <ele>212.11</ele>
        <time>2014-09-07T10:20:03Z</time>
      </trkpt>
      <trkpt lat="41.648617306" lon="2.434090151">
        <ele>212.11</ele>
        <time>2014-09-07T10:20:11Z</time>
      </trkpt>
      <trkpt lat="41.648694922" lon="2.434630364">
        <ele>214.03</ele>
        <time>2014-09-07T10:20:22Z</time>
      </trkpt>
      <trkpt lat="41.648709926" lon="2.434732875">
        <ele>214.03</ele>
        <time>2014-09-07T10:20:24Z</time>
      </trkpt>
      <trkpt lat="41.648757032" lon="2.435354645">
        <ele>214.03</ele>
        <time>2014-09-07T10:20:34Z</time>
      </trkpt>
      <trkpt lat="41.648793242" lon="2.435700230">
        <ele>214.03</ele>
        <time>2014-09-07T10:20:41Z</time>
      </trkpt>
      <trkpt lat="41.648918300" lon="2.435852446">
        <ele>212.59</ele>
        <time>2014-09-07T10:20:46Z</time>
      </trkpt>
      <trkpt lat="41.648950989" lon="2.435838364">
        <ele>212.59</ele>
        <time>2014-09-07T10:20:46Z</time>
      </trkpt>
      <trkpt lat="41.649019470" lon="2.435769465">
        <ele>212.11</ele>
        <time>2014-09-07T10:20:48Z</time>
      </trkpt>
      <trkpt lat="41.649346615" lon="2.435415246">
        <ele>211.15</ele>
        <time>2014-09-07T10:20:57Z</time>
      </trkpt>
      <trkpt lat="41.649391794" lon="2.435368139">
        <ele>211.15</ele>
        <time>2014-09-07T10:20:58Z</time>
      </trkpt>
      <trkpt lat="41.649542249" lon="2.435448187">
        <ele>211.15</ele>
        <time>2014-09-07T10:21:02Z</time>
      </trkpt>
      <trkpt lat="41.649562701" lon="2.435488839">
        <ele>211.15</ele>
        <time>2014-09-07T10:21:02Z</time>
      </trkpt>
      <trkpt lat="41.649593462" lon="2.435618675">
        <ele>212.59</ele>
        <time>2014-09-07T10:21:05Z</time>
      </trkpt>
      <trkpt lat="41.649658171" lon="2.435955124">
        <ele>213.55</ele>
        <time>2014-09-07T10:21:12Z</time>
      </trkpt>
      <trkpt lat="41.649737128" lon="2.436244048">
        <ele>214.51</ele>
        <time>2014-09-07T10:21:19Z</time>
      </trkpt>
      <trkpt lat="41.649808542" lon="2.436604889">
        <ele>215.47</ele>
        <time>2014-09-07T10:21:28Z</time>
      </trkpt>
      <trkpt lat="41.649869814" lon="2.436905213">
        <ele>217.40</ele>
        <time>2014-09-07T10:21:37Z</time>
      </trkpt>
      <trkpt lat="41.649922284" lon="2.437118868">
        <ele>217.88</ele>
        <time>2014-09-07T10:21:42Z</time>
      </trkpt>
      <trkpt lat="41.650024627" lon="2.437511979">
        <ele>218.36</ele>
        <time>2014-09-07T10:21:52Z</time>
      </trkpt>
      <trkpt lat="41.650144572" lon="2.437884051">
        <ele>218.84</ele>
        <time>2014-09-07T10:22:01Z</time>
      </trkpt>
      <trkpt lat="41.650277342" lon="2.438353438">
        <ele>219.32</ele>
        <time>2014-09-07T10:22:11Z</time>
      </trkpt>
      <trkpt lat="41.650363592" lon="2.438687792">
        <ele>220.28</ele>
        <time>2014-09-07T10:22:20Z</time>
      </trkpt>
      <trkpt lat="41.650488230" lon="2.439049471">
        <ele>221.72</ele>
        <time>2014-09-07T10:22:29Z</time>
      </trkpt>
      <trkpt lat="41.650589651" lon="2.439423220">
        <ele>222.20</ele>
        <time>2014-09-07T10:22:38Z</time>
      </trkpt>
      <trkpt lat="41.650744381" lon="2.439892775">
        <ele>223.64</ele>
        <time>2014-09-07T10:22:48Z</time>
      </trkpt>
      <trkpt lat="41.650853598" lon="2.440228973">
        <ele>223.64</ele>
        <time>2014-09-07T10:22:57Z</time>
      </trkpt>
      <trkpt lat="41.650976057" lon="2.440600626">
        <ele>224.61</ele>
        <time>2014-09-07T10:23:04Z</time>
      </trkpt>
      <trkpt lat="41.651037245" lon="2.440735659">
        <ele>224.61</ele>
        <time>2014-09-07T10:23:07Z</time>
      </trkpt>
      <trkpt lat="41.651190299" lon="2.441150898">
        <ele>224.61</ele>
        <time>2014-09-07T10:23:16Z</time>
      </trkpt>
      <trkpt lat="41.651382077" lon="2.441507548">
        <ele>225.09</ele>
        <time>2014-09-07T10:23:25Z</time>
      </trkpt>
      <trkpt lat="41.651525323" lon="2.441825893">
        <ele>225.57</ele>
        <time>2014-09-07T10:23:33Z</time>
      </trkpt>
      <trkpt lat="41.651724813" lon="2.442316905">
        <ele>226.05</ele>
        <time>2014-09-07T10:23:46Z</time>
      </trkpt>
      <trkpt lat="41.651756329" lon="2.442395359">
        <ele>226.53</ele>
        <time>2014-09-07T10:23:47Z</time>
      </trkpt>
      <trkpt lat="41.651696063" lon="2.442530895">
        <ele>227.01</ele>
        <time>2014-09-07T10:23:53Z</time>
      </trkpt>
      <trkpt lat="41.651416023" lon="2.442746896">
        <ele>228.45</ele>
        <time>2014-09-07T10:24:03Z</time>
      </trkpt>
      <trkpt lat="41.651235980" lon="2.442874720">
        <ele>229.89</ele>
        <time>2014-09-07T10:24:10Z</time>
      </trkpt>
      <trkpt lat="41.651021906" lon="2.443036407">
        <ele>230.37</ele>
        <time>2014-09-07T10:24:19Z</time>
      </trkpt>
      <trkpt lat="41.650794924" lon="2.443233717">
        <ele>231.33</ele>
        <time>2014-09-07T10:24:27Z</time>
      </trkpt>
      <trkpt lat="41.650630639" lon="2.443379479">
        <ele>233.74</ele>
        <time>2014-09-07T10:24:36Z</time>
      </trkpt>
      <trkpt lat="41.650563835" lon="2.443428932">
        <ele>234.70</ele>
        <time>2014-09-07T10:24:40Z</time>
      </trkpt>
      <trkpt lat="41.650455290" lon="2.443402445">
        <ele>235.66</ele>
        <time>2014-09-07T10:24:45Z</time>
      </trkpt>
      <trkpt lat="41.650306930" lon="2.443169177">
        <ele>238.06</ele>
        <time>2014-09-07T10:24:55Z</time>
      </trkpt>
      <trkpt lat="41.650153290" lon="2.443024840">
        <ele>239.02</ele>
        <time>2014-09-07T10:25:02Z</time>
      </trkpt>
      <trkpt lat="41.649995961" lon="2.443054345">
        <ele>239.99</ele>
        <time>2014-09-07T10:25:11Z</time>
      </trkpt>
      <trkpt lat="41.649936282" lon="2.443155849">
        <ele>240.95</ele>
        <time>2014-09-07T10:25:18Z</time>
      </trkpt>
      <trkpt lat="41.649920273" lon="2.443214271">
        <ele>240.95</ele>
        <time>2014-09-07T10:25:21Z</time>
      </trkpt>
      <trkpt lat="41.649925134" lon="2.443296582">
        <ele>241.91</ele>
        <time>2014-09-07T10:25:27Z</time>
      </trkpt>
      <trkpt lat="41.649941730" lon="2.443363972">
        <ele>241.91</ele>
        <time>2014-09-07T10:25:30Z</time>
      </trkpt>
      <trkpt lat="41.649978695" lon="2.443572262">
        <ele>242.39</ele>
        <time>2014-09-07T10:25:42Z</time>
      </trkpt>
      <trkpt lat="41.649976012" lon="2.443610065">
        <ele>242.39</ele>
        <time>2014-09-07T10:25:44Z</time>
      </trkpt>
      <trkpt lat="41.650007864" lon="2.443598163">
        <ele>242.39</ele>
        <time>2014-09-07T10:25:49Z</time>
      </trkpt>
      <trkpt lat="41.649999314" lon="2.443574693">
        <ele>242.39</ele>
        <time>2014-09-07T10:25:49Z</time>
      </trkpt>
      <trkpt lat="41.649911723" lon="2.443320302">
        <ele>242.39</ele>
        <time>2014-09-07T10:25:58Z</time>
      </trkpt>
      <trkpt lat="41.649888421" lon="2.443213768">
        <ele>242.39</ele>
        <time>2014-09-07T10:26:00Z</time>
      </trkpt>
      <trkpt lat="41.649844416" lon="2.443191053">
        <ele>240.95</ele>
        <time>2014-09-07T10:26:03Z</time>
      </trkpt>
      <trkpt lat="41.649821534" lon="2.443218798">
        <ele>240.95</ele>
        <time>2014-09-07T10:26:05Z</time>
      </trkpt>
      <trkpt lat="41.649736960" lon="2.443283841">
        <ele>242.39</ele>
        <time>2014-09-07T10:26:12Z</time>
      </trkpt>
      <trkpt lat="41.649682562" lon="2.443432536">
        <ele>242.87</ele>
        <time>2014-09-07T10:26:17Z</time>
      </trkpt>
      <trkpt lat="41.649661691" lon="2.443596738">
        <ele>243.83</ele>
        <time>2014-09-07T10:26:24Z</time>
      </trkpt>
      <trkpt lat="41.649668480" lon="2.443788096">
        <ele>245.27</ele>
        <time>2014-09-07T10:26:31Z</time>
      </trkpt>
      <trkpt lat="41.649722460" lon="2.444031172">
        <ele>247.68</ele>
        <time>2014-09-07T10:26:40Z</time>
      </trkpt>
      <trkpt lat="41.649681556" lon="2.444188835">
        <ele>248.16</ele>
        <time>2014-09-07T10:26:47Z</time>
      </trkpt>
      <trkpt lat="41.649582482" lon="2.444362424">
        <ele>249.60</ele>
        <time>2014-09-07T10:26:54Z</time>
      </trkpt>
      <trkpt lat="41.649443845" lon="2.444595190">
        <ele>251.04</ele>
        <time>2014-09-07T10:27:04Z</time>
      </trkpt>
      <trkpt lat="41.649355500" lon="2.444782777">
        <ele>252.00</ele>
        <time>2014-09-07T10:27:13Z</time>
      </trkpt>
      <trkpt lat="41.649263970" lon="2.444986876">
        <ele>253.93</ele>
        <time>2014-09-07T10:27:22Z</time>
      </trkpt>
      <trkpt lat="41.649205967" lon="2.445187036">
        <ele>255.85</ele>
        <time>2014-09-07T10:27:30Z</time>
      </trkpt>
      <trkpt lat="41.649124998" lon="2.445384933">
        <ele>257.77</ele>
        <time>2014-09-07T10:27:39Z</time>
      </trkpt>
      <trkpt lat="41.649039083" lon="2.445566904">
        <ele>259.69</ele>
        <time>2014-09-07T10:27:48Z</time>
      </trkpt>
      <trkpt lat="41.648927939" lon="2.445761616">
        <ele>261.62</ele>
        <time>2014-09-07T10:27:58Z</time>
      </trkpt>
      <trkpt lat="41.648853676" lon="2.445922632">
        <ele>262.58</ele>
        <time>2014-09-07T10:28:07Z</time>
      </trkpt>
      <trkpt lat="41.648782932" lon="2.446090773">
        <ele>263.54</ele>
        <time>2014-09-07T10:28:16Z</time>
      </trkpt>
      <trkpt lat="41.648688636" lon="2.446263692">
        <ele>264.98</ele>
        <time>2014-09-07T10:28:26Z</time>
      </trkpt>
      <trkpt lat="41.648594591" lon="2.446458738">
        <ele>266.42</ele>
        <time>2014-09-07T10:28:35Z</time>
      </trkpt>
      <trkpt lat="41.648481016" lon="2.446601315">
        <ele>267.38</ele>
        <time>2014-09-07T10:28:45Z</time>
      </trkpt>
      <trkpt lat="41.648311534" lon="2.446635429">
        <ele>266.90</ele>
        <time>2014-09-07T10:28:52Z</time>
      </trkpt>
      <trkpt lat="41.648169712" lon="2.446705250">
        <ele>268.35</ele>
        <time>2014-09-07T10:29:01Z</time>
      </trkpt>
      <trkpt lat="41.648007019" lon="2.446761074">
        <ele>269.79</ele>
        <time>2014-09-07T10:29:11Z</time>
      </trkpt>
      <trkpt lat="41.647958237" lon="2.446777251">
        <ele>270.27</ele>
        <time>2014-09-07T10:29:13Z</time>
      </trkpt>
      <trkpt lat="41.647821193" lon="2.446871044">
        <ele>272.19</ele>
        <time>2014-09-07T10:29:22Z</time>
      </trkpt>
      <trkpt lat="41.647694877" lon="2.447043292">
        <ele>273.63</ele>
        <time>2014-09-07T10:29:32Z</time>
      </trkpt>
      <trkpt lat="41.647636120" lon="2.447211601">
        <ele>274.11</ele>
        <time>2014-09-07T10:29:41Z</time>
      </trkpt>
      <trkpt lat="41.647555905" lon="2.447425340">
        <ele>275.56</ele>
        <time>2014-09-07T10:29:51Z</time>
      </trkpt>
      <trkpt lat="41.647506452" lon="2.447510416">
        <ele>276.52</ele>
        <time>2014-09-07T10:29:55Z</time>
      </trkpt>
      <trkpt lat="41.647408384" lon="2.447656848">
        <ele>277.48</ele>
        <time>2014-09-07T10:30:04Z</time>
      </trkpt>
      <trkpt lat="41.647352309" lon="2.447744019">
        <ele>277.96</ele>
        <time>2014-09-07T10:30:09Z</time>
      </trkpt>
      <trkpt lat="41.647279554" lon="2.447857594">
        <ele>278.92</ele>
        <time>2014-09-07T10:30:16Z</time>
      </trkpt>
      <trkpt lat="41.647174110" lon="2.448014252">
        <ele>280.84</ele>
        <time>2014-09-07T10:30:24Z</time>
      </trkpt>
      <trkpt lat="41.647164471" lon="2.448034452">
        <ele>280.84</ele>
        <time>2014-09-07T10:30:26Z</time>
      </trkpt>
      <trkpt lat="41.647023068" lon="2.448194882">
        <ele>283.25</ele>
        <time>2014-09-07T10:30:37Z</time>
      </trkpt>
      <trkpt lat="41.646913097" lon="2.448288424">
        <ele>284.21</ele>
        <time>2014-09-07T10:30:45Z</time>
      </trkpt>
      <trkpt lat="41.646790638" lon="2.448372746">
        <ele>286.13</ele>
        <time>2014-09-07T10:30:52Z</time>
      </trkpt>
      <trkpt lat="41.646640099" lon="2.448424127">
        <ele>287.09</ele>
        <time>2014-09-07T10:31:01Z</time>
      </trkpt>
      <trkpt lat="41.646490230" lon="2.448485650">
        <ele>289.01</ele>
        <time>2014-09-07T10:31:12Z</time>
      </trkpt>
      <trkpt lat="41.646366849" lon="2.448528063">
        <ele>289.97</ele>
        <time>2014-09-07T10:31:20Z</time>
      </trkpt>
      <trkpt lat="41.646254447" lon="2.448591514">
        <ele>291.42</ele>
        <time>2014-09-07T10:31:27Z</time>
      </trkpt>
      <trkpt lat="41.646136514" lon="2.448675584">
        <ele>292.86</ele>
        <time>2014-09-07T10:31:36Z</time>
      </trkpt>
      <trkpt lat="41.645990753" lon="2.448641470">
        <ele>293.34</ele>
        <time>2014-09-07T10:31:43Z</time>
      </trkpt>
      <trkpt lat="41.645930487" lon="2.448512640">
        <ele>293.82</ele>
        <time>2014-09-07T10:31:50Z</time>
      </trkpt>
      <trkpt lat="41.645908610" lon="2.448290100">
        <ele>294.78</ele>
        <time>2014-09-07T10:32:00Z</time>
      </trkpt>
      <trkpt lat="41.645908526" lon="2.448105615">
        <ele>295.74</ele>
        <time>2014-09-07T10:32:09Z</time>
      </trkpt>
      <trkpt lat="41.645974324" lon="2.447977288">
        <ele>296.70</ele>
        <time>2014-09-07T10:32:16Z</time>
      </trkpt>
      <trkpt lat="41.646087228" lon="2.447862372">
        <ele>298.15</ele>
        <time>2014-09-07T10:32:23Z</time>
      </trkpt>
      <trkpt lat="41.646207090" lon="2.447777379">
        <ele>299.59</ele>
        <time>2014-09-07T10:32:32Z</time>
      </trkpt>
      <trkpt lat="41.646199546" lon="2.447628768">
        <ele>300.55</ele>
        <time>2014-09-07T10:32:39Z</time>
      </trkpt>
      <trkpt lat="41.646113212" lon="2.447607562">
        <ele>301.03</ele>
        <time>2014-09-07T10:32:44Z</time>
      </trkpt>
      <trkpt lat="41.646012378" lon="2.447642263">
        <ele>302.47</ele>
        <time>2014-09-07T10:32:51Z</time>
      </trkpt>
      <trkpt lat="41.645946329" lon="2.447664643">
        <ele>303.43</ele>
        <time>2014-09-07T10:32:56Z</time>
      </trkpt>
      <trkpt lat="41.645808111" lon="2.447738823">
        <ele>304.88</ele>
        <time>2014-09-07T10:33:06Z</time>
      </trkpt>
      <trkpt lat="41.645692189" lon="2.447774362">
        <ele>305.84</ele>
        <time>2014-09-07T10:33:15Z</time>
      </trkpt>
      <trkpt lat="41.645532933" lon="2.447850553">
        <ele>307.76</ele>
        <time>2014-09-07T10:33:24Z</time>
      </trkpt>
      <trkpt lat="41.645365295" lon="2.447937893">
        <ele>309.20</ele>
        <time>2014-09-07T10:33:34Z</time>
      </trkpt>
      <trkpt lat="41.645192544" lon="2.448020874">
        <ele>309.68</ele>
        <time>2014-09-07T10:33:45Z</time>
      </trkpt>
      <trkpt lat="41.645119621" lon="2.448123217">
        <ele>310.16</ele>
        <time>2014-09-07T10:33:52Z</time>
      </trkpt>
      <trkpt lat="41.645056925" lon="2.448240228">
        <ele>312.09</ele>
        <time>2014-09-07T10:33:59Z</time>
      </trkpt>
      <trkpt lat="41.645047369" lon="2.448310385">
        <ele>313.05</ele>
        <time>2014-09-07T10:34:04Z</time>
      </trkpt>
      <trkpt lat="41.645009483" lon="2.448462768">
        <ele>314.49</ele>
        <time>2014-09-07T10:34:11Z</time>
      </trkpt>
      <trkpt lat="41.644991378" lon="2.448499816">
        <ele>314.49</ele>
        <time>2014-09-07T10:34:13Z</time>
      </trkpt>
      <trkpt lat="41.644949720" lon="2.448670052">
        <ele>315.93</ele>
        <time>2014-09-07T10:34:23Z</time>
      </trkpt>
      <trkpt lat="41.644925245" lon="2.448787902">
        <ele>316.89</ele>
        <time>2014-09-07T10:34:28Z</time>
      </trkpt>
      <trkpt lat="41.644894986" lon="2.448910697">
        <ele>318.81</ele>
        <time>2014-09-07T10:34:35Z</time>
      </trkpt>
      <trkpt lat="41.644853412" lon="2.449053524">
        <ele>319.78</ele>
        <time>2014-09-07T10:34:42Z</time>
      </trkpt>
      <trkpt lat="41.644850898" lon="2.449288720">
        <ele>321.22</ele>
        <time>2014-09-07T10:34:51Z</time>
      </trkpt>
      <trkpt lat="41.644857687" lon="2.449331971">
        <ele>322.18</ele>
        <time>2014-09-07T10:34:53Z</time>
      </trkpt>
      <trkpt lat="41.644842935" lon="2.449543530">
        <ele>323.62</ele>
        <time>2014-09-07T10:35:03Z</time>
      </trkpt>
      <trkpt lat="41.644794823" lon="2.449703792">
        <ele>325.54</ele>
        <time>2014-09-07T10:35:12Z</time>
      </trkpt>
      <trkpt lat="41.644725504" lon="2.449816529">
        <ele>326.50</ele>
        <time>2014-09-07T10:35:19Z</time>
      </trkpt>
      <trkpt lat="41.644699018" lon="2.449872688">
        <ele>326.99</ele>
        <time>2014-09-07T10:35:24Z</time>
      </trkpt>
      <trkpt lat="41.644694240" lon="2.450061867">
        <ele>327.47</ele>
        <time>2014-09-07T10:35:33Z</time>
      </trkpt>
      <trkpt lat="41.644707567" lon="2.450215088">
        <ele>329.39</ele>
        <time>2014-09-07T10:35:42Z</time>
      </trkpt>
      <trkpt lat="41.644691390" lon="2.450371746">
        <ele>331.31</ele>
        <time>2014-09-07T10:35:50Z</time>
      </trkpt>
      <trkpt lat="41.644680326" lon="2.450495631">
        <ele>332.75</ele>
        <time>2014-09-07T10:35:59Z</time>
      </trkpt>
      <trkpt lat="41.644667669" lon="2.450618928">
        <ele>334.20</ele>
        <time>2014-09-07T10:36:06Z</time>
      </trkpt>
      <trkpt lat="41.644655180" lon="2.450797212">
        <ele>335.16</ele>
        <time>2014-09-07T10:36:15Z</time>
      </trkpt>
      <trkpt lat="41.644656940" lon="2.450848257">
        <ele>335.64</ele>
        <time>2014-09-07T10:36:18Z</time>
      </trkpt>
      <trkpt lat="41.644637411" lon="2.450923946">
        <ele>335.64</ele>
        <time>2014-09-07T10:36:22Z</time>
      </trkpt>
      <trkpt lat="41.644510089" lon="2.451098876">
        <ele>335.64</ele>
        <time>2014-09-07T10:36:30Z</time>
      </trkpt>
      <trkpt lat="41.644476813" lon="2.451150341">
        <ele>336.60</ele>
        <time>2014-09-07T10:36:34Z</time>
      </trkpt>
      <trkpt lat="41.644436664" lon="2.451317141">
        <ele>337.08</ele>
        <time>2014-09-07T10:36:42Z</time>
      </trkpt>
      <trkpt lat="41.644446303" lon="2.451343795">
        <ele>337.08</ele>
        <time>2014-09-07T10:36:44Z</time>
      </trkpt>
      <trkpt lat="41.644512939" lon="2.451506656">
        <ele>338.04</ele>
        <time>2014-09-07T10:36:51Z</time>
      </trkpt>
      <trkpt lat="41.644539175" lon="2.451731542">
        <ele>337.08</ele>
        <time>2014-09-07T10:36:56Z</time>
      </trkpt>
      <trkpt lat="41.644548730" lon="2.451815361">
        <ele>336.12</ele>
        <time>2014-09-07T10:36:58Z</time>
      </trkpt>
      <trkpt lat="41.644469102" lon="2.452044690">
        <ele>334.20</ele>
        <time>2014-09-07T10:37:03Z</time>
      </trkpt>
      <trkpt lat="41.644418894" lon="2.452127084">
        <ele>333.71</ele>
        <time>2014-09-07T10:37:07Z</time>
      </trkpt>
      <trkpt lat="41.644392324" lon="2.452150973">
        <ele>333.23</ele>
        <time>2014-09-07T10:37:09Z</time>
      </trkpt>
      <trkpt lat="41.644295680" lon="2.452331435">
        <ele>332.27</ele>
        <time>2014-09-07T10:37:14Z</time>
      </trkpt>
      <trkpt lat="41.644272379" lon="2.452622622">
        <ele>330.83</ele>
        <time>2014-09-07T10:37:19Z</time>
      </trkpt>
      <trkpt lat="41.644375308" lon="2.452990169">
        <ele>329.39</ele>
        <time>2014-09-07T10:37:24Z</time>
      </trkpt>
      <trkpt lat="41.644445465" lon="2.453123609">
        <ele>328.91</ele>
        <time>2014-09-07T10:37:26Z</time>
      </trkpt>
      <trkpt lat="41.644615115" lon="2.453575393">
        <ele>327.95</ele>
        <time>2014-09-07T10:37:35Z</time>
      </trkpt>
      <trkpt lat="41.644654342" lon="2.453853589">
        <ele>327.95</ele>
        <time>2014-09-07T10:37:40Z</time>
      </trkpt>
      <trkpt lat="41.644688456" lon="2.454174867">
        <ele>330.35</ele>
        <time>2014-09-07T10:37:49Z</time>
      </trkpt>
      <trkpt lat="41.644715781" lon="2.454382906">
        <ele>331.31</ele>
        <time>2014-09-07T10:37:56Z</time>
      </trkpt>
      <trkpt lat="41.644741011" lon="2.454563955">
        <ele>333.71</ele>
        <time>2014-09-07T10:38:04Z</time>
      </trkpt>
      <trkpt lat="41.644784178" lon="2.454725055">
        <ele>336.12</ele>
        <time>2014-09-07T10:38:13Z</time>
      </trkpt>
      <trkpt lat="41.644799349" lon="2.454775766">
        <ele>336.12</ele>
        <time>2014-09-07T10:38:15Z</time>
      </trkpt>
      <trkpt lat="41.644820304" lon="2.454878109">
        <ele>337.08</ele>
        <time>2014-09-07T10:38:20Z</time>
      </trkpt>
      <trkpt lat="41.644799265" lon="2.454954216">
        <ele>337.56</ele>
        <time>2014-09-07T10:38:25Z</time>
      </trkpt>
      <trkpt lat="41.644676219" lon="2.454998473">
        <ele>339.96</ele>
        <time>2014-09-07T10:38:34Z</time>
      </trkpt>
      <trkpt lat="41.644568260" lon="2.455004675">
        <ele>342.37</ele>
        <time>2014-09-07T10:38:43Z</time>
      </trkpt>
      <trkpt lat="41.644481675" lon="2.455028229">
        <ele>344.29</ele>
        <time>2014-09-07T10:38:51Z</time>
      </trkpt>
      <trkpt lat="41.644460133" lon="2.455045160">
        <ele>344.29</ele>
        <time>2014-09-07T10:38:53Z</time>
      </trkpt>
      <trkpt lat="41.644389558" lon="2.455114227">
        <ele>344.29</ele>
        <time>2014-09-07T10:39:00Z</time>
      </trkpt>
      <trkpt lat="41.644306493" lon="2.455220761">
        <ele>345.73</ele>
        <time>2014-09-07T10:39:09Z</time>
      </trkpt>
      <trkpt lat="41.644271205" lon="2.455291923">
        <ele>346.21</ele>
        <time>2014-09-07T10:39:14Z</time>
      </trkpt>
      <trkpt lat="41.644244383" lon="2.455409270">
        <ele>347.17</ele>
        <time>2014-09-07T10:39:21Z</time>
      </trkpt>
      <trkpt lat="41.644223093" lon="2.455501806">
        <ele>347.65</ele>
        <time>2014-09-07T10:39:28Z</time>
      </trkpt>
      <trkpt lat="41.644207670" lon="2.455526533">
        <ele>348.13</ele>
        <time>2014-09-07T10:39:30Z</time>
      </trkpt>
      <trkpt lat="41.644152685" lon="2.455624852">
        <ele>348.62</ele>
        <time>2014-09-07T10:39:37Z</time>
      </trkpt>
      <trkpt lat="41.644114464" lon="2.455664918">
        <ele>349.10</ele>
        <time>2014-09-07T10:39:40Z</time>
      </trkpt>
      <trkpt lat="41.644038440" lon="2.455749659">
        <ele>351.02</ele>
        <time>2014-09-07T10:39:47Z</time>
      </trkpt>
      <trkpt lat="41.643944982" lon="2.455790144">
        <ele>351.50</ele>
        <time>2014-09-07T10:39:56Z</time>
      </trkpt>
      <trkpt lat="41.643866695" lon="2.455795424">
        <ele>352.46</ele>
        <time>2014-09-07T10:40:03Z</time>
      </trkpt>
      <trkpt lat="41.643831574" lon="2.455814619">
        <ele>352.46</ele>
        <time>2014-09-07T10:40:06Z</time>
      </trkpt>
      <trkpt lat="41.643739876" lon="2.455824426">
        <ele>352.46</ele>
        <time>2014-09-07T10:40:13Z</time>
      </trkpt>
      <trkpt lat="41.643576765" lon="2.455781175">
        <ele>354.38</ele>
        <time>2014-09-07T10:40:24Z</time>
      </trkpt>
      <trkpt lat="41.643502166" lon="2.455722837">
        <ele>354.86</ele>
        <time>2014-09-07T10:40:31Z</time>
      </trkpt>
      <trkpt lat="41.643440307" lon="2.455648406">
        <ele>354.86</ele>
        <time>2014-09-07T10:40:39Z</time>
      </trkpt>
      <trkpt lat="41.643410887" lon="2.455623511">
        <ele>355.34</ele>
        <time>2014-09-07T10:40:41Z</time>
      </trkpt>
      <trkpt lat="41.643342407" lon="2.455561485">
        <ele>356.79</ele>
        <time>2014-09-07T10:40:48Z</time>
      </trkpt>
      <trkpt lat="41.643256827" lon="2.455555953">
        <ele>357.75</ele>
        <time>2014-09-07T10:40:55Z</time>
      </trkpt>
      <trkpt lat="41.643162447" lon="2.455512535">
        <ele>358.71</ele>
        <time>2014-09-07T10:41:02Z</time>
      </trkpt>
      <trkpt lat="41.643055326" lon="2.455385130">
        <ele>360.15</ele>
        <time>2014-09-07T10:41:11Z</time>
      </trkpt>
      <trkpt lat="41.642982404" lon="2.455259485">
        <ele>361.11</ele>
        <time>2014-09-07T10:41:19Z</time>
      </trkpt>
      <trkpt lat="41.642874361" lon="2.455167955">
        <ele>362.55</ele>
        <time>2014-09-07T10:41:28Z</time>
      </trkpt>
      <trkpt lat="41.642766654" lon="2.455157729">
        <ele>364.48</ele>
        <time>2014-09-07T10:41:35Z</time>
      </trkpt>
      <trkpt lat="41.642700437" lon="2.455213888">
        <ele>364.96</ele>
        <time>2014-09-07T10:41:42Z</time>
      </trkpt>
      <trkpt lat="41.642674034" lon="2.455220090">
        <ele>365.92</ele>
        <time>2014-09-07T10:41:46Z</time>
      </trkpt>
      <trkpt lat="41.642612343" lon="2.455253618">
        <ele>366.88</ele>
        <time>2014-09-07T10:41:53Z</time>
      </trkpt>
      <trkpt lat="41.642562219" lon="2.455294270">
        <ele>367.36</ele>
        <time>2014-09-07T10:41:56Z</time>
      </trkpt>
      <trkpt lat="41.642523914" lon="2.455441121">
        <ele>369.76</ele>
        <time>2014-09-07T10:42:06Z</time>
      </trkpt>
      <trkpt lat="41.642485441" lon="2.455561737">
        <ele>370.24</ele>
        <time>2014-09-07T10:42:13Z</time>
      </trkpt>
      <trkpt lat="41.642422241" lon="2.455662152">
        <ele>370.73</ele>
        <time>2014-09-07T10:42:20Z</time>
      </trkpt>
      <trkpt lat="41.642324508" lon="2.455730381">
        <ele>371.21</ele>
        <time>2014-09-07T10:42:29Z</time>
      </trkpt>
      <trkpt lat="41.642249155" lon="2.455887290">
        <ele>371.69</ele>
        <time>2014-09-07T10:42:34Z</time>
      </trkpt>
      <trkpt lat="41.642149829" lon="2.456071105">
        <ele>371.69</ele>
        <time>2014-09-07T10:42:41Z</time>
      </trkpt>
      <trkpt lat="41.642048325" lon="2.456221225">
        <ele>371.69</ele>
        <time>2014-09-07T10:42:48Z</time>
      </trkpt>
      <trkpt lat="41.641943383" lon="2.456254920">
        <ele>371.69</ele>
        <time>2014-09-07T10:42:55Z</time>
      </trkpt>
      <trkpt lat="41.641820169" lon="2.456365226">
        <ele>374.09</ele>
        <time>2014-09-07T10:43:04Z</time>
      </trkpt>
      <trkpt lat="41.641809273" lon="2.456440495">
        <ele>374.57</ele>
        <time>2014-09-07T10:43:07Z</time>
      </trkpt>
      <trkpt lat="41.641889655" lon="2.456574857">
        <ele>376.49</ele>
        <time>2014-09-07T10:43:16Z</time>
      </trkpt>
      <trkpt lat="41.641933325" lon="2.456677620">
        <ele>377.45</ele>
        <time>2014-09-07T10:43:23Z</time>
      </trkpt>
      <trkpt lat="41.641948999" lon="2.456739729">
        <ele>378.42</ele>
        <time>2014-09-07T10:43:27Z</time>
      </trkpt>
      <trkpt lat="41.642016222" lon="2.456859926">
        <ele>379.38</ele>
        <time>2014-09-07T10:43:35Z</time>
      </trkpt>
      <trkpt lat="41.642094509" lon="2.456988672">
        <ele>381.78</ele>
        <time>2014-09-07T10:43:44Z</time>
      </trkpt>
      <trkpt lat="41.642146728" lon="2.457062516">
        <ele>382.74</ele>
        <time>2014-09-07T10:43:51Z</time>
      </trkpt>
      <trkpt lat="41.642157708" lon="2.457073329">
        <ele>382.74</ele>
        <time>2014-09-07T10:43:51Z</time>
      </trkpt>
      <trkpt lat="41.642224261" lon="2.457157148">
        <ele>384.66</ele>
        <time>2014-09-07T10:43:58Z</time>
      </trkpt>
      <trkpt lat="41.642253430" lon="2.457204841">
        <ele>386.11</ele>
        <time>2014-09-07T10:44:03Z</time>
      </trkpt>
      <trkpt lat="41.642300452" lon="2.457267119">
        <ele>386.11</ele>
        <time>2014-09-07T10:44:07Z</time>
      </trkpt>
      <trkpt lat="41.642385361" lon="2.457384465">
        <ele>388.99</ele>
        <time>2014-09-07T10:44:17Z</time>
      </trkpt>
      <trkpt lat="41.642468928" lon="2.457464010">
        <ele>390.43</ele>
        <time>2014-09-07T10:44:24Z</time>
      </trkpt>
      <trkpt lat="41.642544282" lon="2.457546488">
        <ele>391.39</ele>
        <time>2014-09-07T10:44:31Z</time>
      </trkpt>
      <trkpt lat="41.642621982" lon="2.457674144">
        <ele>392.36</ele>
        <time>2014-09-07T10:44:40Z</time>
      </trkpt>
      <trkpt lat="41.642649558" lon="2.457737344">
        <ele>392.36</ele>
        <time>2014-09-07T10:44:45Z</time>
      </trkpt>
      <trkpt lat="41.642676213" lon="2.457861563">
        <ele>393.32</ele>
        <time>2014-09-07T10:44:54Z</time>
      </trkpt>
      <trkpt lat="41.642681577" lon="2.457992321">
        <ele>394.28</ele>
        <time>2014-09-07T10:45:01Z</time>
      </trkpt>
      <trkpt lat="41.642711249" lon="2.458140932">
        <ele>394.76</ele>
        <time>2014-09-07T10:45:09Z</time>
      </trkpt>
      <trkpt lat="41.642740754" lon="2.458266745">
        <ele>395.72</ele>
        <time>2014-09-07T10:45:16Z</time>
      </trkpt>
      <trkpt lat="41.642768246" lon="2.458413931">
        <ele>398.60</ele>
        <time>2014-09-07T10:45:25Z</time>
      </trkpt>
      <trkpt lat="41.642812586" lon="2.458531361">
        <ele>399.57</ele>
        <time>2014-09-07T10:45:32Z</time>
      </trkpt>
      <trkpt lat="41.642909230" lon="2.458634878">
        <ele>401.97</ele>
        <time>2014-09-07T10:45:42Z</time>
      </trkpt>
      <trkpt lat="41.642994306" lon="2.458737975">
        <ele>402.93</ele>
        <time>2014-09-07T10:45:51Z</time>
      </trkpt>
      <trkpt lat="41.643065301" lon="2.458837804">
        <ele>404.37</ele>
        <time>2014-09-07T10:46:00Z</time>
      </trkpt>
      <trkpt lat="41.643093967" lon="2.458871666">
        <ele>404.37</ele>
        <time>2014-09-07T10:46:03Z</time>
      </trkpt>
      <trkpt lat="41.643195304" lon="2.458987923">
        <ele>406.77</ele>
        <time>2014-09-07T10:46:12Z</time>
      </trkpt>
      <trkpt lat="41.643218857" lon="2.459045675">
        <ele>407.26</ele>
        <time>2014-09-07T10:46:17Z</time>
      </trkpt>
      <trkpt lat="41.643230424" lon="2.459168470">
        <ele>409.18</ele>
        <time>2014-09-07T10:46:26Z</time>
      </trkpt>
      <trkpt lat="41.643233107" lon="2.459181965">
        <ele>409.18</ele>
        <time>2014-09-07T10:46:28Z</time>
      </trkpt>
      <trkpt lat="41.643236962" lon="2.459321188">
        <ele>410.62</ele>
        <time>2014-09-07T10:46:36Z</time>
      </trkpt>
      <trkpt lat="41.643247775" lon="2.459433673">
        <ele>412.06</ele>
        <time>2014-09-07T10:46:45Z</time>
      </trkpt>
      <trkpt lat="41.643241321" lon="2.459556552">
        <ele>413.98</ele>
        <time>2014-09-07T10:46:54Z</time>
      </trkpt>
      <trkpt lat="41.643234867" lon="2.459584044">
        <ele>413.98</ele>
        <time>2014-09-07T10:46:56Z</time>
      </trkpt>
      <trkpt lat="41.643220534" lon="2.459700553">
        <ele>415.43</ele>
        <time>2014-09-07T10:47:04Z</time>
      </trkpt>
      <trkpt lat="41.643222126" lon="2.459726704">
        <ele>415.43</ele>
        <time>2014-09-07T10:47:06Z</time>
      </trkpt>
      <trkpt lat="41.643264790" lon="2.459889062">
        <ele>416.39</ele>
        <time>2014-09-07T10:47:17Z</time>
      </trkpt>
      <trkpt lat="41.643289433" lon="2.459977407">
        <ele>417.35</ele>
        <time>2014-09-07T10:47:24Z</time>
      </trkpt>
      <trkpt lat="41.643315752" lon="2.460114116">
        <ele>418.31</ele>
        <time>2014-09-07T10:47:32Z</time>
      </trkpt>
      <trkpt lat="41.643324469" lon="2.460135909">
        <ele>418.79</ele>
        <time>2014-09-07T10:47:34Z</time>
      </trkpt>
      <trkpt lat="41.643336120" lon="2.460259291">
        <ele>420.71</ele>
        <time>2014-09-07T10:47:43Z</time>
      </trkpt>
      <trkpt lat="41.643327738" lon="2.460386444">
        <ele>422.16</ele>
        <time>2014-09-07T10:47:51Z</time>
      </trkpt>
      <trkpt lat="41.643319692" lon="2.460522734">
        <ele>423.60</ele>
        <time>2014-09-07T10:48:00Z</time>
      </trkpt>
      <trkpt lat="41.643319524" lon="2.460642511">
        <ele>425.04</ele>
        <time>2014-09-07T10:48:09Z</time>
      </trkpt>
      <trkpt lat="41.643325475" lon="2.460784417">
        <ele>427.44</ele>
        <time>2014-09-07T10:48:19Z</time>
      </trkpt>
      <trkpt lat="41.643318686" lon="2.460908553">
        <ele>428.40</ele>
        <time>2014-09-07T10:48:26Z</time>
      </trkpt>
      <trkpt lat="41.643321619" lon="2.461058589">
        <ele>429.85</ele>
        <time>2014-09-07T10:48:35Z</time>
      </trkpt>
      <trkpt lat="41.643324721" lon="2.461072168">
        <ele>429.85</ele>
        <time>2014-09-07T10:48:37Z</time>
      </trkpt>
      <trkpt lat="41.643328073" lon="2.461195801">
        <ele>430.81</ele>
        <time>2014-09-07T10:48:45Z</time>
      </trkpt>
      <trkpt lat="41.643294630" lon="2.461369055">
        <ele>431.29</ele>
        <time>2014-09-07T10:48:54Z</time>
      </trkpt>
      <trkpt lat="41.643232939" lon="2.461535687">
        <ele>431.77</ele>
        <time>2014-09-07T10:49:03Z</time>
      </trkpt>
      <trkpt lat="41.643217684" lon="2.461603748">
        <ele>432.25</ele>
        <time>2014-09-07T10:49:06Z</time>
      </trkpt>
      <trkpt lat="41.643134368" lon="2.461751772">
        <ele>432.25</ele>
        <time>2014-09-07T10:49:13Z</time>
      </trkpt>
      <trkpt lat="41.643047699" lon="2.461875238">
        <ele>433.21</ele>
        <time>2014-09-07T10:49:22Z</time>
      </trkpt>
      <trkpt lat="41.642971424" lon="2.461946149">
        <ele>434.17</ele>
        <time>2014-09-07T10:49:27Z</time>
      </trkpt>
      <trkpt lat="41.642835553" lon="2.461995183">
        <ele>435.13</ele>
        <time>2014-09-07T10:49:36Z</time>
      </trkpt>
      <trkpt lat="41.642716865" lon="2.461999206">
        <ele>435.61</ele>
        <time>2014-09-07T10:49:43Z</time>
      </trkpt>
      <trkpt lat="41.642624832" lon="2.461994009">
        <ele>436.10</ele>
        <time>2014-09-07T10:49:48Z</time>
      </trkpt>
      <trkpt lat="41.642583593" lon="2.461998619">
        <ele>437.06</ele>
        <time>2014-09-07T10:49:53Z</time>
      </trkpt>
      <trkpt lat="41.642473119" lon="2.461997446">
        <ele>438.02</ele>
        <time>2014-09-07T10:50:00Z</time>
      </trkpt>
      <trkpt lat="41.642407824" lon="2.461994764">
        <ele>440.42</ele>
        <time>2014-09-07T10:50:07Z</time>
      </trkpt>
      <trkpt lat="41.642357701" lon="2.462010354">
        <ele>441.38</ele>
        <time>2014-09-07T10:50:12Z</time>
      </trkpt>
      <trkpt lat="41.642237672" lon="2.462116217">
        <ele>442.34</ele>
        <time>2014-09-07T10:50:23Z</time>
      </trkpt>
      <trkpt lat="41.642203138" lon="2.462245383">
        <ele>443.31</ele>
        <time>2014-09-07T10:50:32Z</time>
      </trkpt>
      <trkpt lat="41.642187799" lon="2.462388713">
        <ele>444.75</ele>
        <time>2014-09-07T10:50:42Z</time>
      </trkpt>
      <trkpt lat="41.642180004" lon="2.462553669">
        <ele>447.63</ele>
        <time>2014-09-07T10:50:53Z</time>
      </trkpt>
      <trkpt lat="41.642164330" lon="2.462704376">
        <ele>450.03</ele>
        <time>2014-09-07T10:51:03Z</time>
      </trkpt>
      <trkpt lat="41.642164246" lon="2.462723319">
        <ele>450.52</ele>
        <time>2014-09-07T10:51:05Z</time>
      </trkpt>
      <trkpt lat="41.642153685" lon="2.462746453">
        <ele>450.52</ele>
        <time>2014-09-07T10:51:06Z</time>
      </trkpt>
      <trkpt lat="41.642114374" lon="2.462886598">
        <ele>450.52</ele>
        <time>2014-09-07T10:51:15Z</time>
      </trkpt>
      <trkpt lat="41.642089144" lon="2.462987097">
        <ele>451.48</ele>
        <time>2014-09-07T10:51:20Z</time>
      </trkpt>
      <trkpt lat="41.642073805" lon="2.463051470">
        <ele>451.96</ele>
        <time>2014-09-07T10:51:24Z</time>
      </trkpt>
      <trkpt lat="41.642013875" lon="2.463171415">
        <ele>453.40</ele>
        <time>2014-09-07T10:51:34Z</time>
      </trkpt>
      <trkpt lat="41.641955202" lon="2.463274848">
        <ele>455.80</ele>
        <time>2014-09-07T10:51:43Z</time>
      </trkpt>
      <trkpt lat="41.641904156" lon="2.463359840">
        <ele>456.28</ele>
        <time>2014-09-07T10:51:50Z</time>
      </trkpt>
      <trkpt lat="41.641828132" lon="2.463473164">
        <ele>457.72</ele>
        <time>2014-09-07T10:51:59Z</time>
      </trkpt>
      <trkpt lat="41.641771303" lon="2.463529406">
        <ele>458.21</ele>
        <time>2014-09-07T10:52:06Z</time>
      </trkpt>
      <trkpt lat="41.641761496" lon="2.463537872">
        <ele>458.21</ele>
        <time>2014-09-07T10:52:06Z</time>
      </trkpt>
      <trkpt lat="41.641667535" lon="2.463643065">
        <ele>459.65</ele>
        <time>2014-09-07T10:52:16Z</time>
      </trkpt>
      <trkpt lat="41.641598719" lon="2.463807434">
        <ele>459.17</ele>
        <time>2014-09-07T10:52:23Z</time>
      </trkpt>
      <trkpt lat="41.641589751" lon="2.463949340">
        <ele>459.65</ele>
        <time>2014-09-07T10:52:30Z</time>
      </trkpt>
      <trkpt lat="41.641609700" lon="2.464175400">
        <ele>459.65</ele>
        <time>2014-09-07T10:52:39Z</time>
      </trkpt>
      <trkpt lat="41.641615483" lon="2.464327866">
        <ele>459.65</ele>
        <time>2014-09-07T10:52:46Z</time>
      </trkpt>
      <trkpt lat="41.641573406" lon="2.464481088">
        <ele>460.13</ele>
        <time>2014-09-07T10:52:53Z</time>
      </trkpt>
      <trkpt lat="41.641580447" lon="2.464663562">
        <ele>460.13</ele>
        <time>2014-09-07T10:53:00Z</time>
      </trkpt>
      <trkpt lat="41.641597462" lon="2.464780992">
        <ele>460.61</ele>
        <time>2014-09-07T10:53:05Z</time>
      </trkpt>
      <trkpt lat="41.641603245" lon="2.464965562">
        <ele>462.05</ele>
        <time>2014-09-07T10:53:15Z</time>
      </trkpt>
      <trkpt lat="41.641604838" lon="2.464997245">
        <ele>462.53</ele>
        <time>2014-09-07T10:53:17Z</time>
      </trkpt>
      <trkpt lat="41.641625709" lon="2.465183156">
        <ele>463.49</ele>
        <time>2014-09-07T10:53:26Z</time>
      </trkpt>
      <trkpt lat="41.641640796" lon="2.465347776">
        <ele>464.93</ele>
        <time>2014-09-07T10:53:36Z</time>
      </trkpt>
      <trkpt lat="41.641646245" lon="2.465489347">
        <ele>465.42</ele>
        <time>2014-09-07T10:53:43Z</time>
      </trkpt>
      <trkpt lat="41.641670133" lon="2.465671653">
        <ele>467.34</ele>
        <time>2014-09-07T10:53:54Z</time>
      </trkpt>
      <trkpt lat="41.641703074" lon="2.465825712">
        <ele>467.82</ele>
        <time>2014-09-07T10:54:01Z</time>
      </trkpt>
      <trkpt lat="41.641738948" lon="2.465970552">
        <ele>468.30</ele>
        <time>2014-09-07T10:54:09Z</time>
      </trkpt>
      <trkpt lat="41.641787480" lon="2.466141878">
        <ele>469.26</ele>
        <time>2014-09-07T10:54:18Z</time>
      </trkpt>
      <trkpt lat="41.641833245" lon="2.466301805">
        <ele>470.22</ele>
        <time>2014-09-07T10:54:27Z</time>
      </trkpt>
      <trkpt lat="41.641878088" lon="2.466464916">
        <ele>470.70</ele>
        <time>2014-09-07T10:54:34Z</time>
      </trkpt>
      <trkpt lat="41.641921339" lon="2.466696760">
        <ele>471.18</ele>
        <time>2014-09-07T10:54:44Z</time>
      </trkpt>
      <trkpt lat="41.641954196" lon="2.466877390">
        <ele>472.14</ele>
        <time>2014-09-07T10:54:53Z</time>
      </trkpt>
      <trkpt lat="41.641975570" lon="2.467040921">
        <ele>473.11</ele>
        <time>2014-09-07T10:55:00Z</time>
      </trkpt>
      <trkpt lat="41.642028962" lon="2.467233453">
        <ele>474.07</ele>
        <time>2014-09-07T10:55:09Z</time>
      </trkpt>
      <trkpt lat="41.642089061" lon="2.467363289">
        <ele>474.55</ele>
        <time>2014-09-07T10:55:16Z</time>
      </trkpt>
      <trkpt lat="41.642128958" lon="2.467429925">
        <ele>475.51</ele>
        <time>2014-09-07T10:55:19Z</time>
      </trkpt>
      <trkpt lat="41.642212610" lon="2.467631174">
        <ele>475.99</ele>
        <time>2014-09-07T10:55:29Z</time>
      </trkpt>
      <trkpt lat="41.642218561" lon="2.467651123">
        <ele>475.99</ele>
        <time>2014-09-07T10:55:31Z</time>
      </trkpt>
      <trkpt lat="41.642294585" lon="2.467808619">
        <ele>477.91</ele>
        <time>2014-09-07T10:55:40Z</time>
      </trkpt>
      <trkpt lat="41.642320401" lon="2.467903586">
        <ele>479.84</ele>
        <time>2014-09-07T10:55:45Z</time>
      </trkpt>
      <trkpt lat="41.642353593" lon="2.468045240">
        <ele>480.80</ele>
        <time>2014-09-07T10:55:52Z</time>
      </trkpt>
      <trkpt lat="41.642406567" lon="2.468237605">
        <ele>480.80</ele>
        <time>2014-09-07T10:55:59Z</time>
      </trkpt>
      <trkpt lat="41.642454512" lon="2.468391078">
        <ele>481.28</ele>
        <time>2014-09-07T10:56:08Z</time>
      </trkpt>
      <trkpt lat="41.642551993" lon="2.468586460">
        <ele>481.28</ele>
        <time>2014-09-07T10:56:13Z</time>
      </trkpt>
      <trkpt lat="41.642617540" lon="2.468786787">
        <ele>481.28</ele>
        <time>2014-09-07T10:56:20Z</time>
      </trkpt>
      <trkpt lat="41.642705298" lon="2.468995916">
        <ele>481.28</ele>
        <time>2014-09-07T10:56:29Z</time>
      </trkpt>
      <trkpt lat="41.642839157" lon="2.469212588">
        <ele>481.28</ele>
        <time>2014-09-07T10:56:37Z</time>
      </trkpt>
      <trkpt lat="41.642972262" lon="2.469427835">
        <ele>481.28</ele>
        <time>2014-09-07T10:56:48Z</time>
      </trkpt>
      <trkpt lat="41.643090027" lon="2.469620703">
        <ele>481.28</ele>
        <time>2014-09-07T10:56:55Z</time>
      </trkpt>
      <trkpt lat="41.643181474" lon="2.469760681">
        <ele>481.76</ele>
        <time>2014-09-07T10:57:02Z</time>
      </trkpt>
      <trkpt lat="41.643268562" lon="2.469928235">
        <ele>482.24</ele>
        <time>2014-09-07T10:57:09Z</time>
      </trkpt>
      <trkpt lat="41.643322793" lon="2.470121186">
        <ele>482.72</ele>
        <time>2014-09-07T10:57:16Z</time>
      </trkpt>
      <trkpt lat="41.643379538" lon="2.470317071">
        <ele>483.20</ele>
        <time>2014-09-07T10:57:24Z</time>
      </trkpt>
      <trkpt lat="41.643402756" lon="2.470528463">
        <ele>483.68</ele>
        <time>2014-09-07T10:57:33Z</time>
      </trkpt>
      <trkpt lat="41.643386663" lon="2.470724851">
        <ele>484.16</ele>
        <time>2014-09-07T10:57:40Z</time>
      </trkpt>
      <trkpt lat="41.643367552" lon="2.470941439">
        <ele>484.64</ele>
        <time>2014-09-07T10:57:47Z</time>
      </trkpt>
      <trkpt lat="41.643347184" lon="2.471209996">
        <ele>486.08</ele>
        <time>2014-09-07T10:57:58Z</time>
      </trkpt>
      <trkpt lat="41.643318015" lon="2.471419962">
        <ele>487.05</ele>
        <time>2014-09-07T10:58:06Z</time>
      </trkpt>
      <trkpt lat="41.643246015" lon="2.471566729">
        <ele>488.49</ele>
        <time>2014-09-07T10:58:13Z</time>
      </trkpt>
      <trkpt lat="41.643212487" lon="2.471764207">
        <ele>488.97</ele>
        <time>2014-09-07T10:58:22Z</time>
      </trkpt>
      <trkpt lat="41.643210727" lon="2.471934443">
        <ele>489.45</ele>
        <time>2014-09-07T10:58:29Z</time>
      </trkpt>
      <trkpt lat="41.643208548" lon="2.472043660">
        <ele>489.93</ele>
        <time>2014-09-07T10:58:32Z</time>
      </trkpt>
      <trkpt lat="41.643202848" lon="2.472231330">
        <ele>489.93</ele>
        <time>2014-09-07T10:58:39Z</time>
      </trkpt>
      <trkpt lat="41.643209470" lon="2.472409697">
        <ele>488.49</ele>
        <time>2014-09-07T10:58:43Z</time>
      </trkpt>
      <trkpt lat="41.643198992" lon="2.472564176">
        <ele>487.53</ele>
        <time>2014-09-07T10:58:46Z</time>
      </trkpt>
      <trkpt lat="41.643045520" lon="2.472696610">
        <ele>485.60</ele>
        <time>2014-09-07T10:58:52Z</time>
      </trkpt>
      <trkpt lat="41.642732791" lon="2.472837007">
        <ele>481.76</ele>
        <time>2014-09-07T10:59:00Z</time>
      </trkpt>
      <trkpt lat="41.642658611" lon="2.472975727">
        <ele>480.80</ele>
        <time>2014-09-07T10:59:04Z</time>
      </trkpt>
      <trkpt lat="41.642614773" lon="2.473142527">
        <ele>480.32</ele>
        <time>2014-09-07T10:59:07Z</time>
      </trkpt>
      <trkpt lat="41.642566661" lon="2.473827412">
        <ele>477.43</ele>
        <time>2014-09-07T10:59:16Z</time>
      </trkpt>
      <trkpt lat="41.642536235" lon="2.474143746">
        <ele>477.43</ele>
        <time>2014-09-07T10:59:21Z</time>
      </trkpt>
      <trkpt lat="41.642373878" lon="2.474303924">
        <ele>477.43</ele>
        <time>2014-09-07T10:59:25Z</time>
      </trkpt>
      <trkpt lat="41.642288885" lon="2.474368213">
        <ele>476.95</ele>
        <time>2014-09-07T10:59:28Z</time>
      </trkpt>
      <trkpt lat="41.642243204" lon="2.474589914">
        <ele>475.51</ele>
        <time>2014-09-07T10:59:33Z</time>
      </trkpt>
      <trkpt lat="41.642245132" lon="2.474726875">
        <ele>475.03</ele>
        <time>2014-09-07T10:59:35Z</time>
      </trkpt>
      <trkpt lat="41.642218980" lon="2.475187544">
        <ele>474.07</ele>
        <time>2014-09-07T10:59:42Z</time>
      </trkpt>
      <trkpt lat="41.642146728" lon="2.475414861">
        <ele>474.07</ele>
        <time>2014-09-07T10:59:47Z</time>
      </trkpt>
      <trkpt lat="41.641965679" lon="2.475573698">
        <ele>474.07</ele>
        <time>2014-09-07T10:59:54Z</time>
      </trkpt>
      <trkpt lat="41.641824109" lon="2.475789113">
        <ele>474.07</ele>
        <time>2014-09-07T11:00:01Z</time>
      </trkpt>
      <trkpt lat="41.641747749" lon="2.476015676">
        <ele>476.47</ele>
        <time>2014-09-07T11:00:10Z</time>
      </trkpt>
      <trkpt lat="41.641691339" lon="2.476221452">
        <ele>477.43</ele>
        <time>2014-09-07T11:00:17Z</time>
      </trkpt>
      <trkpt lat="41.641612298" lon="2.476522781">
        <ele>477.43</ele>
        <time>2014-09-07T11:00:24Z</time>
      </trkpt>
      <trkpt lat="41.641572987" lon="2.476844562">
        <ele>477.43</ele>
        <time>2014-09-07T11:00:31Z</time>
      </trkpt>
      <trkpt lat="41.641509703" lon="2.477171708">
        <ele>477.43</ele>
        <time>2014-09-07T11:00:40Z</time>
      </trkpt>
      <trkpt lat="41.641391602" lon="2.477513941">
        <ele>477.43</ele>
        <time>2014-09-07T11:00:48Z</time>
      </trkpt>
      <trkpt lat="41.641326559" lon="2.477853073">
        <ele>477.91</ele>
        <time>2014-09-07T11:00:57Z</time>
      </trkpt>
      <trkpt lat="41.641300323" lon="2.478140740">
        <ele>477.91</ele>
        <time>2014-09-07T11:01:04Z</time>
      </trkpt>
      <trkpt lat="41.641299401" lon="2.478201928">
        <ele>477.91</ele>
        <time>2014-09-07T11:01:06Z</time>
      </trkpt>
      <trkpt lat="41.641304095" lon="2.478342492">
        <ele>476.95</ele>
        <time>2014-09-07T11:01:07Z</time>
      </trkpt>
      <trkpt lat="41.641316920" lon="2.478699897">
        <ele>475.99</ele>
        <time>2014-09-07T11:01:13Z</time>
      </trkpt>
      <trkpt lat="41.641212816" lon="2.478950180">
        <ele>473.11</ele>
        <time>2014-09-07T11:01:18Z</time>
      </trkpt>
      <trkpt lat="41.641178953" lon="2.478981864">
        <ele>472.63</ele>
        <time>2014-09-07T11:01:20Z</time>
      </trkpt>
      <trkpt lat="41.640986840" lon="2.479129134">
        <ele>469.74</ele>
        <time>2014-09-07T11:01:23Z</time>
      </trkpt>
      <trkpt lat="41.640914588" lon="2.479247570">
        <ele>469.26</ele>
        <time>2014-09-07T11:01:25Z</time>
      </trkpt>
      <trkpt lat="41.640772683" lon="2.479498357">
        <ele>468.78</ele>
        <time>2014-09-07T11:01:30Z</time>
      </trkpt>
      <trkpt lat="41.640613426" lon="2.479715448">
        <ele>468.30</ele>
        <time>2014-09-07T11:01:34Z</time>
      </trkpt>
      <trkpt lat="41.640507982" lon="2.480053993">
        <ele>468.30</ele>
        <time>2014-09-07T11:01:39Z</time>
      </trkpt>
      <trkpt lat="41.640477220" lon="2.480284579">
        <ele>469.26</ele>
        <time>2014-09-07T11:01:46Z</time>
      </trkpt>
      <trkpt lat="41.640474957" lon="2.480297823">
        <ele>469.74</ele>
        <time>2014-09-07T11:01:48Z</time>
      </trkpt>
      <trkpt lat="41.640480070" lon="2.480288603">
        <ele>469.74</ele>
        <time>2014-09-07T11:01:58Z</time>
      </trkpt>
      <trkpt lat="41.640481663" lon="2.480279634">
        <ele>469.74</ele>
        <time>2014-09-07T11:02:15Z</time>
      </trkpt>
      <trkpt lat="41.640474371" lon="2.480281143">
        <ele>469.74</ele>
        <time>2014-09-07T11:02:29Z</time>
      </trkpt>
      <trkpt lat="41.640488368" lon="2.480281562">
        <ele>469.74</ele>
        <time>2014-09-07T11:02:45Z</time>
      </trkpt>
      <trkpt lat="41.640496499" lon="2.480287010">
        <ele>469.74</ele>
        <time>2014-09-07T11:03:01Z</time>
      </trkpt>
      <trkpt lat="41.640497756" lon="2.480281143">
        <ele>469.74</ele>
        <time>2014-09-07T11:03:15Z</time>
      </trkpt>
      <trkpt lat="41.640496666" lon="2.480345180">
        <ele>469.74</ele>
        <time>2014-09-07T11:03:25Z</time>
      </trkpt>
      <trkpt lat="41.640415949" lon="2.480467975">
        <ele>471.66</ele>
        <time>2014-09-07T11:03:30Z</time>
      </trkpt>
      <trkpt lat="41.640331627" lon="2.480592195">
        <ele>472.63</ele>
        <time>2014-09-07T11:03:37Z</time>
      </trkpt>
      <trkpt lat="41.640212436" lon="2.480807861">
        <ele>472.63</ele>
        <time>2014-09-07T11:03:44Z</time>
      </trkpt>
      <trkpt lat="41.640137167" lon="2.480937027">
        <ele>472.63</ele>
        <time>2014-09-07T11:03:48Z</time>
      </trkpt>
      <trkpt lat="41.640053180" lon="2.481083961">
        <ele>471.18</ele>
        <time>2014-09-07T11:03:51Z</time>
      </trkpt>
      <trkpt lat="41.639975731" lon="2.481469110">
        <ele>469.26</ele>
        <time>2014-09-07T11:03:55Z</time>
      </trkpt>
      <trkpt lat="41.639980341" lon="2.481633982">
        <ele>468.78</ele>
        <time>2014-09-07T11:03:58Z</time>
      </trkpt>
      <trkpt lat="41.639891745" lon="2.481979819">
        <ele>467.82</ele>
        <time>2014-09-07T11:04:03Z</time>
      </trkpt>
      <trkpt lat="41.639832820" lon="2.482049054">
        <ele>467.34</ele>
        <time>2014-09-07T11:04:05Z</time>
      </trkpt>
      <trkpt lat="41.639611538" lon="2.482358178">
        <ele>466.38</ele>
        <time>2014-09-07T11:04:12Z</time>
      </trkpt>
      <trkpt lat="41.639353291" lon="2.482570743">
        <ele>465.90</ele>
        <time>2014-09-07T11:04:19Z</time>
      </trkpt>
      <trkpt lat="41.639221611" lon="2.482609384">
        <ele>466.38</ele>
        <time>2014-09-07T11:04:26Z</time>
      </trkpt>
      <trkpt lat="41.639098397" lon="2.482663363">
        <ele>467.34</ele>
        <time>2014-09-07T11:04:31Z</time>
      </trkpt>
      <trkpt lat="41.638942662" lon="2.482618017">
        <ele>468.30</ele>
        <time>2014-09-07T11:04:40Z</time>
      </trkpt>
      <trkpt lat="41.638879127" lon="2.482467394">
        <ele>470.22</ele>
        <time>2014-09-07T11:04:47Z</time>
      </trkpt>
      <trkpt lat="41.638811066" lon="2.482280143">
        <ele>471.66</ele>
        <time>2014-09-07T11:04:56Z</time>
      </trkpt>
      <trkpt lat="41.638691121" lon="2.482195234">
        <ele>474.07</ele>
        <time>2014-09-07T11:05:04Z</time>
      </trkpt>
      <trkpt lat="41.638606044" lon="2.482215602">
        <ele>475.03</ele>
        <time>2014-09-07T11:05:11Z</time>
      </trkpt>
      <trkpt lat="41.638532116" lon="2.482308893">
        <ele>475.99</ele>
        <time>2014-09-07T11:05:18Z</time>
      </trkpt>
      <trkpt lat="41.638423487" lon="2.482441997">
        <ele>477.91</ele>
        <time>2014-09-07T11:05:29Z</time>
      </trkpt>
      <trkpt lat="41.638359365" lon="2.482521877">
        <ele>478.87</ele>
        <time>2014-09-07T11:05:36Z</time>
      </trkpt>
      <trkpt lat="41.638350564" lon="2.482532773">
        <ele>478.87</ele>
        <time>2014-09-07T11:05:37Z</time>
      </trkpt>
      <trkpt lat="41.638298764" lon="2.482602678">
        <ele>479.35</ele>
        <time>2014-09-07T11:05:43Z</time>
      </trkpt>
      <trkpt lat="41.638203881" lon="2.482697729">
        <ele>480.80</ele>
        <time>2014-09-07T11:05:51Z</time>
      </trkpt>
      <trkpt lat="41.638095000" lon="2.482799234">
        <ele>482.24</ele>
        <time>2014-09-07T11:06:02Z</time>
      </trkpt>
      <trkpt lat="41.638035907" lon="2.482904846">
        <ele>483.68</ele>
        <time>2014-09-07T11:06:11Z</time>
      </trkpt>
      <trkpt lat="41.638026771" lon="2.482989671">
        <ele>484.64</ele>
        <time>2014-09-07T11:06:16Z</time>
      </trkpt>
      <trkpt lat="41.638023754" lon="2.483142473">
        <ele>486.56</ele>
        <time>2014-09-07T11:06:26Z</time>
      </trkpt>
      <trkpt lat="41.638024173" lon="2.483245235">
        <ele>488.01</ele>
        <time>2014-09-07T11:06:33Z</time>
      </trkpt>
      <trkpt lat="41.638014785" lon="2.483335508">
        <ele>489.45</ele>
        <time>2014-09-07T11:06:38Z</time>
      </trkpt>
      <trkpt lat="41.638024676" lon="2.483493591">
        <ele>490.89</ele>
        <time>2014-09-07T11:06:49Z</time>
      </trkpt>
      <trkpt lat="41.638020988" lon="2.483670868">
        <ele>491.85</ele>
        <time>2014-09-07T11:06:59Z</time>
      </trkpt>
      <trkpt lat="41.638034818" lon="2.483754520">
        <ele>492.81</ele>
        <time>2014-09-07T11:07:05Z</time>
      </trkpt>
      <trkpt lat="41.638010594" lon="2.483910255">
        <ele>493.77</ele>
        <time>2014-09-07T11:07:15Z</time>
      </trkpt>
      <trkpt lat="41.637964158" lon="2.484017544">
        <ele>493.77</ele>
        <time>2014-09-07T11:07:22Z</time>
      </trkpt>
      <trkpt lat="41.637910095" lon="2.484202113">
        <ele>494.26</ele>
        <time>2014-09-07T11:07:31Z</time>
      </trkpt>
      <trkpt lat="41.637876148" lon="2.484385425">
        <ele>495.70</ele>
        <time>2014-09-07T11:07:41Z</time>
      </trkpt>
      <trkpt lat="41.637854607" lon="2.484556751">
        <ele>496.66</ele>
        <time>2014-09-07T11:07:50Z</time>
      </trkpt>
      <trkpt lat="41.637849913" lon="2.484639146">
        <ele>497.14</ele>
        <time>2014-09-07T11:07:55Z</time>
      </trkpt>
      <trkpt lat="41.637821666" lon="2.484696645">
        <ele>498.58</ele>
        <time>2014-09-07T11:07:59Z</time>
      </trkpt>
      <trkpt lat="41.637745474" lon="2.484867469">
        <ele>500.02</ele>
        <time>2014-09-07T11:08:09Z</time>
      </trkpt>
      <trkpt lat="41.637739523" lon="2.485057151">
        <ele>500.50</ele>
        <time>2014-09-07T11:08:19Z</time>
      </trkpt>
      <trkpt lat="41.637764334" lon="2.485239122">
        <ele>500.98</ele>
        <time>2014-09-07T11:08:28Z</time>
      </trkpt>
      <trkpt lat="41.637780595" lon="2.485503990">
        <ele>500.98</ele>
        <time>2014-09-07T11:08:37Z</time>
      </trkpt>
      <trkpt lat="41.637744133" lon="2.485813199">
        <ele>500.98</ele>
        <time>2014-09-07T11:08:44Z</time>
      </trkpt>
      <trkpt lat="41.637724939" lon="2.486117294">
        <ele>499.54</ele>
        <time>2014-09-07T11:08:49Z</time>
      </trkpt>
      <trkpt lat="41.637725609" lon="2.486446954">
        <ele>499.06</ele>
        <time>2014-09-07T11:08:58Z</time>
      </trkpt>
      <trkpt lat="41.637743547" lon="2.486659939">
        <ele>499.06</ele>
        <time>2014-09-07T11:09:03Z</time>
      </trkpt>
      <trkpt lat="41.637756287" lon="2.486978032">
        <ele>499.06</ele>
        <time>2014-09-07T11:09:12Z</time>
      </trkpt>
      <trkpt lat="41.637641036" lon="2.487115746">
        <ele>499.06</ele>
        <time>2014-09-07T11:09:17Z</time>
      </trkpt>
      <trkpt lat="41.637572220" lon="2.487127733">
        <ele>500.50</ele>
        <time>2014-09-07T11:09:20Z</time>
      </trkpt>
      <trkpt lat="41.637380359" lon="2.487112561">
        <ele>501.46</ele>
        <time>2014-09-07T11:09:29Z</time>
      </trkpt>
      <trkpt lat="41.637227221" lon="2.487113148">
        <ele>502.43</ele>
        <time>2014-09-07T11:09:36Z</time>
      </trkpt>
      <trkpt lat="41.637019937" lon="2.487185316">
        <ele>502.43</ele>
        <time>2014-09-07T11:09:43Z</time>
      </trkpt>
      <trkpt lat="41.636742747" lon="2.487207025">
        <ele>502.43</ele>
        <time>2014-09-07T11:09:50Z</time>
      </trkpt>
      <trkpt lat="41.636542085" lon="2.487173079">
        <ele>502.43</ele>
        <time>2014-09-07T11:09:57Z</time>
      </trkpt>
      <trkpt lat="41.636358772" lon="2.487109712">
        <ele>502.91</ele>
        <time>2014-09-07T11:10:04Z</time>
      </trkpt>
      <trkpt lat="41.636051240" lon="2.487064198">
        <ele>502.91</ele>
        <time>2014-09-07T11:10:14Z</time>
      </trkpt>
      <trkpt lat="41.635827611" lon="2.486980965">
        <ele>503.87</ele>
        <time>2014-09-07T11:10:23Z</time>
      </trkpt>
      <trkpt lat="41.635712611" lon="2.486886418">
        <ele>503.87</ele>
        <time>2014-09-07T11:10:28Z</time>
      </trkpt>
      <trkpt lat="41.635615717" lon="2.486878790">
        <ele>503.87</ele>
        <time>2014-09-07T11:10:35Z</time>
      </trkpt>
      <trkpt lat="41.635421256" lon="2.487026731">
        <ele>503.87</ele>
        <time>2014-09-07T11:10:44Z</time>
      </trkpt>
      <trkpt lat="41.635278010" lon="2.487113316">
        <ele>504.35</ele>
        <time>2014-09-07T11:10:51Z</time>
      </trkpt>
      <trkpt lat="41.635124034" lon="2.487118345">
        <ele>505.79</ele>
        <time>2014-09-07T11:10:58Z</time>
      </trkpt>
      <trkpt lat="41.634904847" lon="2.487130750">
        <ele>506.75</ele>
        <time>2014-09-07T11:11:07Z</time>
      </trkpt>
      <trkpt lat="41.634767971" lon="2.487107113">
        <ele>507.71</ele>
        <time>2014-09-07T11:11:15Z</time>
      </trkpt>
      <trkpt lat="41.634606955" lon="2.487107113">
        <ele>508.19</ele>
        <time>2014-09-07T11:11:22Z</time>
      </trkpt>
      <trkpt lat="41.634583485" lon="2.487131002">
        <ele>508.19</ele>
        <time>2014-09-07T11:11:22Z</time>
      </trkpt>
      <trkpt lat="41.634557753" lon="2.487243235">
        <ele>508.19</ele>
        <time>2014-09-07T11:11:26Z</time>
      </trkpt>
      <trkpt lat="41.634559848" lon="2.487421937">
        <ele>508.19</ele>
        <time>2014-09-07T11:11:35Z</time>
      </trkpt>
      <trkpt lat="41.634467899" lon="2.487588905">
        <ele>509.64</ele>
        <time>2014-09-07T11:11:45Z</time>
      </trkpt>
      <trkpt lat="41.634419619" lon="2.487714717">
        <ele>512.04</ele>
        <time>2014-09-07T11:11:52Z</time>
      </trkpt>
      <trkpt lat="41.634415847" lon="2.487731816">
        <ele>512.52</ele>
        <time>2014-09-07T11:11:52Z</time>
      </trkpt>
      <trkpt lat="41.634384834" lon="2.487781353">
        <ele>513.96</ele>
        <time>2014-09-07T11:11:57Z</time>
      </trkpt>
      <trkpt lat="41.634360778" lon="2.487894761">
        <ele>514.92</ele>
        <time>2014-09-07T11:12:04Z</time>
      </trkpt>
      <trkpt lat="41.634295986" lon="2.488008419">
        <ele>516.37</ele>
        <time>2014-09-07T11:12:13Z</time>
      </trkpt>
      <trkpt lat="41.634246114" lon="2.488093244">
        <ele>517.33</ele>
        <time>2014-09-07T11:12:20Z</time>
      </trkpt>
      <trkpt lat="41.634182495" lon="2.488151750">
        <ele>518.77</ele>
        <time>2014-09-07T11:12:27Z</time>
      </trkpt>
      <trkpt lat="41.634071267" lon="2.488217799">
        <ele>519.25</ele>
        <time>2014-09-07T11:12:36Z</time>
      </trkpt>
      <trkpt lat="41.634062131" lon="2.488227019">
        <ele>519.73</ele>
        <time>2014-09-07T11:12:37Z</time>
      </trkpt>
      <trkpt lat="41.633988957" lon="2.488323579">
        <ele>521.17</ele>
        <time>2014-09-07T11:12:46Z</time>
      </trkpt>
      <trkpt lat="41.633928020" lon="2.488451319">
        <ele>522.13</ele>
        <time>2014-09-07T11:12:55Z</time>
      </trkpt>
      <trkpt lat="41.633875131" lon="2.488549890">
        <ele>524.06</ele>
        <time>2014-09-07T11:13:03Z</time>
      </trkpt>
      <trkpt lat="41.633849650" lon="2.488635469">
        <ele>524.54</ele>
        <time>2014-09-07T11:13:09Z</time>
      </trkpt>
      <trkpt lat="41.633838418" lon="2.488714678">
        <ele>525.02</ele>
        <time>2014-09-07T11:13:14Z</time>
      </trkpt>
      <trkpt lat="41.633771363" lon="2.488823643">
        <ele>525.50</ele>
        <time>2014-09-07T11:13:24Z</time>
      </trkpt>
      <trkpt lat="41.633672289" lon="2.488868654">
        <ele>526.46</ele>
        <time>2014-09-07T11:13:33Z</time>
      </trkpt>
      <trkpt lat="41.633660219" lon="2.488876533">
        <ele>526.46</ele>
        <time>2014-09-07T11:13:33Z</time>
      </trkpt>
      <trkpt lat="41.633623925" lon="2.488943337">
        <ele>526.46</ele>
        <time>2014-09-07T11:13:38Z</time>
      </trkpt>
      <trkpt lat="41.633605820" lon="2.489136707">
        <ele>526.94</ele>
        <time>2014-09-07T11:13:47Z</time>
      </trkpt>
      <trkpt lat="41.633608670" lon="2.489412639">
        <ele>527.42</ele>
        <time>2014-09-07T11:13:54Z</time>
      </trkpt>
      <trkpt lat="41.633630044" lon="2.489509450">
        <ele>525.98</ele>
        <time>2014-09-07T11:13:57Z</time>
      </trkpt>
      <trkpt lat="41.633629960" lon="2.489557227">
        <ele>525.50</ele>
        <time>2014-09-07T11:13:57Z</time>
      </trkpt>
      <trkpt lat="41.633503980" lon="2.489667952">
        <ele>523.09</ele>
        <time>2014-09-07T11:14:01Z</time>
      </trkpt>
      <trkpt lat="41.633448324" lon="2.489667449">
        <ele>523.09</ele>
        <time>2014-09-07T11:14:03Z</time>
      </trkpt>
      <trkpt lat="41.633283620" lon="2.489640627">
        <ele>519.73</ele>
        <time>2014-09-07T11:14:06Z</time>
      </trkpt>
      <trkpt lat="41.633171973" lon="2.489639286">
        <ele>517.81</ele>
        <time>2014-09-07T11:14:08Z</time>
      </trkpt>
      <trkpt lat="41.632998216" lon="2.489582122">
        <ele>515.40</ele>
        <time>2014-09-07T11:14:11Z</time>
      </trkpt>
      <trkpt lat="41.632943231" lon="2.489554797">
        <ele>513.96</ele>
        <time>2014-09-07T11:14:13Z</time>
      </trkpt>
      <trkpt lat="41.632825297" lon="2.489522107">
        <ele>511.08</ele>
        <time>2014-09-07T11:14:15Z</time>
      </trkpt>
      <trkpt lat="41.632661263" lon="2.489677005">
        <ele>506.75</ele>
        <time>2014-09-07T11:14:20Z</time>
      </trkpt>
      <trkpt lat="41.632593454" lon="2.489891330">
        <ele>503.87</ele>
        <time>2014-09-07T11:14:24Z</time>
      </trkpt>
      <trkpt lat="41.632601249" lon="2.489975736">
        <ele>502.43</ele>
        <time>2014-09-07T11:14:25Z</time>
      </trkpt>
      <trkpt lat="41.632627820" lon="2.490070116">
        <ele>501.46</ele>
        <time>2014-09-07T11:14:27Z</time>
      </trkpt>
      <trkpt lat="41.632612648" lon="2.490245633">
        <ele>498.10</ele>
        <time>2014-09-07T11:14:32Z</time>
      </trkpt>
      <trkpt lat="41.632581719" lon="2.490306737">
        <ele>497.14</ele>
        <time>2014-09-07T11:14:34Z</time>
      </trkpt>
      <trkpt lat="41.632495637" lon="2.490287626">
        <ele>496.66</ele>
        <time>2014-09-07T11:14:37Z</time>
      </trkpt>
      <trkpt lat="41.632389774" lon="2.490087718">
        <ele>496.66</ele>
        <time>2014-09-07T11:14:46Z</time>
      </trkpt>
      <trkpt lat="41.632347696" lon="2.489828298">
        <ele>496.18</ele>
        <time>2014-09-07T11:14:51Z</time>
      </trkpt>
      <trkpt lat="41.632245102" lon="2.489806002">
        <ele>496.18</ele>
        <time>2014-09-07T11:14:57Z</time>
      </trkpt>
      <trkpt lat="41.632170084" lon="2.489888732">
        <ele>497.62</ele>
        <time>2014-09-07T11:15:02Z</time>
      </trkpt>
      <trkpt lat="41.632142843" lon="2.489925696">
        <ele>497.62</ele>
        <time>2014-09-07T11:15:05Z</time>
      </trkpt>
      <trkpt lat="41.632063131" lon="2.490018986">
        <ele>497.62</ele>
        <time>2014-09-07T11:15:07Z</time>
      </trkpt>
      <trkpt lat="41.631943521" lon="2.490061147">
        <ele>494.74</ele>
        <time>2014-09-07T11:15:11Z</time>
      </trkpt>
      <trkpt lat="41.631899097" lon="2.490076235">
        <ele>493.77</ele>
        <time>2014-09-07T11:15:12Z</time>
      </trkpt>
      <trkpt lat="41.631795832" lon="2.490111774">
        <ele>492.33</ele>
        <time>2014-09-07T11:15:14Z</time>
      </trkpt>
      <trkpt lat="41.631533981" lon="2.490135914">
        <ele>489.93</ele>
        <time>2014-09-07T11:15:19Z</time>
      </trkpt>
      <trkpt lat="41.631331139" lon="2.490186457">
        <ele>488.01</ele>
        <time>2014-09-07T11:15:23Z</time>
      </trkpt>
      <trkpt lat="41.631299539" lon="2.490170531">
        <ele>487.53</ele>
        <time>2014-09-07T11:15:24Z</time>
      </trkpt>
      <trkpt lat="41.631048753" lon="2.489981603">
        <ele>484.16</ele>
        <time>2014-09-07T11:15:30Z</time>
      </trkpt>
      <trkpt lat="41.630947080" lon="2.490002809">
        <ele>483.20</ele>
        <time>2014-09-07T11:15:33Z</time>
      </trkpt>
      <trkpt lat="41.630801151" lon="2.490196850">
        <ele>483.68</ele>
        <time>2014-09-07T11:15:42Z</time>
      </trkpt>
      <trkpt lat="41.630777598" lon="2.490334397">
        <ele>483.68</ele>
        <time>2014-09-07T11:15:45Z</time>
      </trkpt>
      <trkpt lat="41.630642063" lon="2.490413606">
        <ele>483.68</ele>
        <time>2014-09-07T11:15:49Z</time>
      </trkpt>
      <trkpt lat="41.630500996" lon="2.490495414">
        <ele>483.20</ele>
        <time>2014-09-07T11:15:56Z</time>
      </trkpt>
      <trkpt lat="41.630488339" lon="2.490506310">
        <ele>483.20</ele>
        <time>2014-09-07T11:15:56Z</time>
      </trkpt>
      <trkpt lat="41.630460930" lon="2.490716361">
        <ele>481.76</ele>
        <time>2014-09-07T11:16:03Z</time>
      </trkpt>
      <trkpt lat="41.630458164" lon="2.490761204">
        <ele>481.28</ele>
        <time>2014-09-07T11:16:03Z</time>
      </trkpt>
      <trkpt lat="41.630376440" lon="2.490985252">
        <ele>479.35</ele>
        <time>2014-09-07T11:16:10Z</time>
      </trkpt>
      <trkpt lat="41.630226656" lon="2.491155740">
        <ele>477.91</ele>
        <time>2014-09-07T11:16:15Z</time>
      </trkpt>
      <trkpt lat="41.630199918" lon="2.491172755">
        <ele>477.91</ele>
        <time>2014-09-07T11:16:15Z</time>
      </trkpt>
      <trkpt lat="41.630040745" lon="2.491255736">
        <ele>477.91</ele>
        <time>2014-09-07T11:16:22Z</time>
      </trkpt>
      <trkpt lat="41.629929685" lon="2.491227321">
        <ele>477.91</ele>
        <time>2014-09-07T11:16:29Z</time>
      </trkpt>
      <trkpt lat="41.629913759" lon="2.491215252">
        <ele>477.91</ele>
        <time>2014-09-07T11:16:29Z</time>
      </trkpt>
      <trkpt lat="41.629872772" lon="2.491135456">
        <ele>478.39</ele>
        <time>2014-09-07T11:16:36Z</time>
      </trkpt>
      <trkpt lat="41.629824744" lon="2.491086170">
        <ele>479.35</ele>
        <time>2014-09-07T11:16:46Z</time>
      </trkpt>
      <trkpt lat="41.629748804" lon="2.490998160">
        <ele>479.84</ele>
        <time>2014-09-07T11:16:52Z</time>
      </trkpt>
      <trkpt lat="41.629651490" lon="2.490910821">
        <ele>481.28</ele>
        <time>2014-09-07T11:16:59Z</time>
      </trkpt>
      <trkpt lat="41.629539591" lon="2.490802778">
        <ele>481.28</ele>
        <time>2014-09-07T11:17:05Z</time>
      </trkpt>
      <trkpt lat="41.629510422" lon="2.490778890">
        <ele>481.76</ele>
        <time>2014-09-07T11:17:07Z</time>
      </trkpt>
      <trkpt lat="41.629428028" lon="2.490772100">
        <ele>481.76</ele>
        <time>2014-09-07T11:17:11Z</time>
      </trkpt>
      <trkpt lat="41.629299701" lon="2.490778135">
        <ele>481.76</ele>
        <time>2014-09-07T11:17:16Z</time>
      </trkpt>
      <trkpt lat="41.629237424" lon="2.490726922">
        <ele>481.76</ele>
        <time>2014-09-07T11:17:21Z</time>
      </trkpt>
      <trkpt lat="41.629207919" lon="2.490602953">
        <ele>480.32</ele>
        <time>2014-09-07T11:17:25Z</time>
      </trkpt>
      <trkpt lat="41.629188473" lon="2.490393154">
        <ele>478.39</ele>
        <time>2014-09-07T11:17:32Z</time>
      </trkpt>
      <trkpt lat="41.629167099" lon="2.490102051">
        <ele>476.47</ele>
        <time>2014-09-07T11:17:37Z</time>
      </trkpt>
      <trkpt lat="41.629090908" lon="2.489955871">
        <ele>473.59</ele>
        <time>2014-09-07T11:17:42Z</time>
      </trkpt>
      <trkpt lat="41.628972388" lon="2.489824945">
        <ele>470.22</ele>
        <time>2014-09-07T11:17:47Z</time>
      </trkpt>
      <trkpt lat="41.628812126" lon="2.489719920">
        <ele>467.82</ele>
        <time>2014-09-07T11:17:51Z</time>
      </trkpt>
      <trkpt lat="41.628741047" lon="2.489609782">
        <ele>466.38</ele>
        <time>2014-09-07T11:17:56Z</time>
      </trkpt>
      <trkpt lat="41.628684972" lon="2.489469133">
        <ele>465.42</ele>
        <time>2014-09-07T11:18:01Z</time>
      </trkpt>
      <trkpt lat="41.628677848" lon="2.489448514">
        <ele>465.42</ele>
        <time>2014-09-07T11:18:03Z</time>
      </trkpt>
      <trkpt lat="41.628665107" lon="2.489332089">
        <ele>466.86</ele>
        <time>2014-09-07T11:18:08Z</time>
      </trkpt>
      <trkpt lat="41.628695953" lon="2.489166044">
        <ele>467.34</ele>
        <time>2014-09-07T11:18:13Z</time>
      </trkpt>
      <trkpt lat="41.628709950" lon="2.489129163">
        <ele>467.34</ele>
        <time>2014-09-07T11:18:15Z</time>
      </trkpt>
      <trkpt lat="41.628731157" lon="2.488978792">
        <ele>465.90</ele>
        <time>2014-09-07T11:18:19Z</time>
      </trkpt>
      <trkpt lat="41.628587742" lon="2.488846023">
        <ele>464.93</ele>
        <time>2014-09-07T11:18:24Z</time>
      </trkpt>
      <trkpt lat="41.628415746" lon="2.488686599">
        <ele>461.57</ele>
        <time>2014-09-07T11:18:29Z</time>
      </trkpt>
      <trkpt lat="41.628410130" lon="2.488455175">
        <ele>460.61</ele>
        <time>2014-09-07T11:18:34Z</time>
      </trkpt>
      <trkpt lat="41.628416500" lon="2.488396334">
        <ele>459.65</ele>
        <time>2014-09-07T11:18:36Z</time>
      </trkpt>
      <trkpt lat="41.628334274" lon="2.488209585">
        <ele>459.17</ele>
        <time>2014-09-07T11:18:41Z</time>
      </trkpt>
      <trkpt lat="41.628160014" lon="2.488147475">
        <ele>458.69</ele>
        <time>2014-09-07T11:18:47Z</time>
      </trkpt>
      <trkpt lat="41.628110309" lon="2.488058627">
        <ele>458.21</ele>
        <time>2014-09-07T11:18:48Z</time>
      </trkpt>
      <trkpt lat="41.627963291" lon="2.487790154">
        <ele>457.24</ele>
        <time>2014-09-07T11:18:55Z</time>
      </trkpt>
      <trkpt lat="41.627928841" lon="2.487789316">
        <ele>457.24</ele>
        <time>2014-09-07T11:18:55Z</time>
      </trkpt>
      <trkpt lat="41.627808225" lon="2.487970701">
        <ele>458.69</ele>
        <time>2014-09-07T11:19:02Z</time>
      </trkpt>
      <trkpt lat="41.627698003" lon="2.488194665">
        <ele>458.69</ele>
        <time>2014-09-07T11:19:09Z</time>
      </trkpt>
      <trkpt lat="41.627662548" lon="2.488392394">
        <ele>456.76</ele>
        <time>2014-09-07T11:19:11Z</time>
      </trkpt>
      <trkpt lat="41.627481080" lon="2.488919951">
        <ele>452.92</ele>
        <time>2014-09-07T11:19:18Z</time>
      </trkpt>
      <trkpt lat="41.627290056" lon="2.489050206">
        <ele>452.44</ele>
        <time>2014-09-07T11:19:21Z</time>
      </trkpt>
      <trkpt lat="41.627152677" lon="2.489210300">
        <ele>451.96</ele>
        <time>2014-09-07T11:19:25Z</time>
      </trkpt>
      <trkpt lat="41.627198442" lon="2.489423452">
        <ele>451.96</ele>
        <time>2014-09-07T11:19:30Z</time>
      </trkpt>
      <trkpt lat="41.627216128" lon="2.489466535">
        <ele>451.96</ele>
        <time>2014-09-07T11:19:30Z</time>
      </trkpt>
      <trkpt lat="41.627260719" lon="2.489722854">
        <ele>451.96</ele>
        <time>2014-09-07T11:19:37Z</time>
      </trkpt>
      <trkpt lat="41.627218978" lon="2.489939107">
        <ele>453.40</ele>
        <time>2014-09-07T11:19:42Z</time>
      </trkpt>
      <trkpt lat="41.627115712" lon="2.489927288">
        <ele>454.36</ele>
        <time>2014-09-07T11:19:47Z</time>
      </trkpt>
      <trkpt lat="41.627100625" lon="2.489896778">
        <ele>454.36</ele>
        <time>2014-09-07T11:19:49Z</time>
      </trkpt>
      <trkpt lat="41.627020075" lon="2.489737354">
        <ele>454.84</ele>
        <time>2014-09-07T11:19:54Z</time>
      </trkpt>
      <trkpt lat="41.626896358" lon="2.489798542">
        <ele>455.80</ele>
        <time>2014-09-07T11:20:00Z</time>
      </trkpt>
      <trkpt lat="41.626864926" lon="2.489881858">
        <ele>455.80</ele>
        <time>2014-09-07T11:20:03Z</time>
      </trkpt>
      <trkpt lat="41.626825112" lon="2.490134070">
        <ele>454.36</ele>
        <time>2014-09-07T11:20:10Z</time>
      </trkpt>
      <trkpt lat="41.626811449" lon="2.490182266">
        <ele>454.36</ele>
        <time>2014-09-07T11:20:10Z</time>
      </trkpt>
      <trkpt lat="41.626783789" lon="2.490272036">
        <ele>453.40</ele>
        <time>2014-09-07T11:20:12Z</time>
      </trkpt>
      <trkpt lat="41.626817903" lon="2.490520559">
        <ele>452.92</ele>
        <time>2014-09-07T11:20:19Z</time>
      </trkpt>
      <trkpt lat="41.626739365" lon="2.490621813">
        <ele>454.36</ele>
        <time>2014-09-07T11:20:24Z</time>
      </trkpt>
      <trkpt lat="41.626681781" lon="2.490632793">
        <ele>454.84</ele>
        <time>2014-09-07T11:20:26Z</time>
      </trkpt>
      <trkpt lat="41.626521352" lon="2.490626423">
        <ele>456.28</ele>
        <time>2014-09-07T11:20:35Z</time>
      </trkpt>
      <trkpt lat="41.626381793" lon="2.490649557">
        <ele>457.24</ele>
        <time>2014-09-07T11:20:42Z</time>
      </trkpt>
      <trkpt lat="41.626267212" lon="2.490712170">
        <ele>458.69</ele>
        <time>2014-09-07T11:20:48Z</time>
      </trkpt>
      <trkpt lat="41.626207533" lon="2.490788026">
        <ele>458.69</ele>
        <time>2014-09-07T11:20:54Z</time>
      </trkpt>
      <trkpt lat="41.626220274" lon="2.490872767">
        <ele>458.69</ele>
        <time>2014-09-07T11:20:57Z</time>
      </trkpt>
      <trkpt lat="41.626390594" lon="2.490987012">
        <ele>457.72</ele>
        <time>2014-09-07T11:21:04Z</time>
      </trkpt>
      <trkpt lat="41.626480532" lon="2.491065299">
        <ele>456.76</ele>
        <time>2014-09-07T11:21:08Z</time>
      </trkpt>
      <trkpt lat="41.626539457" lon="2.491208211">
        <ele>454.36</ele>
        <time>2014-09-07T11:21:11Z</time>
      </trkpt>
      <trkpt lat="41.626626628" lon="2.491531585">
        <ele>451.96</ele>
        <time>2014-09-07T11:21:16Z</time>
      </trkpt>
      <trkpt lat="41.626494697" lon="2.491661001">
        <ele>450.52</ele>
        <time>2014-09-07T11:21:20Z</time>
      </trkpt>
      <trkpt lat="41.626322952" lon="2.491812546">
        <ele>450.03</ele>
        <time>2014-09-07T11:21:25Z</time>
      </trkpt>
      <trkpt lat="41.626221280" lon="2.492115719">
        <ele>449.55</ele>
        <time>2014-09-07T11:21:30Z</time>
      </trkpt>
      <trkpt lat="41.626139137" lon="2.492336834">
        <ele>448.59</ele>
        <time>2014-09-07T11:21:34Z</time>
      </trkpt>
      <trkpt lat="41.626027155" lon="2.492427610">
        <ele>446.67</ele>
        <time>2014-09-07T11:21:37Z</time>
      </trkpt>
      <trkpt lat="41.625793970" lon="2.492608575">
        <ele>446.19</ele>
        <time>2014-09-07T11:21:42Z</time>
      </trkpt>
      <trkpt lat="41.625826157" lon="2.492763138">
        <ele>446.19</ele>
        <time>2014-09-07T11:21:46Z</time>
      </trkpt>
      <trkpt lat="41.625840154" lon="2.492977044">
        <ele>447.15</ele>
        <time>2014-09-07T11:21:53Z</time>
      </trkpt>
      <trkpt lat="41.625789947" lon="2.493067987">
        <ele>448.11</ele>
        <time>2014-09-07T11:21:55Z</time>
      </trkpt>
      <trkpt lat="41.625741416" lon="2.493207881">
        <ele>448.11</ele>
        <time>2014-09-07T11:21:58Z</time>
      </trkpt>
      <trkpt lat="41.625802436" lon="2.493344003">
        <ele>446.67</ele>
        <time>2014-09-07T11:22:03Z</time>
      </trkpt>
      <trkpt lat="41.625945180" lon="2.493432600">
        <ele>445.71</ele>
        <time>2014-09-07T11:22:07Z</time>
      </trkpt>
      <trkpt lat="41.626041907" lon="2.493473672">
        <ele>444.75</ele>
        <time>2014-09-07T11:22:10Z</time>
      </trkpt>
      <trkpt lat="41.626247934" lon="2.493397312">
        <ele>444.75</ele>
        <time>2014-09-07T11:22:16Z</time>
      </trkpt>
      <trkpt lat="41.626284060" lon="2.493369736">
        <ele>444.27</ele>
        <time>2014-09-07T11:22:17Z</time>
      </trkpt>
      <trkpt lat="41.626368298" lon="2.493322043">
        <ele>443.31</ele>
        <time>2014-09-07T11:22:19Z</time>
      </trkpt>
      <trkpt lat="41.626468378" lon="2.493265046">
        <ele>442.34</ele>
        <time>2014-09-07T11:22:21Z</time>
      </trkpt>
      <trkpt lat="41.626682787" lon="2.493211821">
        <ele>441.86</ele>
        <time>2014-09-07T11:22:24Z</time>
      </trkpt>
      <trkpt lat="41.626919995" lon="2.493318858">
        <ele>439.94</ele>
        <time>2014-09-07T11:22:30Z</time>
      </trkpt>
      <trkpt lat="41.626980093" lon="2.493573165">
        <ele>439.46</ele>
        <time>2014-09-07T11:22:33Z</time>
      </trkpt>
      <trkpt lat="41.626955618" lon="2.493776174">
        <ele>438.50</ele>
        <time>2014-09-07T11:22:36Z</time>
      </trkpt>
      <trkpt lat="41.626809857" lon="2.494072978">
        <ele>437.54</ele>
        <time>2014-09-07T11:22:42Z</time>
      </trkpt>
      <trkpt lat="41.626708520" lon="2.494339187">
        <ele>436.58</ele>
        <time>2014-09-07T11:22:47Z</time>
      </trkpt>
      <trkpt lat="41.626711369" lon="2.494657951">
        <ele>436.10</ele>
        <time>2014-09-07T11:22:52Z</time>
      </trkpt>
      <trkpt lat="41.626581450" lon="2.494917706">
        <ele>436.10</ele>
        <time>2014-09-07T11:22:59Z</time>
      </trkpt>
      <trkpt lat="41.626461170" lon="2.495170169">
        <ele>436.10</ele>
        <time>2014-09-07T11:23:08Z</time>
      </trkpt>
      <trkpt lat="41.626306859" lon="2.495402012">
        <ele>436.10</ele>
        <time>2014-09-07T11:23:15Z</time>
      </trkpt>
      <trkpt lat="41.626222118" lon="2.495677693">
        <ele>436.10</ele>
        <time>2014-09-07T11:23:22Z</time>
      </trkpt>
      <trkpt lat="41.626222956" lon="2.495727062">
        <ele>436.10</ele>
        <time>2014-09-07T11:23:22Z</time>
      </trkpt>
      <trkpt lat="41.626281629" lon="2.495837703">
        <ele>435.61</ele>
        <time>2014-09-07T11:23:27Z</time>
      </trkpt>
      <trkpt lat="41.626451279" lon="2.495844912">
        <ele>437.06</ele>
        <time>2014-09-07T11:23:34Z</time>
      </trkpt>
      <trkpt lat="41.626473910" lon="2.495854886">
        <ele>437.06</ele>
        <time>2014-09-07T11:23:36Z</time>
      </trkpt>
      <trkpt lat="41.626680859" lon="2.495974329">
        <ele>437.06</ele>
        <time>2014-09-07T11:23:41Z</time>
      </trkpt>
      <trkpt lat="41.626769456" lon="2.496187145">
        <ele>435.61</ele>
        <time>2014-09-07T11:23:46Z</time>
      </trkpt>
      <trkpt lat="41.626685553" lon="2.496465005">
        <ele>435.13</ele>
        <time>2014-09-07T11:23:53Z</time>
      </trkpt>
      <trkpt lat="41.626599890" lon="2.496683857">
        <ele>434.65</ele>
        <time>2014-09-07T11:23:58Z</time>
      </trkpt>
      <trkpt lat="41.626512970" lon="2.496854261">
        <ele>434.65</ele>
        <time>2014-09-07T11:24:04Z</time>
      </trkpt>
      <trkpt lat="41.626537864" lon="2.497091133">
        <ele>433.69</ele>
        <time>2014-09-07T11:24:09Z</time>
      </trkpt>
      <trkpt lat="41.626556807" lon="2.497327587">
        <ele>432.25</ele>
        <time>2014-09-07T11:24:14Z</time>
      </trkpt>
      <trkpt lat="41.626531242" lon="2.497411993">
        <ele>432.25</ele>
        <time>2014-09-07T11:24:16Z</time>
      </trkpt>
      <trkpt lat="41.626534092" lon="2.497586420">
        <ele>431.77</ele>
        <time>2014-09-07T11:24:19Z</time>
      </trkpt>
      <trkpt lat="41.626713297" lon="2.497805188">
        <ele>431.77</ele>
        <time>2014-09-07T11:24:28Z</time>
      </trkpt>
      <trkpt lat="41.626923348" lon="2.498061758">
        <ele>431.77</ele>
        <time>2014-09-07T11:24:35Z</time>
      </trkpt>
      <trkpt lat="41.627124765" lon="2.498166531">
        <ele>431.77</ele>
        <time>2014-09-07T11:24:42Z</time>
      </trkpt>
      <trkpt lat="41.627175308" lon="2.498193856">
        <ele>432.73</ele>
        <time>2014-09-07T11:24:45Z</time>
      </trkpt>
      <trkpt lat="41.627237334" lon="2.498233251">
        <ele>432.73</ele>
        <time>2014-09-07T11:24:47Z</time>
      </trkpt>
      <trkpt lat="41.627248566" lon="2.498383287">
        <ele>433.69</ele>
        <time>2014-09-07T11:24:52Z</time>
      </trkpt>
      <trkpt lat="41.627177236" lon="2.498399465">
        <ele>433.69</ele>
        <time>2014-09-07T11:24:54Z</time>
      </trkpt>
      <trkpt lat="41.626907338" lon="2.498367110">
        <ele>433.69</ele>
        <time>2014-09-07T11:25:03Z</time>
      </trkpt>
      <trkpt lat="41.626755291" lon="2.498474985">
        <ele>433.69</ele>
        <time>2014-09-07T11:25:08Z</time>
      </trkpt>
      <trkpt lat="41.626727630" lon="2.498513794">
        <ele>432.25</ele>
        <time>2014-09-07T11:25:10Z</time>
      </trkpt>
      <trkpt lat="41.626629394" lon="2.498630637">
        <ele>431.77</ele>
        <time>2014-09-07T11:25:13Z</time>
      </trkpt>
      <trkpt lat="41.626603494" lon="2.498797018">
        <ele>431.77</ele>
        <time>2014-09-07T11:25:17Z</time>
      </trkpt>
      <trkpt lat="41.626704915" lon="2.498932386">
        <ele>431.77</ele>
        <time>2014-09-07T11:25:22Z</time>
      </trkpt>
      <trkpt lat="41.626740790" lon="2.499008494">
        <ele>431.77</ele>
        <time>2014-09-07T11:25:24Z</time>
      </trkpt>
      <trkpt lat="41.626791249" lon="2.499193650">
        <ele>432.73</ele>
        <time>2014-09-07T11:25:29Z</time>
      </trkpt>
      <trkpt lat="41.626759062" lon="2.499440413">
        <ele>433.21</ele>
        <time>2014-09-07T11:25:36Z</time>
      </trkpt>
      <trkpt lat="41.626720254" lon="2.499696396">
        <ele>433.69</ele>
        <time>2014-09-07T11:25:43Z</time>
      </trkpt>
      <trkpt lat="41.626702736" lon="2.499881217">
        <ele>434.65</ele>
        <time>2014-09-07T11:25:48Z</time>
      </trkpt>
      <trkpt lat="41.626719248" lon="2.499924049">
        <ele>434.17</ele>
        <time>2014-09-07T11:25:50Z</time>
      </trkpt>
      <trkpt lat="41.626883450" lon="2.499962689">
        <ele>434.65</ele>
        <time>2014-09-07T11:25:57Z</time>
      </trkpt>
      <trkpt lat="41.627048070" lon="2.499965623">
        <ele>435.13</ele>
        <time>2014-09-07T11:26:04Z</time>
      </trkpt>
      <trkpt lat="41.627254517" lon="2.500070648">
        <ele>435.13</ele>
        <time>2014-09-07T11:26:12Z</time>
      </trkpt>
      <trkpt lat="41.627389298" lon="2.500258906">
        <ele>435.61</ele>
        <time>2014-09-07T11:26:19Z</time>
      </trkpt>
      <trkpt lat="41.627411845" lon="2.500505418">
        <ele>437.06</ele>
        <time>2014-09-07T11:26:28Z</time>
      </trkpt>
      <trkpt lat="41.627400362" lon="2.500727035">
        <ele>437.54</ele>
        <time>2014-09-07T11:26:35Z</time>
      </trkpt>
      <trkpt lat="41.627500609" lon="2.500874473">
        <ele>438.50</ele>
        <time>2014-09-07T11:26:42Z</time>
      </trkpt>
      <trkpt lat="41.627612675" lon="2.501027024">
        <ele>438.50</ele>
        <time>2014-09-07T11:26:49Z</time>
      </trkpt>
      <trkpt lat="41.627728010" lon="2.501056360">
        <ele>439.46</ele>
        <time>2014-09-07T11:26:54Z</time>
      </trkpt>
      <trkpt lat="41.627799424" lon="2.501187369">
        <ele>440.42</ele>
        <time>2014-09-07T11:27:00Z</time>
      </trkpt>
      <trkpt lat="41.627781655" lon="2.501345368">
        <ele>441.38</ele>
        <time>2014-09-07T11:27:05Z</time>
      </trkpt>
      <trkpt lat="41.627739578" lon="2.501577044">
        <ele>441.86</ele>
        <time>2014-09-07T11:27:15Z</time>
      </trkpt>
      <trkpt lat="41.627722646" lon="2.501835626">
        <ele>442.82</ele>
        <time>2014-09-07T11:27:22Z</time>
      </trkpt>
      <trkpt lat="41.627678222" lon="2.502081383">
        <ele>442.82</ele>
        <time>2014-09-07T11:27:29Z</time>
      </trkpt>
      <trkpt lat="41.627609071" lon="2.502338037">
        <ele>442.82</ele>
        <time>2014-09-07T11:27:36Z</time>
      </trkpt>
      <trkpt lat="41.627563390" lon="2.502521852">
        <ele>442.82</ele>
        <time>2014-09-07T11:27:41Z</time>
      </trkpt>
      <trkpt lat="41.627451659" lon="2.502566863">
        <ele>441.38</ele>
        <time>2014-09-07T11:27:45Z</time>
      </trkpt>
      <trkpt lat="41.627416371" lon="2.502544819">
        <ele>440.42</ele>
        <time>2014-09-07T11:27:47Z</time>
      </trkpt>
      <trkpt lat="41.627254517" lon="2.502470890">
        <ele>440.42</ele>
        <time>2014-09-07T11:27:54Z</time>
      </trkpt>
      <trkpt lat="41.627216211" lon="2.502472986">
        <ele>441.86</ele>
        <time>2014-09-07T11:27:55Z</time>
      </trkpt>
      <trkpt lat="41.627078581" lon="2.502443565">
        <ele>442.82</ele>
        <time>2014-09-07T11:28:02Z</time>
      </trkpt>
      <trkpt lat="41.626954445" lon="2.502378522">
        <ele>441.38</ele>
        <time>2014-09-07T11:28:06Z</time>
      </trkpt>
      <trkpt lat="41.626915134" lon="2.502371481">
        <ele>440.90</ele>
        <time>2014-09-07T11:28:07Z</time>
      </trkpt>
      <trkpt lat="41.626744310" lon="2.502394950">
        <ele>439.46</ele>
        <time>2014-09-07T11:28:11Z</time>
      </trkpt>
      <trkpt lat="41.626605422" lon="2.502392855">
        <ele>437.06</ele>
        <time>2014-09-07T11:28:14Z</time>
      </trkpt>
      <trkpt lat="41.626260842" lon="2.502402075">
        <ele>435.61</ele>
        <time>2014-09-07T11:28:21Z</time>
      </trkpt>
      <trkpt lat="41.626068729" lon="2.502606006">
        <ele>433.21</ele>
        <time>2014-09-07T11:28:25Z</time>
      </trkpt>
      <trkpt lat="41.626101670" lon="2.502821254">
        <ele>433.21</ele>
        <time>2014-09-07T11:28:30Z</time>
      </trkpt>
      <trkpt lat="41.626048193" lon="2.502991658">
        <ele>433.21</ele>
        <time>2014-09-07T11:28:34Z</time>
      </trkpt>
      <trkpt lat="41.625971499" lon="2.503264489">
        <ele>434.65</ele>
        <time>2014-09-07T11:28:42Z</time>
      </trkpt>
      <trkpt lat="41.625877789" lon="2.503426092">
        <ele>435.13</ele>
        <time>2014-09-07T11:28:47Z</time>
      </trkpt>
      <trkpt lat="41.625619710" lon="2.503508402">
        <ele>433.21</ele>
        <time>2014-09-07T11:28:53Z</time>
      </trkpt>
      <trkpt lat="41.625503370" lon="2.503528686">
        <ele>431.77</ele>
        <time>2014-09-07T11:28:54Z</time>
      </trkpt>
      <trkpt lat="41.625402200" lon="2.503587946">
        <ele>430.81</ele>
        <time>2014-09-07T11:28:56Z</time>
      </trkpt>
      <trkpt lat="41.625404295" lon="2.503721303">
        <ele>430.81</ele>
        <time>2014-09-07T11:29:00Z</time>
      </trkpt>
      <trkpt lat="41.625424244" lon="2.503768828">
        <ele>430.33</ele>
        <time>2014-09-07T11:29:00Z</time>
      </trkpt>
      <trkpt lat="41.625459616" lon="2.503855832">
        <ele>429.37</ele>
        <time>2014-09-07T11:29:03Z</time>
      </trkpt>
      <trkpt lat="41.625483085" lon="2.503969658">
        <ele>429.37</ele>
        <time>2014-09-07T11:29:05Z</time>
      </trkpt>
      <trkpt lat="41.625491048" lon="2.504056662">
        <ele>428.89</ele>
        <time>2014-09-07T11:29:05Z</time>
      </trkpt>
      <trkpt lat="41.625483840" lon="2.504376181">
        <ele>428.89</ele>
        <time>2014-09-07T11:29:12Z</time>
      </trkpt>
      <trkpt lat="41.625482666" lon="2.504432675">
        <ele>429.37</ele>
        <time>2014-09-07T11:29:15Z</time>
      </trkpt>
      <trkpt lat="41.625372360" lon="2.504631912">
        <ele>428.89</ele>
        <time>2014-09-07T11:29:22Z</time>
      </trkpt>
      <trkpt lat="41.625343778" lon="2.504673487">
        <ele>428.89</ele>
        <time>2014-09-07T11:29:22Z</time>
      </trkpt>
      <trkpt lat="41.625269766" lon="2.504794354">
        <ele>428.40</ele>
        <time>2014-09-07T11:29:24Z</time>
      </trkpt>
      <trkpt lat="41.625062146" lon="2.504984707">
        <ele>426.96</ele>
        <time>2014-09-07T11:29:29Z</time>
      </trkpt>
      <trkpt lat="41.625005820" lon="2.505142622">
        <ele>425.52</ele>
        <time>2014-09-07T11:29:33Z</time>
      </trkpt>
      <trkpt lat="41.625071366" lon="2.505202469">
        <ele>425.52</ele>
        <time>2014-09-07T11:29:35Z</time>
      </trkpt>
      <trkpt lat="41.625165411" lon="2.505362395">
        <ele>424.56</ele>
        <time>2014-09-07T11:29:38Z</time>
      </trkpt>
      <trkpt lat="41.625209919" lon="2.505677974">
        <ele>423.12</ele>
        <time>2014-09-07T11:29:43Z</time>
      </trkpt>
      <trkpt lat="41.625200112" lon="2.505918451">
        <ele>423.12</ele>
        <time>2014-09-07T11:29:47Z</time>
      </trkpt>
      <trkpt lat="41.625253505" lon="2.506302426">
        <ele>421.68</ele>
        <time>2014-09-07T11:29:52Z</time>
      </trkpt>
      <trkpt lat="41.625250655" lon="2.506405775">
        <ele>421.19</ele>
        <time>2014-09-07T11:29:54Z</time>
      </trkpt>
      <trkpt lat="41.625227940" lon="2.506611886">
        <ele>419.27</ele>
        <time>2014-09-07T11:29:57Z</time>
      </trkpt>
      <trkpt lat="41.625238418" lon="2.506748930">
        <ele>417.83</ele>
        <time>2014-09-07T11:29:59Z</time>
      </trkpt>
      <trkpt lat="41.625342437" lon="2.507251509">
        <ele>416.39</ele>
        <time>2014-09-07T11:30:06Z</time>
      </trkpt>
      <trkpt lat="41.625404295" lon="2.507633807">
        <ele>414.95</ele>
        <time>2014-09-07T11:30:11Z</time>
      </trkpt>
      <trkpt lat="41.625470513" lon="2.507908818">
        <ele>413.98</ele>
        <time>2014-09-07T11:30:16Z</time>
      </trkpt>
      <trkpt lat="41.625523989" lon="2.507937987">
        <ele>413.98</ele>
        <time>2014-09-07T11:30:18Z</time>
      </trkpt>
      <trkpt lat="41.625708894" lon="2.507953996">
        <ele>413.98</ele>
        <time>2014-09-07T11:30:27Z</time>
      </trkpt>
      <trkpt lat="41.625740410" lon="2.507959193">
        <ele>414.95</ele>
        <time>2014-09-07T11:30:29Z</time>
      </trkpt>
      <trkpt lat="41.625871754" lon="2.507952906">
        <ele>414.95</ele>
        <time>2014-09-07T11:30:34Z</time>
      </trkpt>
      <trkpt lat="41.626018018" lon="2.507941675">
        <ele>415.91</ele>
        <time>2014-09-07T11:30:41Z</time>
      </trkpt>
      <trkpt lat="41.626194960" lon="2.507901190">
        <ele>416.87</ele>
        <time>2014-09-07T11:30:49Z</time>
      </trkpt>
      <trkpt lat="41.626296130" lon="2.507849809">
        <ele>417.83</ele>
        <time>2014-09-07T11:30:55Z</time>
      </trkpt>
      <trkpt lat="41.626402915" lon="2.507832542">
        <ele>418.31</ele>
        <time>2014-09-07T11:31:03Z</time>
      </trkpt>
      <trkpt lat="41.626522777" lon="2.507829860">
        <ele>419.27</ele>
        <time>2014-09-07T11:31:10Z</time>
      </trkpt>
      <trkpt lat="41.626664347" lon="2.507864310">
        <ele>420.71</ele>
        <time>2014-09-07T11:31:19Z</time>
      </trkpt>
      <trkpt lat="41.626733749" lon="2.507882415">
        <ele>421.19</ele>
        <time>2014-09-07T11:31:23Z</time>
      </trkpt>
      <trkpt lat="41.626773731" lon="2.507912254">
        <ele>421.68</ele>
        <time>2014-09-07T11:31:26Z</time>
      </trkpt>
      <trkpt lat="41.626792171" lon="2.508044437">
        <ele>422.64</ele>
        <time>2014-09-07T11:31:33Z</time>
      </trkpt>
      <trkpt lat="41.626739030" lon="2.508155078">
        <ele>423.12</ele>
        <time>2014-09-07T11:31:42Z</time>
      </trkpt>
      <trkpt lat="41.626716482" lon="2.508271754">
        <ele>423.60</ele>
        <time>2014-09-07T11:31:47Z</time>
      </trkpt>
      <trkpt lat="41.626698294" lon="2.508431932">
        <ele>425.04</ele>
        <time>2014-09-07T11:31:57Z</time>
      </trkpt>
      <trkpt lat="41.626656887" lon="2.508558583">
        <ele>425.52</ele>
        <time>2014-09-07T11:32:06Z</time>
      </trkpt>
      <trkpt lat="41.626650433" lon="2.508571994">
        <ele>425.52</ele>
        <time>2014-09-07T11:32:06Z</time>
      </trkpt>
      <trkpt lat="41.626571811" lon="2.508710044">
        <ele>426.48</ele>
        <time>2014-09-07T11:32:15Z</time>
      </trkpt>
      <trkpt lat="41.626487573" lon="2.508847842">
        <ele>427.44</ele>
        <time>2014-09-07T11:32:25Z</time>
      </trkpt>
      <trkpt lat="41.626447004" lon="2.509003662">
        <ele>427.92</ele>
        <time>2014-09-07T11:32:34Z</time>
      </trkpt>
      <trkpt lat="41.626448932" lon="2.509147076">
        <ele>428.40</ele>
        <time>2014-09-07T11:32:39Z</time>
      </trkpt>
      <trkpt lat="41.626496290" lon="2.509375986">
        <ele>428.40</ele>
        <time>2014-09-07T11:32:50Z</time>
      </trkpt>
      <trkpt lat="41.626505091" lon="2.509555778">
        <ele>428.89</ele>
        <time>2014-09-07T11:32:58Z</time>
      </trkpt>
      <trkpt lat="41.626453123" lon="2.509722494">
        <ele>429.85</ele>
        <time>2014-09-07T11:33:05Z</time>
      </trkpt>
      <trkpt lat="41.626363018" lon="2.509873703">
        <ele>430.33</ele>
        <time>2014-09-07T11:33:14Z</time>
      </trkpt>
      <trkpt lat="41.626311301" lon="2.510030110">
        <ele>430.81</ele>
        <time>2014-09-07T11:33:21Z</time>
      </trkpt>
      <trkpt lat="41.626264363" lon="2.510152569">
        <ele>431.29</ele>
        <time>2014-09-07T11:33:28Z</time>
      </trkpt>
      <trkpt lat="41.626183729" lon="2.510362955">
        <ele>432.25</ele>
        <time>2014-09-07T11:33:38Z</time>
      </trkpt>
      <trkpt lat="41.626112315" lon="2.510563534">
        <ele>433.69</ele>
        <time>2014-09-07T11:33:49Z</time>
      </trkpt>
      <trkpt lat="41.626072249" lon="2.510692196">
        <ele>434.17</ele>
        <time>2014-09-07T11:33:54Z</time>
      </trkpt>
      <trkpt lat="41.626020365" lon="2.510852207">
        <ele>436.10</ele>
        <time>2014-09-07T11:34:03Z</time>
      </trkpt>
      <trkpt lat="41.625949538" lon="2.511056557">
        <ele>437.06</ele>
        <time>2014-09-07T11:34:13Z</time>
      </trkpt>
      <trkpt lat="41.625903438" lon="2.511183795">
        <ele>438.02</ele>
        <time>2014-09-07T11:34:22Z</time>
      </trkpt>
      <trkpt lat="41.625865468" lon="2.511313044">
        <ele>438.98</ele>
        <time>2014-09-07T11:34:29Z</time>
      </trkpt>
      <trkpt lat="41.625821714" lon="2.511446400">
        <ele>440.42</ele>
        <time>2014-09-07T11:34:38Z</time>
      </trkpt>
      <trkpt lat="41.625806459" lon="2.511583444">
        <ele>440.90</ele>
        <time>2014-09-07T11:34:45Z</time>
      </trkpt>
      <trkpt lat="41.625806627" lon="2.511620240">
        <ele>441.38</ele>
        <time>2014-09-07T11:34:46Z</time>
      </trkpt>
      <trkpt lat="41.625878041" lon="2.511716548">
        <ele>442.34</ele>
        <time>2014-09-07T11:34:55Z</time>
      </trkpt>
      <trkpt lat="41.625969320" lon="2.511732809">
        <ele>443.31</ele>
        <time>2014-09-07T11:35:02Z</time>
      </trkpt>
      <trkpt lat="41.626058335" lon="2.511774467">
        <ele>444.75</ele>
        <time>2014-09-07T11:35:09Z</time>
      </trkpt>
      <trkpt lat="41.626103849" lon="2.511796177">
        <ele>445.23</ele>
        <time>2014-09-07T11:35:14Z</time>
      </trkpt>
      <trkpt lat="41.626187081" lon="2.511886366">
        <ele>446.67</ele>
        <time>2014-09-07T11:35:23Z</time>
      </trkpt>
      <trkpt lat="41.626232511" lon="2.511986949">
        <ele>447.63</ele>
        <time>2014-09-07T11:35:30Z</time>
      </trkpt>
      <trkpt lat="41.626281294" lon="2.512147043">
        <ele>449.07</ele>
        <time>2014-09-07T11:35:42Z</time>
      </trkpt>
      <trkpt lat="41.626311972" lon="2.512261875">
        <ele>450.03</ele>
        <time>2014-09-07T11:35:49Z</time>
      </trkpt>
      <trkpt lat="41.626340386" lon="2.512435045">
        <ele>450.52</ele>
        <time>2014-09-07T11:36:00Z</time>
      </trkpt>
      <trkpt lat="41.626366957" lon="2.512611568">
        <ele>451.48</ele>
        <time>2014-09-07T11:36:10Z</time>
      </trkpt>
      <trkpt lat="41.626366538" lon="2.512747858">
        <ele>451.96</ele>
        <time>2014-09-07T11:36:17Z</time>
      </trkpt>
      <trkpt lat="41.626410627" lon="2.512905270">
        <ele>453.40</ele>
        <time>2014-09-07T11:36:27Z</time>
      </trkpt>
      <trkpt lat="41.626511545" lon="2.512942067">
        <ele>453.88</ele>
        <time>2014-09-07T11:36:36Z</time>
      </trkpt>
      <trkpt lat="41.626609110" lon="2.512922704">
        <ele>454.84</ele>
        <time>2014-09-07T11:36:43Z</time>
      </trkpt>
      <trkpt lat="41.626672729" lon="2.512927817">
        <ele>454.84</ele>
        <time>2014-09-07T11:36:48Z</time>
      </trkpt>
      <trkpt lat="41.626851431" lon="2.512966206">
        <ele>455.32</ele>
        <time>2014-09-07T11:36:59Z</time>
      </trkpt>
      <trkpt lat="41.626963665" lon="2.513026556">
        <ele>455.80</ele>
        <time>2014-09-07T11:37:06Z</time>
      </trkpt>
      <trkpt lat="41.627065170" lon="2.513159912">
        <ele>456.28</ele>
        <time>2014-09-07T11:37:13Z</time>
      </trkpt>
      <trkpt lat="41.627138595" lon="2.513322270">
        <ele>456.76</ele>
        <time>2014-09-07T11:37:21Z</time>
      </trkpt>
      <trkpt lat="41.627207410" lon="2.513459062">
        <ele>457.72</ele>
        <time>2014-09-07T11:37:30Z</time>
      </trkpt>
      <trkpt lat="41.627278070" lon="2.513629802">
        <ele>458.21</ele>
        <time>2014-09-07T11:37:37Z</time>
      </trkpt>
      <trkpt lat="41.627350322" lon="2.513729211">
        <ele>457.24</ele>
        <time>2014-09-07T11:37:42Z</time>
      </trkpt>
      <trkpt lat="41.627426513" lon="2.514004473">
        <ele>456.28</ele>
        <time>2014-09-07T11:37:49Z</time>
      </trkpt>
      <trkpt lat="41.627450653" lon="2.514208153">
        <ele>454.84</ele>
        <time>2014-09-07T11:37:53Z</time>
      </trkpt>
      <trkpt lat="41.627476470" lon="2.514354417">
        <ele>453.88</ele>
        <time>2014-09-07T11:37:56Z</time>
      </trkpt>
      <trkpt lat="41.627465489" lon="2.514697237">
        <ele>452.44</ele>
        <time>2014-09-07T11:38:03Z</time>
      </trkpt>
      <trkpt lat="41.627391812" lon="2.514984150">
        <ele>451.00</ele>
        <time>2014-09-07T11:38:07Z</time>
      </trkpt>
      <trkpt lat="41.627291313" lon="2.515183974">
        <ele>449.07</ele>
        <time>2014-09-07T11:38:12Z</time>
      </trkpt>
      <trkpt lat="41.627090734" lon="2.515478263">
        <ele>446.19</ele>
        <time>2014-09-07T11:38:17Z</time>
      </trkpt>
      <trkpt lat="41.626858137" lon="2.515733156">
        <ele>443.31</ele>
        <time>2014-09-07T11:38:24Z</time>
      </trkpt>
      <trkpt lat="41.626828046" lon="2.515772300">
        <ele>442.82</ele>
        <time>2014-09-07T11:38:26Z</time>
      </trkpt>
      <trkpt lat="41.626751686" lon="2.516144037">
        <ele>441.38</ele>
        <time>2014-09-07T11:38:31Z</time>
      </trkpt>
      <trkpt lat="41.626653367" lon="2.516863205">
        <ele>438.02</ele>
        <time>2014-09-07T11:38:40Z</time>
      </trkpt>
      <trkpt lat="41.626643811" lon="2.516955741">
        <ele>437.54</ele>
        <time>2014-09-07T11:38:40Z</time>
      </trkpt>
      <trkpt lat="41.626537613" lon="2.517534427">
        <ele>435.13</ele>
        <time>2014-09-07T11:38:47Z</time>
      </trkpt>
      <trkpt lat="41.626530488" lon="2.517739365">
        <ele>434.17</ele>
        <time>2014-09-07T11:38:48Z</time>
      </trkpt>
      <trkpt lat="41.626530907" lon="2.518507315">
        <ele>432.25</ele>
        <time>2014-09-07T11:38:57Z</time>
      </trkpt>
      <trkpt lat="41.626586479" lon="2.518783415">
        <ele>432.73</ele>
        <time>2014-09-07T11:39:01Z</time>
      </trkpt>
      <trkpt lat="41.626688319" lon="2.519038057">
        <ele>432.73</ele>
        <time>2014-09-07T11:39:09Z</time>
      </trkpt>
      <trkpt lat="41.626720170" lon="2.519343075">
        <ele>431.29</ele>
        <time>2014-09-07T11:39:15Z</time>
      </trkpt>
      <trkpt lat="41.626756464" lon="2.519629819">
        <ele>430.81</ele>
        <time>2014-09-07T11:39:20Z</time>
      </trkpt>
      <trkpt lat="41.626715309" lon="2.519931652">
        <ele>429.85</ele>
        <time>2014-09-07T11:39:25Z</time>
      </trkpt>
      <trkpt lat="41.626589664" lon="2.520227868">
        <ele>429.85</ele>
        <time>2014-09-07T11:39:32Z</time>
      </trkpt>
      <trkpt lat="41.626539960" lon="2.520488713">
        <ele>431.29</ele>
        <time>2014-09-07T11:39:39Z</time>
      </trkpt>
      <trkpt lat="41.626524118" lon="2.520516373">
        <ele>431.29</ele>
        <time>2014-09-07T11:39:39Z</time>
      </trkpt>
      <trkpt lat="41.626430240" lon="2.520639084">
        <ele>432.25</ele>
        <time>2014-09-07T11:39:46Z</time>
      </trkpt>
      <trkpt lat="41.626361174" lon="2.520763304">
        <ele>432.25</ele>
        <time>2014-09-07T11:39:51Z</time>
      </trkpt>
      <trkpt lat="41.626314738" lon="2.521101682">
        <ele>432.25</ele>
        <time>2014-09-07T11:39:58Z</time>
      </trkpt>
      <trkpt lat="41.626289424" lon="2.521247024">
        <ele>430.81</ele>
        <time>2014-09-07T11:40:00Z</time>
      </trkpt>
      <trkpt lat="41.626188339" lon="2.521559585">
        <ele>428.89</ele>
        <time>2014-09-07T11:40:07Z</time>
      </trkpt>
      <trkpt lat="41.626010559" lon="2.521793524">
        <ele>427.44</ele>
        <time>2014-09-07T11:40:14Z</time>
      </trkpt>
      <trkpt lat="41.625928332" lon="2.522108181">
        <ele>424.08</ele>
        <time>2014-09-07T11:40:19Z</time>
      </trkpt>
      <trkpt lat="41.625876448" lon="2.522334827">
        <ele>421.68</ele>
        <time>2014-09-07T11:40:24Z</time>
      </trkpt>
      <trkpt lat="41.625845100" lon="2.522575639">
        <ele>418.79</ele>
        <time>2014-09-07T11:40:28Z</time>
      </trkpt>
      <trkpt lat="41.625865300" lon="2.522885518">
        <ele>416.87</ele>
        <time>2014-09-07T11:40:31Z</time>
      </trkpt>
      <trkpt lat="41.625954987" lon="2.523285335">
        <ele>414.47</ele>
        <time>2014-09-07T11:40:36Z</time>
      </trkpt>
      <trkpt lat="41.626028915" lon="2.523479628">
        <ele>412.54</ele>
        <time>2014-09-07T11:40:40Z</time>
      </trkpt>
      <trkpt lat="41.626094126" lon="2.523731839">
        <ele>408.70</ele>
        <time>2014-09-07T11:40:43Z</time>
      </trkpt>
      <trkpt lat="41.626142322" lon="2.523962593">
        <ele>405.81</ele>
        <time>2014-09-07T11:40:47Z</time>
      </trkpt>
      <trkpt lat="41.626206192" lon="2.524180439">
        <ele>403.41</ele>
        <time>2014-09-07T11:40:49Z</time>
      </trkpt>
      <trkpt lat="41.626291352" lon="2.524441786">
        <ele>399.57</ele>
        <time>2014-09-07T11:40:52Z</time>
      </trkpt>
      <trkpt lat="41.626391935" lon="2.524876472">
        <ele>394.76</ele>
        <time>2014-09-07T11:40:57Z</time>
      </trkpt>
      <trkpt lat="41.626444825" lon="2.525059030">
        <ele>392.84</ele>
        <time>2014-09-07T11:40:59Z</time>
      </trkpt>
      <trkpt lat="41.626621096" lon="2.525428252">
        <ele>389.95</ele>
        <time>2014-09-07T11:41:04Z</time>
      </trkpt>
      <trkpt lat="41.626651355" lon="2.525500672">
        <ele>388.03</ele>
        <time>2014-09-07T11:41:06Z</time>
      </trkpt>
      <trkpt lat="41.626728888" lon="2.525701167">
        <ele>386.11</ele>
        <time>2014-09-07T11:41:08Z</time>
      </trkpt>
      <trkpt lat="41.626754117" lon="2.525789512">
        <ele>385.15</ele>
        <time>2014-09-07T11:41:10Z</time>
      </trkpt>
      <trkpt lat="41.626872051" lon="2.526138283">
        <ele>382.74</ele>
        <time>2014-09-07T11:41:13Z</time>
      </trkpt>
      <trkpt lat="41.626903986" lon="2.526214810">
        <ele>382.26</ele>
        <time>2014-09-07T11:41:15Z</time>
      </trkpt>
      <trkpt lat="41.626981434" lon="2.526317069">
        <ele>381.30</ele>
        <time>2014-09-07T11:41:17Z</time>
      </trkpt>
      <trkpt lat="41.627133231" lon="2.526317321">
        <ele>380.82</ele>
        <time>2014-09-07T11:41:20Z</time>
      </trkpt>
      <trkpt lat="41.627187378" lon="2.526262000">
        <ele>380.82</ele>
        <time>2014-09-07T11:41:22Z</time>
      </trkpt>
      <trkpt lat="41.627266754" lon="2.526168542">
        <ele>380.34</ele>
        <time>2014-09-07T11:41:25Z</time>
      </trkpt>
      <trkpt lat="41.627592894" lon="2.526040634">
        <ele>379.38</ele>
        <time>2014-09-07T11:41:32Z</time>
      </trkpt>
      <trkpt lat="41.627643856" lon="2.526012974">
        <ele>379.38</ele>
        <time>2014-09-07T11:41:34Z</time>
      </trkpt>
      <trkpt lat="41.627846950" lon="2.525760595">
        <ele>377.94</ele>
        <time>2014-09-07T11:41:39Z</time>
      </trkpt>
      <trkpt lat="41.627950969" lon="2.525752632">
        <ele>376.97</ele>
        <time>2014-09-07T11:41:41Z</time>
      </trkpt>
      <trkpt lat="41.627985083" lon="2.525908033">
        <ele>376.01</ele>
        <time>2014-09-07T11:41:44Z</time>
      </trkpt>
      <trkpt lat="41.627924231" lon="2.526053626">
        <ele>375.53</ele>
        <time>2014-09-07T11:41:48Z</time>
      </trkpt>
      <trkpt lat="41.627808896" lon="2.526322015">
        <ele>373.61</ele>
        <time>2014-09-07T11:41:51Z</time>
      </trkpt>
      <trkpt lat="41.627630194" lon="2.526572885">
        <ele>372.17</ele>
        <time>2014-09-07T11:41:55Z</time>
      </trkpt>
      <trkpt lat="41.627464316" lon="2.526930792">
        <ele>368.32</ele>
        <time>2014-09-07T11:42:00Z</time>
      </trkpt>
      <trkpt lat="41.627426681" lon="2.526990974">
        <ele>367.36</ele>
        <time>2014-09-07T11:42:02Z</time>
      </trkpt>
      <trkpt lat="41.627370606" lon="2.527082672">
        <ele>366.40</ele>
        <time>2014-09-07T11:42:07Z</time>
      </trkpt>
      <trkpt lat="41.627345125" lon="2.527116200">
        <ele>366.88</ele>
        <time>2014-09-07T11:42:17Z</time>
      </trkpt>
      <trkpt lat="41.627307490" lon="2.527141597">
        <ele>366.88</ele>
        <time>2014-09-07T11:42:21Z</time>
      </trkpt>
      <trkpt lat="41.627137422" lon="2.527161630">
        <ele>368.32</ele>
        <time>2014-09-07T11:42:31Z</time>
      </trkpt>
      <trkpt lat="41.626929383" lon="2.527167330">
        <ele>367.84</ele>
        <time>2014-09-07T11:42:40Z</time>
      </trkpt>
      <trkpt lat="41.626666107" lon="2.527166240">
        <ele>366.40</ele>
        <time>2014-09-07T11:42:47Z</time>
      </trkpt>
      <trkpt lat="41.626502660" lon="2.527172024">
        <ele>364.48</ele>
        <time>2014-09-07T11:42:54Z</time>
      </trkpt>
      <trkpt lat="41.626462678" lon="2.527159199">
        <ele>364.48</ele>
        <time>2014-09-07T11:42:56Z</time>
      </trkpt>
      <trkpt lat="41.626426888" lon="2.527071105">
        <ele>364.00</ele>
        <time>2014-09-07T11:42:59Z</time>
      </trkpt>
      <trkpt lat="41.626373914" lon="2.527002625">
        <ele>363.04</ele>
        <time>2014-09-07T11:43:03Z</time>
      </trkpt>
      <trkpt lat="41.626349355" lon="2.526919393">
        <ele>362.07</ele>
        <time>2014-09-07T11:43:08Z</time>
      </trkpt>
      <trkpt lat="41.626269559" lon="2.526694423">
        <ele>362.07</ele>
        <time>2014-09-07T11:43:15Z</time>
      </trkpt>
      <trkpt lat="41.626093456" lon="2.526430980">
        <ele>361.59</ele>
        <time>2014-09-07T11:43:24Z</time>
      </trkpt>
      <trkpt lat="41.625820289" lon="2.526196621">
        <ele>361.59</ele>
        <time>2014-09-07T11:43:32Z</time>
      </trkpt>
      <trkpt lat="41.625602025" lon="2.526014315">
        <ele>361.59</ele>
        <time>2014-09-07T11:43:41Z</time>
      </trkpt>
      <trkpt lat="41.625405720" lon="2.525723379">
        <ele>361.59</ele>
        <time>2014-09-07T11:43:50Z</time>
      </trkpt>
      <trkpt lat="41.625384095" lon="2.525680632">
        <ele>361.59</ele>
        <time>2014-09-07T11:43:50Z</time>
      </trkpt>
      <trkpt lat="41.625293990" lon="2.525544342">
        <ele>361.59</ele>
        <time>2014-09-07T11:43:53Z</time>
      </trkpt>
      <trkpt lat="41.625186534" lon="2.525423139">
        <ele>360.63</ele>
        <time>2014-09-07T11:43:57Z</time>
      </trkpt>
      <trkpt lat="41.625118640" lon="2.525342841">
        <ele>360.63</ele>
        <time>2014-09-07T11:43:59Z</time>
      </trkpt>
      <trkpt lat="41.624975477" lon="2.525149470">
        <ele>360.63</ele>
        <time>2014-09-07T11:44:04Z</time>
      </trkpt>
      <trkpt lat="41.624906997" lon="2.525009744">
        <ele>360.63</ele>
        <time>2014-09-07T11:44:07Z</time>
      </trkpt>
      <trkpt lat="41.624820244" lon="2.524754096">
        <ele>359.67</ele>
        <time>2014-09-07T11:44:11Z</time>
      </trkpt>
      <trkpt lat="41.624634418" lon="2.524273142">
        <ele>356.79</ele>
        <time>2014-09-07T11:44:19Z</time>
      </trkpt>
      <trkpt lat="41.624510030" lon="2.523969215">
        <ele>355.34</ele>
        <time>2014-09-07T11:44:23Z</time>
      </trkpt>
      <trkpt lat="41.624318755" lon="2.523505947">
        <ele>352.94</ele>
        <time>2014-09-07T11:44:28Z</time>
      </trkpt>
      <trkpt lat="41.624265362" lon="2.523310816">
        <ele>351.98</ele>
        <time>2014-09-07T11:44:30Z</time>
      </trkpt>
      <trkpt lat="41.624067550" lon="2.522729866">
        <ele>350.06</ele>
        <time>2014-09-07T11:44:37Z</time>
      </trkpt>
      <trkpt lat="41.623997393" lon="2.522602964">
        <ele>350.06</ele>
        <time>2014-09-07T11:44:40Z</time>
      </trkpt>
      <trkpt lat="41.623703272" lon="2.522317141">
        <ele>348.13</ele>
        <time>2014-09-07T11:44:46Z</time>
      </trkpt>
      <trkpt lat="41.623420048" lon="2.522054788">
        <ele>346.69</ele>
        <time>2014-09-07T11:44:53Z</time>
      </trkpt>
      <trkpt lat="41.623263809" lon="2.521833673">
        <ele>345.73</ele>
        <time>2014-09-07T11:44:58Z</time>
      </trkpt>
      <trkpt lat="41.623025679" lon="2.521853874">
        <ele>343.33</ele>
        <time>2014-09-07T11:45:03Z</time>
      </trkpt>
      <trkpt lat="41.622878157" lon="2.521869129">
        <ele>342.85</ele>
        <time>2014-09-07T11:45:05Z</time>
      </trkpt>
      <trkpt lat="41.622592083" lon="2.521794614">
        <ele>340.44</ele>
        <time>2014-09-07T11:45:10Z</time>
      </trkpt>
      <trkpt lat="41.622310619" lon="2.521572326">
        <ele>336.60</ele>
        <time>2014-09-07T11:45:13Z</time>
      </trkpt>
      <trkpt lat="41.622073160" lon="2.521581378">
        <ele>333.23</ele>
        <time>2014-09-07T11:45:17Z</time>
      </trkpt>
      <trkpt lat="41.622033010" lon="2.521658994">
        <ele>333.23</ele>
        <time>2014-09-07T11:45:19Z</time>
      </trkpt>
      <trkpt lat="41.621994621" lon="2.521863094">
        <ele>331.79</ele>
        <time>2014-09-07T11:45:20Z</time>
      </trkpt>
      <trkpt lat="41.622003003" lon="2.522267018">
        <ele>327.47</ele>
        <time>2014-09-07T11:45:26Z</time>
      </trkpt>
      <trkpt lat="41.621965368" lon="2.522309849">
        <ele>326.99</ele>
        <time>2014-09-07T11:45:27Z</time>
      </trkpt>
      <trkpt lat="41.621899822" lon="2.522205997">
        <ele>325.54</ele>
        <time>2014-09-07T11:45:31Z</time>
      </trkpt>
      <trkpt lat="41.621886662" lon="2.522166686">
        <ele>325.06</ele>
        <time>2014-09-07T11:45:33Z</time>
      </trkpt>
      <trkpt lat="41.621784738" lon="2.521896957">
        <ele>322.18</ele>
        <time>2014-09-07T11:45:38Z</time>
      </trkpt>
      <trkpt lat="41.621585500" lon="2.521507533">
        <ele>318.81</ele>
        <time>2014-09-07T11:45:45Z</time>
      </trkpt>
      <trkpt lat="41.621504280" lon="2.521369735">
        <ele>317.37</ele>
        <time>2014-09-07T11:45:47Z</time>
      </trkpt>
      <trkpt lat="41.621319962" lon="2.521148872">
        <ele>313.53</ele>
        <time>2014-09-07T11:45:50Z</time>
      </trkpt>
      <trkpt lat="41.621172859" lon="2.521150548">
        <ele>311.12</ele>
        <time>2014-09-07T11:45:54Z</time>
      </trkpt>
      <trkpt lat="41.621145283" lon="2.521062873">
        <ele>309.68</ele>
        <time>2014-09-07T11:45:57Z</time>
      </trkpt>
      <trkpt lat="41.621207560" lon="2.521023227">
        <ele>309.20</ele>
        <time>2014-09-07T11:45:59Z</time>
      </trkpt>
      <trkpt lat="41.621398584" lon="2.520979976">
        <ele>308.24</ele>
        <time>2014-09-07T11:46:02Z</time>
      </trkpt>
      <trkpt lat="41.621550129" lon="2.521021132">
        <ele>307.28</ele>
        <time>2014-09-07T11:46:06Z</time>
      </trkpt>
      <trkpt lat="41.621659345" lon="2.521052564">
        <ele>306.32</ele>
        <time>2014-09-07T11:46:07Z</time>
      </trkpt>
      <trkpt lat="41.621875179" lon="2.520947203">
        <ele>305.84</ele>
        <time>2014-09-07T11:46:11Z</time>
      </trkpt>
      <trkpt lat="41.622164187" lon="2.520697506">
        <ele>301.03</ele>
        <time>2014-09-07T11:46:18Z</time>
      </trkpt>
      <trkpt lat="41.622218418" lon="2.520650651">
        <ele>300.07</ele>
        <time>2014-09-07T11:46:18Z</time>
      </trkpt>
      <trkpt lat="41.622461577" lon="2.520524169">
        <ele>296.70</ele>
        <time>2014-09-07T11:46:23Z</time>
      </trkpt>
      <trkpt lat="41.622506336" lon="2.520439260">
        <ele>295.26</ele>
        <time>2014-09-07T11:46:25Z</time>
      </trkpt>
      <trkpt lat="41.622406340" lon="2.520370696">
        <ele>294.78</ele>
        <time>2014-09-07T11:46:28Z</time>
      </trkpt>
      <trkpt lat="41.622311541" lon="2.520388046">
        <ele>293.82</ele>
        <time>2014-09-07T11:46:30Z</time>
      </trkpt>
      <trkpt lat="41.622162092" lon="2.520446217">
        <ele>291.42</ele>
        <time>2014-09-07T11:46:34Z</time>
      </trkpt>
      <trkpt lat="41.622036363" lon="2.520476308">
        <ele>289.01</ele>
        <time>2014-09-07T11:46:37Z</time>
      </trkpt>
      <trkpt lat="41.621885992" lon="2.520465747">
        <ele>286.13</ele>
        <time>2014-09-07T11:46:42Z</time>
      </trkpt>
      <trkpt lat="41.621698069" lon="2.520427525">
        <ele>282.28</ele>
        <time>2014-09-07T11:46:46Z</time>
      </trkpt>
      <trkpt lat="41.621587931" lon="2.520383269">
        <ele>281.32</ele>
        <time>2014-09-07T11:46:48Z</time>
      </trkpt>
      <trkpt lat="41.621391208" lon="2.520327864">
        <ele>279.40</ele>
        <time>2014-09-07T11:46:51Z</time>
      </trkpt>
      <trkpt lat="41.620964066" lon="2.520250667">
        <ele>274.59</ele>
        <time>2014-09-07T11:46:56Z</time>
      </trkpt>
      <trkpt lat="41.620706490" lon="2.520217139">
        <ele>271.23</ele>
        <time>2014-09-07T11:46:58Z</time>
      </trkpt>
      <trkpt lat="41.620625605" lon="2.520211691">
        <ele>270.75</ele>
        <time>2014-09-07T11:47:00Z</time>
      </trkpt>
      <trkpt lat="41.620285300" lon="2.520137930">
        <ele>266.42</ele>
        <time>2014-09-07T11:47:03Z</time>
      </trkpt>
      <trkpt lat="41.619978941" lon="2.520207416">
        <ele>263.06</ele>
        <time>2014-09-07T11:47:07Z</time>
      </trkpt>
      <trkpt lat="41.619705272" lon="2.520327613">
        <ele>258.25</ele>
        <time>2014-09-07T11:47:12Z</time>
      </trkpt>
      <trkpt lat="41.619639558" lon="2.520347227">
        <ele>257.29</ele>
        <time>2014-09-07T11:47:12Z</time>
      </trkpt>
      <trkpt lat="41.619503184" lon="2.520357201">
        <ele>255.37</ele>
        <time>2014-09-07T11:47:15Z</time>
      </trkpt>
      <trkpt lat="41.619465214" lon="2.520348400">
        <ele>254.41</ele>
        <time>2014-09-07T11:47:17Z</time>
      </trkpt>
      <trkpt lat="41.619191126" lon="2.520351920">
        <ele>251.04</ele>
        <time>2014-09-07T11:47:22Z</time>
      </trkpt>
      <trkpt lat="41.618913601" lon="2.520489384">
        <ele>246.72</ele>
        <time>2014-09-07T11:47:26Z</time>
      </trkpt>
      <trkpt lat="41.618701455" lon="2.520557026">
        <ele>245.27</ele>
        <time>2014-09-07T11:47:29Z</time>
      </trkpt>
      <trkpt lat="41.618546725" lon="2.520582423">
        <ele>243.35</ele>
        <time>2014-09-07T11:47:31Z</time>
      </trkpt>
      <trkpt lat="41.618352014" lon="2.520771770">
        <ele>240.47</ele>
        <time>2014-09-07T11:47:35Z</time>
      </trkpt>
      <trkpt lat="41.618331310" lon="2.520854835">
        <ele>239.99</ele>
        <time>2014-09-07T11:47:36Z</time>
      </trkpt>
      <trkpt lat="41.618166606" lon="2.521309469">
        <ele>234.70</ele>
        <time>2014-09-07T11:47:40Z</time>
      </trkpt>
      <trkpt lat="41.618125283" lon="2.521388762">
        <ele>233.74</ele>
        <time>2014-09-07T11:47:42Z</time>
      </trkpt>
      <trkpt lat="41.618068286" lon="2.521527482">
        <ele>231.33</ele>
        <time>2014-09-07T11:47:43Z</time>
      </trkpt>
      <trkpt lat="41.617983964" lon="2.521686655">
        <ele>228.45</ele>
        <time>2014-09-07T11:47:48Z</time>
      </trkpt>
      <trkpt lat="41.617915652" lon="2.521640219">
        <ele>227.97</ele>
        <time>2014-09-07T11:47:52Z</time>
      </trkpt>
      <trkpt lat="41.617898972" lon="2.521594118">
        <ele>227.97</ele>
        <time>2014-09-07T11:47:54Z</time>
      </trkpt>
      <trkpt lat="41.617835437" lon="2.521340817">
        <ele>225.57</ele>
        <time>2014-09-07T11:47:57Z</time>
      </trkpt>
      <trkpt lat="41.617771651" lon="2.521119451">
        <ele>225.09</ele>
        <time>2014-09-07T11:48:01Z</time>
      </trkpt>
      <trkpt lat="41.617728400" lon="2.520998417">
        <ele>224.12</ele>
        <time>2014-09-07T11:48:04Z</time>
      </trkpt>
      <trkpt lat="41.617675175" lon="2.520789288">
        <ele>223.16</ele>
        <time>2014-09-07T11:48:06Z</time>
      </trkpt>
      <trkpt lat="41.617710882" lon="2.520473709">
        <ele>222.20</ele>
        <time>2014-09-07T11:48:11Z</time>
      </trkpt>
      <trkpt lat="41.617696130" lon="2.520234071">
        <ele>220.28</ele>
        <time>2014-09-07T11:48:16Z</time>
      </trkpt>
      <trkpt lat="41.617806100" lon="2.520123430">
        <ele>218.36</ele>
        <time>2014-09-07T11:48:18Z</time>
      </trkpt>
      <trkpt lat="41.617890674" lon="2.519973897">
        <ele>216.43</ele>
        <time>2014-09-07T11:48:23Z</time>
      </trkpt>
      <trkpt lat="41.617833928" lon="2.519760661">
        <ele>214.99</ele>
        <time>2014-09-07T11:48:30Z</time>
      </trkpt>
      <trkpt lat="41.617827474" lon="2.519737192">
        <ele>214.99</ele>
        <time>2014-09-07T11:48:30Z</time>
      </trkpt>
      <trkpt lat="41.617817416" lon="2.519655217">
        <ele>213.55</ele>
        <time>2014-09-07T11:48:37Z</time>
      </trkpt>
      <trkpt lat="41.617764442" lon="2.519647505">
        <ele>213.07</ele>
        <time>2014-09-07T11:48:41Z</time>
      </trkpt>
      <trkpt lat="41.617573922" lon="2.519652870">
        <ele>212.59</ele>
        <time>2014-09-07T11:48:49Z</time>
      </trkpt>
      <trkpt lat="41.617290362" lon="2.519677764">
        <ele>211.15</ele>
        <time>2014-09-07T11:48:56Z</time>
      </trkpt>
      <trkpt lat="41.617111492" lon="2.519697713">
        <ele>210.67</ele>
        <time>2014-09-07T11:49:00Z</time>
      </trkpt>
      <trkpt lat="41.616838410" lon="2.519756973">
        <ele>209.22</ele>
        <time>2014-09-07T11:49:05Z</time>
      </trkpt>
      <trkpt lat="41.616587372" lon="2.519879684">
        <ele>207.30</ele>
        <time>2014-09-07T11:49:12Z</time>
      </trkpt>
      <trkpt lat="41.616504223" lon="2.519944308">
        <ele>206.82</ele>
        <time>2014-09-07T11:49:17Z</time>
      </trkpt>
      <trkpt lat="41.616402634" lon="2.520040365">
        <ele>207.78</ele>
        <time>2014-09-07T11:49:24Z</time>
      </trkpt>
      <trkpt lat="41.616359468" lon="2.520123011">
        <ele>208.26</ele>
        <time>2014-09-07T11:49:28Z</time>
      </trkpt>
      <trkpt lat="41.616344967" lon="2.520318896">
        <ele>207.30</ele>
        <time>2014-09-07T11:49:35Z</time>
      </trkpt>
      <trkpt lat="41.616253772" lon="2.520677222">
        <ele>206.82</ele>
        <time>2014-09-07T11:49:42Z</time>
      </trkpt>
      <trkpt lat="41.616187722" lon="2.520900935">
        <ele>206.82</ele>
        <time>2014-09-07T11:49:45Z</time>
      </trkpt>
      <trkpt lat="41.616096695" lon="2.521306619">
        <ele>206.34</ele>
        <time>2014-09-07T11:49:49Z</time>
      </trkpt>
      <trkpt lat="41.615965350" lon="2.521791177">
        <ele>205.38</ele>
        <time>2014-09-07T11:49:57Z</time>
      </trkpt>
      <trkpt lat="41.615929811" lon="2.522132907">
        <ele>204.42</ele>
        <time>2014-09-07T11:50:01Z</time>
      </trkpt>
      <trkpt lat="41.615834258" lon="2.522811841">
        <ele>201.53</ele>
        <time>2014-09-07T11:50:10Z</time>
      </trkpt>
      <trkpt lat="41.615814644" lon="2.522984257">
        <ele>201.53</ele>
        <time>2014-09-07T11:50:11Z</time>
      </trkpt>
      <trkpt lat="41.615719174" lon="2.523718009">
        <ele>199.13</ele>
        <time>2014-09-07T11:50:20Z</time>
      </trkpt>
      <trkpt lat="41.615653879" lon="2.524451425">
        <ele>196.25</ele>
        <time>2014-09-07T11:50:27Z</time>
      </trkpt>
      <trkpt lat="41.615621776" lon="2.524940593">
        <ele>194.32</ele>
        <time>2014-09-07T11:50:32Z</time>
      </trkpt>
      <trkpt lat="41.615611131" lon="2.525045619">
        <ele>194.32</ele>
        <time>2014-09-07T11:50:32Z</time>
      </trkpt>
      <trkpt lat="41.615580956" lon="2.525723882">
        <ele>191.92</ele>
        <time>2014-09-07T11:50:39Z</time>
      </trkpt>
      <trkpt lat="41.615588249" lon="2.526157143">
        <ele>190.00</ele>
        <time>2014-09-07T11:50:44Z</time>
      </trkpt>
      <trkpt lat="41.615614149" lon="2.526633402">
        <ele>189.52</ele>
        <time>2014-09-07T11:50:50Z</time>
      </trkpt>
      <trkpt lat="41.615559415" lon="2.527271684">
        <ele>186.63</ele>
        <time>2014-09-07T11:50:57Z</time>
      </trkpt>
      <trkpt lat="41.615501328" lon="2.527567985">
        <ele>185.19</ele>
        <time>2014-09-07T11:51:00Z</time>
      </trkpt>
      <trkpt lat="41.615351041" lon="2.528305592">
        <ele>183.27</ele>
        <time>2014-09-07T11:51:07Z</time>
      </trkpt>
      <trkpt lat="41.615213158" lon="2.529063065">
        <ele>182.31</ele>
        <time>2014-09-07T11:51:14Z</time>
      </trkpt>
      <trkpt lat="41.615201089" lon="2.529344110">
        <ele>180.87</ele>
        <time>2014-09-07T11:51:17Z</time>
      </trkpt>
      <trkpt lat="41.615179715" lon="2.530255307">
        <ele>179.42</ele>
        <time>2014-09-07T11:51:26Z</time>
      </trkpt>
      <trkpt lat="41.615159011" lon="2.530804657">
        <ele>176.06</ele>
        <time>2014-09-07T11:51:33Z</time>
      </trkpt>
      <trkpt lat="41.615117353" lon="2.531287203">
        <ele>175.58</ele>
        <time>2014-09-07T11:51:37Z</time>
      </trkpt>
      <trkpt lat="41.615216092" lon="2.531643266">
        <ele>173.17</ele>
        <time>2014-09-07T11:51:42Z</time>
      </trkpt>
      <trkpt lat="41.615224390" lon="2.532132015">
        <ele>172.21</ele>
        <time>2014-09-07T11:51:47Z</time>
      </trkpt>
      <trkpt lat="41.615180218" lon="2.532326475">
        <ele>171.25</ele>
        <time>2014-09-07T11:51:49Z</time>
      </trkpt>
      <trkpt lat="41.615013082" lon="2.532938521">
        <ele>169.81</ele>
        <time>2014-09-07T11:51:56Z</time>
      </trkpt>
      <trkpt lat="41.614761122" lon="2.533781573">
        <ele>167.89</ele>
        <time>2014-09-07T11:52:06Z</time>
      </trkpt>
      <trkpt lat="41.614511090" lon="2.534561258">
        <ele>165.00</ele>
        <time>2014-09-07T11:52:15Z</time>
      </trkpt>
      <trkpt lat="41.614254604" lon="2.535338428">
        <ele>163.08</ele>
        <time>2014-09-07T11:52:24Z</time>
      </trkpt>
      <trkpt lat="41.614075986" lon="2.535868500">
        <ele>160.68</ele>
        <time>2014-09-07T11:52:31Z</time>
      </trkpt>
      <trkpt lat="41.613946485" lon="2.536248619">
        <ele>159.24</ele>
        <time>2014-09-07T11:52:38Z</time>
      </trkpt>
      <trkpt lat="41.613923603" lon="2.536302850">
        <ele>159.24</ele>
        <time>2014-09-07T11:52:39Z</time>
      </trkpt>
      <trkpt lat="41.613840873" lon="2.536446767">
        <ele>158.75</ele>
        <time>2014-09-07T11:52:41Z</time>
      </trkpt>
      <trkpt lat="41.613664518" lon="2.536764441">
        <ele>157.31</ele>
        <time>2014-09-07T11:52:48Z</time>
      </trkpt>
      <trkpt lat="41.613539795" lon="2.537009193">
        <ele>156.83</ele>
        <time>2014-09-07T11:52:55Z</time>
      </trkpt>
      <trkpt lat="41.613372325" lon="2.537229469">
        <ele>155.39</ele>
        <time>2014-09-07T11:53:00Z</time>
      </trkpt>
      <trkpt lat="41.613276855" lon="2.537314965">
        <ele>154.91</ele>
        <time>2014-09-07T11:53:04Z</time>
      </trkpt>
      <trkpt lat="41.613188845" lon="2.537428288">
        <ele>154.43</ele>
        <time>2014-09-07T11:53:07Z</time>
      </trkpt>
      <trkpt lat="41.612924396" lon="2.537736826">
        <ele>153.95</ele>
        <time>2014-09-07T11:53:14Z</time>
      </trkpt>
      <trkpt lat="41.612700180" lon="2.537997838">
        <ele>152.99</ele>
        <time>2014-09-07T11:53:21Z</time>
      </trkpt>
      <trkpt lat="41.612539750" lon="2.538197998">
        <ele>152.03</ele>
        <time>2014-09-07T11:53:25Z</time>
      </trkpt>
      <trkpt lat="41.612338417" lon="2.538454987">
        <ele>151.06</ele>
        <time>2014-09-07T11:53:30Z</time>
      </trkpt>
      <trkpt lat="41.612136162" lon="2.538847596">
        <ele>149.14</ele>
        <time>2014-09-07T11:53:37Z</time>
      </trkpt>
      <trkpt lat="41.612113698" lon="2.538893193">
        <ele>149.14</ele>
        <time>2014-09-07T11:53:37Z</time>
      </trkpt>
      <trkpt lat="41.611974307" lon="2.539089246">
        <ele>148.18</ele>
        <time>2014-09-07T11:53:44Z</time>
      </trkpt>
      <trkpt lat="41.611890237" lon="2.539038116">
        <ele>148.66</ele>
        <time>2014-09-07T11:53:49Z</time>
      </trkpt>
      <trkpt lat="41.611846651" lon="2.538760089">
        <ele>150.10</ele>
        <time>2014-09-07T11:53:56Z</time>
      </trkpt>
      <trkpt lat="41.611861068" lon="2.538666882">
        <ele>150.58</ele>
        <time>2014-09-07T11:53:59Z</time>
      </trkpt>
      <trkpt lat="41.611901469" lon="2.538613321">
        <ele>151.06</ele>
        <time>2014-09-07T11:54:03Z</time>
      </trkpt>
      <trkpt lat="41.611512716" lon="2.538774757">
        <ele>150.10</ele>
        <time>2014-09-07T11:54:10Z</time>
      </trkpt>
      <trkpt lat="41.611284896" lon="2.538817924">
        <ele>148.66</ele>
        <time>2014-09-07T11:54:15Z</time>
      </trkpt>
      <trkpt lat="41.611147013" lon="2.538847679">
        <ele>148.66</ele>
        <time>2014-09-07T11:54:19Z</time>
      </trkpt>
      <trkpt lat="41.610789022" lon="2.538996039">
        <ele>147.22</ele>
        <time>2014-09-07T11:54:26Z</time>
      </trkpt>
      <trkpt lat="41.610472270" lon="2.539200306">
        <ele>145.30</ele>
        <time>2014-09-07T11:54:33Z</time>
      </trkpt>
      <trkpt lat="41.610051080" lon="2.539436424">
        <ele>142.89</ele>
        <time>2014-09-07T11:54:41Z</time>
      </trkpt>
      <trkpt lat="41.609843544" lon="2.539548071">
        <ele>141.93</ele>
        <time>2014-09-07T11:54:45Z</time>
      </trkpt>
      <trkpt lat="41.609586890" lon="2.539722666">
        <ele>140.97</ele>
        <time>2014-09-07T11:54:52Z</time>
      </trkpt>
      <trkpt lat="41.609531737" lon="2.539757870">
        <ele>140.49</ele>
        <time>2014-09-07T11:54:59Z</time>
      </trkpt>
      <trkpt lat="41.609483625" lon="2.539762229">
        <ele>140.49</ele>
        <time>2014-09-07T11:55:06Z</time>
      </trkpt>
      <trkpt lat="41.609446912" lon="2.539726019">
        <ele>140.49</ele>
        <time>2014-09-07T11:55:13Z</time>
      </trkpt>
      <trkpt lat="41.609409613" lon="2.539728282">
        <ele>140.49</ele>
        <time>2014-09-07T11:55:20Z</time>
      </trkpt>
      <trkpt lat="41.609380444" lon="2.539746890">
        <ele>140.49</ele>
        <time>2014-09-07T11:55:23Z</time>
      </trkpt>
      <trkpt lat="41.609319339" lon="2.539783519">
        <ele>140.49</ele>
        <time>2014-09-07T11:55:32Z</time>
      </trkpt>
      <trkpt lat="41.609287907" lon="2.539804557">
        <ele>140.49</ele>
        <time>2014-09-07T11:55:39Z</time>
      </trkpt>
      <trkpt lat="41.609260247" lon="2.539830206">
        <ele>140.49</ele>
        <time>2014-09-07T11:55:48Z</time>
      </trkpt>
      <trkpt lat="41.609236275" lon="2.539881084">
        <ele>139.53</ele>
        <time>2014-09-07T11:55:56Z</time>
      </trkpt>
      <trkpt lat="41.609244154" lon="2.539952666">
        <ele>139.05</ele>
        <time>2014-09-07T11:56:05Z</time>
      </trkpt>
      <trkpt lat="41.609234347" lon="2.539978063">
        <ele>139.05</ele>
        <time>2014-09-07T11:56:12Z</time>
      </trkpt>
      <trkpt lat="41.609193695" lon="2.540022822">
        <ele>138.57</ele>
        <time>2014-09-07T11:56:21Z</time>
      </trkpt>
      <trkpt lat="41.609138542" lon="2.540097002">
        <ele>138.57</ele>
        <time>2014-09-07T11:56:31Z</time>
      </trkpt>
      <trkpt lat="41.609149438" lon="2.540152909">
        <ele>138.57</ele>
        <time>2014-09-07T11:56:40Z</time>
      </trkpt>
      <trkpt lat="41.609125717" lon="2.540180151">
        <ele>138.09</ele>
        <time>2014-09-07T11:56:47Z</time>
      </trkpt>
      <trkpt lat="41.609105769" lon="2.540257013">
        <ele>138.09</ele>
        <time>2014-09-07T11:56:57Z</time>
      </trkpt>
      <trkpt lat="41.609056567" lon="2.540352315">
        <ele>138.09</ele>
        <time>2014-09-07T11:57:06Z</time>
      </trkpt>
      <trkpt lat="41.608998983" lon="2.540397661">
        <ele>138.09</ele>
        <time>2014-09-07T11:57:15Z</time>
      </trkpt>
      <trkpt lat="41.608923546" lon="2.540375281">
        <ele>138.09</ele>
        <time>2014-09-07T11:57:25Z</time>
      </trkpt>
      <trkpt lat="41.608928407" lon="2.540369665">
        <ele>138.09</ele>
        <time>2014-09-07T11:57:34Z</time>
      </trkpt>
      <trkpt lat="41.608921702" lon="2.540366732">
        <ele>138.09</ele>
        <time>2014-09-07T11:57:44Z</time>
      </trkpt>
      <trkpt lat="41.608917930" lon="2.540406965">
        <ele>138.09</ele>
        <time>2014-09-07T11:57:51Z</time>
      </trkpt>
      <trkpt lat="41.608888174" lon="2.540493215">
        <ele>138.09</ele>
        <time>2014-09-07T11:58:00Z</time>
      </trkpt>
      <trkpt lat="41.608866801" lon="2.540509978">
        <ele>138.09</ele>
        <time>2014-09-07T11:58:09Z</time>
      </trkpt>
      <trkpt lat="41.608842577" lon="2.540504363">
        <ele>138.09</ele>
        <time>2014-09-07T11:58:14Z</time>
      </trkpt>
      <trkpt lat="41.608819946" lon="2.540404031">
        <ele>137.61</ele>
        <time>2014-09-07T11:58:19Z</time>
      </trkpt>
      <trkpt lat="41.608812905" lon="2.540345190">
        <ele>137.13</ele>
        <time>2014-09-07T11:58:21Z</time>
      </trkpt>
      <trkpt lat="41.608665467" lon="2.540351644">
        <ele>136.64</ele>
        <time>2014-09-07T11:58:28Z</time>
      </trkpt>
      <trkpt lat="41.608400934" lon="2.540340077">
        <ele>136.16</ele>
        <time>2014-09-07T11:58:36Z</time>
      </trkpt>
      <trkpt lat="41.608090804" lon="2.540405540">
        <ele>136.16</ele>
        <time>2014-09-07T11:58:45Z</time>
      </trkpt>
      <trkpt lat="41.607856111" lon="2.540437559">
        <ele>135.20</ele>
        <time>2014-09-07T11:58:52Z</time>
      </trkpt>
      <trkpt lat="41.607698615" lon="2.540490113">
        <ele>134.72</ele>
        <time>2014-09-07T11:58:57Z</time>
      </trkpt>
      <trkpt lat="41.607563415" lon="2.540489862">
        <ele>132.80</ele>
        <time>2014-09-07T11:59:01Z</time>
      </trkpt>
      <trkpt lat="41.607050191" lon="2.540328259">
        <ele>132.32</ele>
        <time>2014-09-07T11:59:11Z</time>
      </trkpt>
      <trkpt lat="41.606669568" lon="2.540242596">
        <ele>130.88</ele>
        <time>2014-09-07T11:59:20Z</time>
      </trkpt>
      <trkpt lat="41.606275954" lon="2.540205380">
        <ele>130.40</ele>
        <time>2014-09-07T11:59:29Z</time>
      </trkpt>
      <trkpt lat="41.606188028" lon="2.540200183">
        <ele>129.43</ele>
        <time>2014-09-07T11:59:32Z</time>
      </trkpt>
      <trkpt lat="41.606166570" lon="2.540211331">
        <ele>129.43</ele>
        <time>2014-09-07T11:59:32Z</time>
      </trkpt>
      <trkpt lat="41.606079985" lon="2.540325241">
        <ele>129.43</ele>
        <time>2014-09-07T11:59:37Z</time>
      </trkpt>
      <trkpt lat="41.605945456" lon="2.540415682">
        <ele>129.43</ele>
        <time>2014-09-07T11:59:44Z</time>
      </trkpt>
      <trkpt lat="41.605929698" lon="2.540414006">
        <ele>129.43</ele>
        <time>2014-09-07T11:59:46Z</time>
      </trkpt>
      <trkpt lat="41.605902960" lon="2.540481648">
        <ele>129.43</ele>
        <time>2014-09-07T11:59:51Z</time>
      </trkpt>
      <trkpt lat="41.605927602" lon="2.540521210">
        <ele>129.43</ele>
        <time>2014-09-07T11:59:55Z</time>
      </trkpt>
      <trkpt lat="41.605946378" lon="2.540594468">
        <ele>129.43</ele>
        <time>2014-09-07T12:00:00Z</time>
      </trkpt>
      <trkpt lat="41.605977978" lon="2.540679293">
        <ele>129.43</ele>
        <time>2014-09-07T12:00:04Z</time>
      </trkpt>
      <trkpt lat="41.606065820" lon="2.540783480">
        <ele>130.88</ele>
        <time>2014-09-07T12:00:11Z</time>
      </trkpt>
      <trkpt lat="41.606200266" lon="2.540751880">
        <ele>131.84</ele>
        <time>2014-09-07T12:00:16Z</time>
      </trkpt>
      <trkpt lat="41.606384165" lon="2.540765124">
        <ele>131.84</ele>
        <time>2014-09-07T12:00:26Z</time>
      </trkpt>
      <trkpt lat="41.606497991" lon="2.540887499">
        <ele>131.84</ele>
        <time>2014-09-07T12:00:33Z</time>
      </trkpt>
      <trkpt lat="41.606513581" lon="2.540944329">
        <ele>132.32</ele>
        <time>2014-09-07T12:00:35Z</time>
      </trkpt>
      <trkpt lat="41.606655990" lon="2.541140046">
        <ele>133.28</ele>
        <time>2014-09-07T12:00:45Z</time>
      </trkpt>
      <trkpt lat="41.606732768" lon="2.541353868">
        <ele>134.72</ele>
        <time>2014-09-07T12:00:54Z</time>
      </trkpt>
      <trkpt lat="41.606776605" lon="2.541562494">
        <ele>135.68</ele>
        <time>2014-09-07T12:01:03Z</time>
      </trkpt>
      <trkpt lat="41.606828489" lon="2.541802468">
        <ele>137.61</ele>
        <time>2014-09-07T12:01:13Z</time>
      </trkpt>
      <trkpt lat="41.606885822" lon="2.541972788">
        <ele>139.05</ele>
        <time>2014-09-07T12:01:22Z</time>
      </trkpt>
      <trkpt lat="41.606948518" lon="2.542101450">
        <ele>139.05</ele>
        <time>2014-09-07T12:01:29Z</time>
      </trkpt>
      <trkpt lat="41.607023620" lon="2.542292474">
        <ele>140.49</ele>
        <time>2014-09-07T12:01:39Z</time>
      </trkpt>
      <trkpt lat="41.607071229" lon="2.542372102">
        <ele>140.97</ele>
        <time>2014-09-07T12:01:48Z</time>
      </trkpt>
      <trkpt lat="41.607104841" lon="2.542399595">
        <ele>141.93</ele>
        <time>2014-09-07T12:01:55Z</time>
      </trkpt>
      <trkpt lat="41.607109283" lon="2.542431865">
        <ele>141.93</ele>
        <time>2014-09-07T12:02:11Z</time>
      </trkpt>
    </trkseg>
  </trk>
</gpx>
